[[{"header":{"parameterUnit":"m.s-1","parameterCategory":1,"la1":31.0,"la2":29.5877,"lo1":-88.7671,"lo2":-86.6584,"dy":0.0162,"dx":0.0185,"nx":115,"ny":88,"refTime":"2026-05-02T00:00:00:Z","depth":0,"parameterNumber":2,"parameterNumberName":"U-component_of_WINDS"},"data":[0.0,0.0,0.0,0.0,0.0,0.0,0.0,0.0,0.0,0.0,0.0,0.0,0.0,0.0,0.0,0.0,0.0,0.0,0.0,0.0,0.0,0.0,0.0,0.0,0.0,0.0,0.0,0.0,0.0,0.0,0.0,0.0,0.0,0.0,0.0,0.0,0.0,0.0,0.0,0.0,0.0,0.0,0.0,0.0,0.0,0.0,0.0,0.0,0.0,0.0,0.0,0.0,0.0,0.0,0.0,0.0,0.0,0.0,0.0,0.0,0.0,0.0,0.0,0.0,0.0,0.0,0.0,0.0,0.0,0.0,0.0,0.0,0.0,0.0,0.0,0.0,0.0,0.0,0.0,0.0,0.0,0.0,0.0,0.0,0.0,0.0,0.0,0.0,0.0,0.0,0.0,0.0,0.0,0.0,0.0,0.0,0.0,0.0,0.0,0.0,0.0,0.0,0.0,0.0,0.0,0.0,0.0,0.0,0.0,0.0,0.0,0.0,0.0,0.0,0.0,0.0,0.0,0.0,0.0,0.0,0.0,0.0,0.0,0.0,0.0,0.0,0.0,0.0,0.0,0.0,0.0,0.0,0.0,0.0,0.0,0.0,0.0,0.0,0.0,0.0,0.0,0.0,0.0,0.0,0.0,0.0,0.0,0.0,0.0,0.0,0.0,0.0,0.0,0.0,0.0,0.0,0.0,0.0,0.0,0.0,0.0,0.0,0.0,0.0,0.0,0.0,0.0,0.0,0.0,0.0,0.0,0.0,0.0,0.0,0.0,0.0,0.0,0.0,0.0,0.0,0.0,0.0,0.0,0.0,0.0,0.0,0.0,0.0,0.0,0.0,0.0,0.0,0.0,0.0,0.0,0.0,0.0,0.0,0.0,0.0,0.0,0.0,0.0,0.0,0.0,0.0,0.0,0.0,0.0,0.0,0.0,0.0,0.0,0.0,0.0,0.0,0.0,0.0,0.0,0.0,0.0,0.0,0.0,0.0,0.0,0.0,0.0,0.0,0.0,0.0,0.0,0.0,0.0,0.0,0.0,0.0,0.0,0.0,0.0,0.0,0.0,0.0,0.0,0.0,0.0,0.0,0.0,0.0,0.0,0.0,0.0,0.0,0.0,0.0,0.0,0.0,0.0,0.0,0.0,0.0,0.0,0.0,0.0,0.0,0.0,0.0,0.0,0.0,0.0,0.0,0.0,0.0,0.0,0.0,0.0,0.0,0.0,0.0,0.0,0.0,0.0,0.0,0.0,0.0,0.0,0.0,0.0,0.0,0.0,0.0,0.0,0.0,0.0,0.0,0.0,0.0,0.0,0.0,0.0,0.0,0.0,0.0,0.0,0.0,0.0,0.0,0.0,0.0,0.0,0.0,0.0,0.0,0.0,0.0,0.0,0.0,0.0,0.0,0.0,0.0,0.0,0.0,0.0,0.0,0.0,0.0,0.0,0.0,0.0,0.0,0.0,0.0,0.0,0.0,0.0,0.0,0.0,0.0,0.0,0.0,0.0,0.0,0.0,0.0,0.0,0.0,0.0,0.0,0.0,0.0,0.0,0.0,0.0,0.0,0.0,0.0,0.0,0.0,0.0,0.0,0.0,0.0,0.0,0.0,0.0,0.0,0.0,0.0,0.0,0.0,0.0,0.0,0.0,0.0,0.0,0.0,0.0,0.0,0.0,0.0,0.0,0.0,0.0,0.0,0.0,0.0,0.0,0.0,0.0,0.0,0.0,0.0,0.0,0.0,0.0,0.0,0.0,0.0,0.0,0.0,0.0,0.0,0.0,0.0,0.0,0.0,0.0,0.0,0.0,0.0,0.0,0.0,0.0,0.0,0.0,0.0,0.0,0.0,0.0,0.0,0.0,0.0,0.0,0.0,0.0,0.0,0.0,0.0,0.0,0.0,0.0,0.0,0.0,0.0,0.0,0.0,0.0,0.0,0.0,0.0,0.0,0.0,0.0,0.0,0.0,0.0,0.0,0.0,0.0,0.0,0.0,0.0,0.0,0.0,0.0,0.0,0.0,0.0,0.0,0.0,0.0,0.0,0.0,0.0,0.0,0.0,0.0,0.0,0.0,0.0,0.0,0.0,0.0,0.0,0.0,0.0,0.0,0.0,0.0,0.0,0.0,0.0,0.0,0.0,0.0,0.0,0.0,0.0,0.0,0.0,0.0,0.0,0.0,0.0,0.0,0.0,0.0,0.0,0.0,0.0,0.0,0.0,0.0,0.0,0.0,0.0,0.0,0.0,0.0,0.0,0.0,0.0,0.0,0.0,0.0,0.0,0.0,0.0,0.0,0.0,0.0,0.0,0.0,0.0,0.0,0.0,0.0,0.0,0.0,0.0,0.0,0.0,0.0,0.0,0.0,0.0,0.0,0.0,0.0,0.0,0.0,0.0,0.0,0.0,0.0,0.0,0.0,0.0,0.0,0.0,0.0,0.0,0.0,0.0,0.0,0.0,0.0,0.0,0.0,0.0,0.0,0.0,0.0,0.0,0.0,0.0,0.0,0.0,0.0,0.0,0.0,0.0,0.0,0.0,0.0,0.0,0.0,0.0,0.0,0.0,0.0,0.0,0.0,0.0,0.0,0.0,0.0,0.0,0.0,0.0,0.0,0.0,0.0,0.0,0.0,0.0,0.0,0.0,0.0,0.0,0.0,0.0,0.0,0.0,0.0,0.0,0.0,0.0,0.0,0.0,0.0,0.0,0.0,0.0,0.0,0.0,0.0,0.0,0.0,0.0,0.0,0.0,0.0,0.0,0.0,0.0,0.0,0.0,0.0,0.0,0.0,0.0,0.0,0.0,0.0,0.0,0.0,0.0,0.0,0.0,0.0,0.0,0.0,0.0,0.0,0.0,0.0,0.0,0.0,0.0,0.0,0.0,0.0,0.0,0.0,0.0,0.0,0.0,0.0,0.0,0.0,0.0,0.0,0.0,0.0,0.0,0.0,0.0,0.0,0.0,0.0,0.0,0.0,0.0,0.0,0.0,0.0,0.0,0.0,0.0,0.0,0.0,0.0,0.0,0.0,0.0,0.0,0.0,0.0,0.0,0.0,0.0,0.0,0.0,0.0,0.0,0.0,0.0,0.0,0.0,0.0,0.0,0.0,0.0,0.0,0.0,0.0,0.0,0.0,0.0,0.0,0.0,0.0,0.0,0.0,0.0,0.0,0.0,0.0,0.0,0.0,0.0,0.0,0.0,0.0,0.0,0.0,0.0,0.0,0.0,0.0,0.0,0.0,0.0,0.0,0.0,0.0,0.0,0.0,0.0,0.0,0.0,0.0,0.0,0.0,0.0,0.0,0.0,0.0,0.0,0.0,0.0,0.0,0.0,0.0,0.0,0.0,0.0,0.0,0.0,0.0,0.0,0.0,0.0,0.0,0.0,0.0,0.0,0.0,0.0,0.0,0.0,0.0,0.0,0.0,0.0,0.0,0.0,0.0,0.0,0.0,0.0,0.0,0.0,0.0,0.0,0.0,0.0,0.0,0.0,0.0,0.0,0.0,0.0,0.0,0.0,0.0,0.0,0.0,0.0,0.0,0.0,0.0,0.0,0.0,0.0,0.0,0.0,0.0,0.0,0.0,0.0,0.0,0.0,0.0,0.0,0.0,0.0,0.0,0.0,0.0,0.0,0.0,0.0,0.0,0.0,0.0,0.0,0.0,0.0,0.0,0.0,0.0,0.0,0.0,0.0,0.0,0.0,0.0,0.0,0.0,0.0,0.0,0.0,0.0,0.0,0.0,0.0,0.0,0.0,0.0,0.0,0.0,0.0,0.0,0.0,0.0,0.0,0.0,0.0,0.0,0.0,0.0,0.0,0.0,0.0,0.0,0.0,0.0,0.0,0.0,0.0,0.0,0.0,0.0,0.0,0.0,0.0,0.0,0.0,0.0,0.0,0.0,0.0,0.0,0.0,0.0,0.0,0.0,0.0,0.0,0.0,0.0,0.0,0.0,0.0,0.0,0.0,0.0,0.0,0.0,0.0,0.0,0.0,0.0,0.0,0.0,0.0,0.0,0.0,0.0,0.0,0.0,0.0,0.0,0.0,0.0,0.0,0.0,0.0,0.0,0.0,0.0,0.0,0.0,0.0,0.0,0.0,0.0,0.0,0.0,0.0,0.0,0.0,0.0,0.0,0.0,0.0,0.0,0.0,0.0,0.0,0.0,0.0,0.0,0.0,0.0,0.0,0.0,0.0,0.0,0.0,0.0,0.0,0.0,0.0,0.0,0.0,0.0,0.0,0.0,0.0,-7.1719,0.0,0.0,0.0,-6.906,0.0,0.0,0.0,0.0,0.0,0.0,0.0,0.0,0.0,0.0,0.0,0.0,0.0,0.0,0.0,0.0,0.0,0.0,0.0,0.0,0.0,0.0,0.0,0.0,0.0,0.0,0.0,0.0,0.0,0.0,0.0,0.0,0.0,0.0,0.0,0.0,0.0,0.0,0.0,0.0,0.0,0.0,0.0,0.0,0.0,0.0,0.0,0.0,0.0,0.0,0.0,0.0,0.0,0.0,0.0,0.0,0.0,0.0,0.0,0.0,0.0,0.0,0.0,0.0,0.0,0.0,0.0,0.0,0.0,0.0,0.0,0.0,0.0,0.0,0.0,0.0,0.0,0.0,0.0,0.0,0.0,0.0,0.0,0.0,0.0,0.0,0.0,0.0,0.0,0.0,0.0,0.0,0.0,0.0,0.0,0.0,0.0,0.0,0.0,0.0,0.0,0.0,0.0,0.0,0.0,0.0,0.0,0.0,0.0,0.0,-7.1992,-7.1992,-7.0764,-6.9582,-6.8442,0.0,0.0,0.0,0.0,0.0,0.0,0.0,0.0,0.0,0.0,0.0,0.0,0.0,0.0,0.0,0.0,0.0,0.0,0.0,0.0,0.0,0.0,0.0,0.0,0.0,0.0,0.0,0.0,0.0,0.0,0.0,0.0,0.0,0.0,0.0,0.0,0.0,0.0,0.0,0.0,0.0,0.0,0.0,0.0,0.0,0.0,0.0,0.0,0.0,0.0,0.0,0.0,0.0,0.0,0.0,0.0,0.0,0.0,0.0,0.0,0.0,0.0,0.0,0.0,0.0,0.0,0.0,0.0,0.0,0.0,0.0,0.0,0.0,0.0,0.0,0.0,0.0,0.0,0.0,0.0,0.0,0.0,0.0,0.0,0.0,0.0,0.0,0.0,0.0,0.0,0.0,0.0,0.0,0.0,0.0,0.0,0.0,0.0,0.0,0.0,0.0,0.0,0.0,0.0,0.0,0.0,0.0,0.0,0.0,0.0,0.0,0.0,-7.1431,-6.9823,-6.7346,0.0,0.0,0.0,0.0,0.0,0.0,0.0,0.0,0.0,0.0,0.0,0.0,0.0,0.0,0.0,0.0,0.0,0.0,0.0,0.0,0.0,0.0,0.0,0.0,0.0,0.0,0.0,0.0,0.0,0.0,0.0,0.0,0.0,0.0,0.0,0.0,0.0,0.0,0.0,0.0,0.0,0.0,0.0,0.0,0.0,0.0,0.0,0.0,0.0,0.0,0.0,0.0,0.0,0.0,0.0,0.0,0.0,0.0,0.0,0.0,0.0,0.0,0.0,0.0,0.0,0.0,0.0,0.0,0.0,0.0,0.0,0.0,0.0,0.0,0.0,0.0,0.0,0.0,0.0,0.0,0.0,0.0,0.0,0.0,0.0,0.0,0.0,0.0,0.0,0.0,0.0,0.0,0.0,0.0,0.0,0.0,0.0,0.0,0.0,0.0,0.0,0.0,0.0,0.0,0.0,0.0,0.0,0.0,0.0,0.0,-7.3164,-7.3164,-7.2338,0.0,-6.5805,0.0,0.0,0.0,0.0,0.0,0.0,0.0,0.0,0.0,0.0,0.0,0.0,0.0,0.0,0.0,0.0,0.0,0.0,0.0,0.0,0.0,0.0,0.0,0.0,0.0,0.0,0.0,0.0,0.0,0.0,0.0,0.0,0.0,0.0,0.0,0.0,0.0,0.0,0.0,0.0,0.0,0.0,0.0,0.0,0.0,0.0,0.0,0.0,0.0,0.0,0.0,0.0,0.0,0.0,0.0,0.0,0.0,0.0,0.0,0.0,0.0,0.0,0.0,0.0,0.0,0.0,0.0,0.0,0.0,0.0,0.0,0.0,0.0,0.0,0.0,0.0,0.0,0.0,0.0,0.0,0.0,0.0,0.0,0.0,0.0,0.0,0.0,0.0,0.0,0.0,0.0,0.0,0.0,0.0,0.0,0.0,0.0,0.0,0.0,0.0,0.0,0.0,0.0,0.0,0.0,0.0,0.0,0.0,0.0,0.0,-7.3785,-7.48,-7.246,-6.9349,0.0,0.0,0.0,0.0,0.0,0.0,0.0,0.0,0.0,0.0,0.0,0.0,0.0,0.0,0.0,0.0,0.0,0.0,0.0,0.0,0.0,0.0,0.0,0.0,0.0,0.0,0.0,0.0,0.0,0.0,0.0,0.0,0.0,0.0,0.0,0.0,0.0,0.0,0.0,0.0,0.0,0.0,0.0,0.0,0.0,0.0,0.0,0.0,0.0,0.0,0.0,0.0,0.0,0.0,0.0,0.0,0.0,0.0,0.0,0.0,0.0,0.0,0.0,0.0,0.0,0.0,0.0,0.0,0.0,0.0,0.0,0.0,0.0,0.0,0.0,0.0,0.0,0.0,0.0,0.0,0.0,0.0,0.0,0.0,0.0,0.0,0.0,0.0,0.0,0.0,0.0,0.0,0.0,0.0,0.0,0.0,0.0,0.0,0.0,0.0,0.0,0.0,0.0,0.0,0.0,0.0,0.0,0.0,0.0,0.0,-7.2411,-7.3895,-7.4949,-7.1992,-6.8739,-6.5529,0.0,0.0,0.0,0.0,0.0,0.0,0.0,0.0,0.0,0.0,0.0,0.0,0.0,0.0,0.0,0.0,0.0,0.0,0.0,0.0,0.0,0.0,0.0,0.0,0.0,0.0,0.0,0.0,0.0,0.0,0.0,0.0,0.0,0.0,0.0,0.0,0.0,0.0,0.0,0.0,0.0,0.0,0.0,0.0,0.0,0.0,0.0,0.0,0.0,0.0,0.0,0.0,0.0,0.0,0.0,0.0,0.0,0.0,0.0,0.0,0.0,0.0,0.0,0.0,0.0,0.0,0.0,0.0,0.0,0.0,0.0,0.0,0.0,0.0,0.0,0.0,0.0,0.0,0.0,0.0,0.0,0.0,0.0,0.0,0.0,0.0,0.0,0.0,0.0,0.0,0.0,0.0,0.0,0.0,0.0,0.0,0.0,0.0,0.0,0.0,0.0,0.0,0.0,0.0,0.0,0.0,0.0,0.0,-7.0692,-7.245,-7.3348,-7.3387,-7.0857,-6.8202,0.0,0.0,0.0,0.0,0.0,0.0,0.0,0.0,0.0,0.0,0.0,0.0,0.0,0.0,0.0,0.0,0.0,0.0,0.0,0.0,0.0,0.0,0.0,0.0,0.0,0.0,0.0,0.0,0.0,0.0,0.0,0.0,0.0,0.0,0.0,0.0,0.0,0.0,0.0,0.0,0.0,0.0,0.0,0.0,0.0,0.0,0.0,0.0,0.0,0.0,0.0,0.0,0.0,0.0,0.0,0.0,0.0,0.0,0.0,0.0,0.0,0.0,0.0,0.0,0.0,0.0,0.0,0.0,0.0,0.0,0.0,0.0,0.0,0.0,0.0,0.0,0.0,0.0,0.0,0.0,0.0,0.0,0.0,0.0,0.0,0.0,0.0,0.0,0.0,0.0,0.0,0.0,0.0,0.0,0.0,0.0,0.0,0.0,0.0,0.0,0.0,0.0,0.0,0.0,0.0,0.0,0.0,0.0,0.0,-7.0831,-7.3447,-7.4111,-7.251,-7.0993,-6.8506,0.0,0.0,0.0,0.0,0.0,0.0,0.0,0.0,0.0,0.0,0.0,0.0,0.0,0.0,0.0,0.0,0.0,0.0,0.0,0.0,0.0,0.0,0.0,0.0,0.0,0.0,0.0,0.0,0.0,0.0,0.0,0.0,0.0,0.0,0.0,0.0,0.0,0.0,0.0,0.0,0.0,0.0,0.0,0.0,0.0,0.0,0.0,0.0,0.0,0.0,0.0,0.0,0.0,0.0,0.0,0.0,0.0,0.0,0.0,0.0,0.0,0.0,0.0,0.0,0.0,0.0,0.0,0.0,0.0,0.0,0.0,0.0,0.0,0.0,0.0,0.0,0.0,0.0,0.0,0.0,0.0,0.0,0.0,0.0,0.0,0.0,0.0,0.0,0.0,0.0,0.0,0.0,0.0,0.0,0.0,0.0,0.0,0.0,0.0,0.0,0.0,0.0,0.0,0.0,0.0,0.0,0.0,0.0,0.0,-7.1597,0.0,-7.472,-7.2495,-7.1011,-6.8527,0.0,0.0,0.0,0.0,0.0,0.0,0.0,0.0,0.0,0.0,0.0,0.0,0.0,0.0,0.0,0.0,0.0,0.0,0.0,0.0,0.0,0.0,0.0,0.0,0.0,0.0,0.0,0.0,0.0,0.0,0.0,0.0,0.0,0.0,0.0,0.0,0.0,0.0,0.0,0.0,0.0,0.0,0.0,0.0,0.0,0.0,0.0,0.0,0.0,0.0,0.0,0.0,0.0,0.0,0.0,0.0,0.0,0.0,0.0,0.0,0.0,0.0,0.0,0.0,0.0,0.0,0.0,0.0,0.0,0.0,0.0,0.0,0.0,0.0,0.0,0.0,0.0,0.0,0.0,0.0,0.0,0.0,0.0,0.0,0.0,0.0,0.0,0.0,0.0,0.0,0.0,0.0,0.0,0.0,0.0,0.0,0.0,0.0,0.0,0.0,0.0,0.0,0.0,0.0,0.0,0.0,0.0,0.0,-7.0738,-7.3236,-7.4954,-7.5032,-7.3315,-7.0816,-6.8215,0.0,0.0,0.0,0.0,0.0,0.0,0.0,0.0,0.0,0.0,0.0,0.0,0.0,0.0,0.0,0.0,0.0,0.0,0.0,0.0,0.0,0.0,0.0,0.0,0.0,0.0,0.0,0.0,0.0,0.0,0.0,0.0,0.0,0.0,0.0,0.0,0.0,0.0,0.0,0.0,0.0,0.0,0.0,0.0,0.0,0.0,0.0,0.0,0.0,0.0,0.0,0.0,0.0,0.0,0.0,0.0,0.0,0.0,0.0,0.0,0.0,0.0,0.0,0.0,0.0,0.0,0.0,0.0,0.0,0.0,0.0,0.0,0.0,0.0,0.0,0.0,0.0,0.0,0.0,0.0,0.0,0.0,0.0,0.0,0.0,0.0,0.0,0.0,0.0,0.0,0.0,0.0,0.0,0.0,0.0,0.0,0.0,0.0,0.0,0.0,0.0,0.0,0.0,0.0,0.0,0.0,0.0,0.0,0.0,-7.4134,-7.5813,-7.5618,-7.3354,-7.1363,-6.852,0.0,0.0,0.0,0.0,0.0,0.0,0.0,0.0,0.0,0.0,0.0,0.0,0.0,0.0,0.0,0.0,0.0,0.0,0.0,0.0,0.0,0.0,0.0,0.0,0.0,0.0,0.0,0.0,0.0,0.0,0.0,0.0,0.0,0.0,0.0,0.0,0.0,0.0,0.0,0.0,0.0,0.0,0.0,0.0,0.0,0.0,0.0,0.0,0.0,0.0,0.0,0.0,0.0,0.0,0.0,0.0,0.0,0.0,0.0,0.0,0.0,0.0,0.0,0.0,0.0,0.0,0.0,0.0,0.0,0.0,0.0,0.0,0.0,0.0,0.0,0.0,0.0,0.0,0.0,0.0,0.0,0.0,0.0,0.0,0.0,0.0,0.0,0.0,0.0,0.0,0.0,0.0,0.0,0.0,0.0,0.0,0.0,0.0,0.0,0.0,0.0,0.0,0.0,0.0,0.0,0.0,0.0,0.0,0.0,-7.6438,-7.8155,-7.7804,-7.5266,-7.2924,-6.9806,-6.5835,0.0,0.0,0.0,0.0,0.0,0.0,0.0,0.0,0.0,0.0,0.0,0.0,0.0,0.0,0.0,0.0,0.0,0.0,0.0,0.0,0.0,0.0,0.0,0.0,0.0,0.0,0.0,0.0,0.0,0.0,0.0,0.0,0.0,0.0,0.0,0.0,0.0,0.0,0.0,0.0,0.0,0.0,0.0,0.0,0.0,0.0,0.0,0.0,0.0,0.0,0.0,0.0,0.0,0.0,0.0,0.0,0.0,0.0,0.0,0.0,0.0,0.0,0.0,0.0,0.0,0.0,0.0,0.0,0.0,0.0,0.0,0.0,0.0,0.0,0.0,0.0,0.0,0.0,0.0,0.0,0.0,0.0,0.0,0.0,0.0,0.0,0.0,0.0,0.0,0.0,0.0,0.0,0.0,0.0,0.0,0.0,0.0,0.0,0.0,0.0,0.0,0.0,0.0,0.0,0.0,0.0,0.0,0.0,-7.9834,-8.163,-8.1278,-7.8546,-7.5266,-7.1836,0.0,0.0,0.0,0.0,0.0,0.0,0.0,0.0,0.0,0.0,0.0,0.0,0.0,0.0,0.0,0.0,0.0,0.0,0.0,0.0,0.0,0.0,0.0,0.0,0.0,0.0,0.0,0.0,0.0,0.0,0.0,0.0,0.0,0.0,0.0,0.0,0.0,0.0,0.0,0.0,0.0,0.0,0.0,0.0,0.0,0.0,0.0,0.0,0.0,0.0,0.0,0.0,0.0,0.0,0.0,0.0,0.0,0.0,0.0,0.0,0.0,0.0,0.0,0.0,0.0,0.0,0.0,0.0,0.0,0.0,0.0,0.0,0.0,0.0,0.0,0.0,0.0,0.0,0.0,0.0,0.0,0.0,0.0,0.0,0.0,0.0,0.0,0.0,0.0,0.0,0.0,0.0,0.0,0.0,0.0,0.0,0.0,0.0,0.0,0.0,0.0,0.0,0.0,0.0,0.0,0.0,0.0,0.0,0.0,-8.1552,-8.4519,-8.4245,-8.0459,-7.757,-7.3903,0.0,0.0,0.0,0.0,0.0,0.0,0.0,0.0,0.0,0.0,0.0,0.0,0.0,0.0,0.0,0.0,0.0,0.0,0.0,0.0,0.0,0.0,0.0,0.0,0.0,0.0,0.0,0.0,0.0,0.0,0.0,0.0,0.0,0.0,0.0,0.0,0.0,0.0,0.0,0.0,0.0,0.0,0.0,0.0,0.0,0.0,0.0,0.0,0.0,0.0,0.0,0.0,0.0,0.0,0.0,0.0,0.0,0.0,0.0,0.0,0.0,0.0,0.0,0.0,0.0,0.0,0.0,0.0,0.0,0.0,0.0,0.0,0.0,0.0,0.0,0.0,0.0,0.0,0.0,0.0,0.0,0.0,0.0,0.0,0.0,0.0,0.0,0.0,0.0,0.0,0.0,0.0,0.0,0.0,0.0,0.0,0.0,0.0,0.0,0.0,0.0,0.0,0.0,0.0,0.0,0.0,0.0,0.0,-7.878,-8.2254,-8.6353,-8.6783,-8.323,-7.9561,-7.5384,0.0,0.0,0.0,0.0,0.0,0.0,0.0,0.0,0.0,0.0,0.0,0.0,0.0,0.0,0.0,0.0,0.0,0.0,0.0,0.0,0.0,0.0,0.0,0.0,0.0,0.0,0.0,0.0,0.0,0.0,0.0,0.0,0.0,0.0,0.0,0.0,0.0,0.0,0.0,0.0,0.0,0.0,0.0,0.0,0.0,0.0,0.0,0.0,0.0,0.0,0.0,0.0,0.0,0.0,0.0,0.0,0.0,0.0,0.0,0.0,0.0,0.0,0.0,0.0,0.0,0.0,0.0,0.0,0.0,0.0,0.0,0.0,0.0,0.0,0.0,0.0,0.0,0.0,0.0,0.0,0.0,0.0,0.0,0.0,0.0,0.0,0.0,0.0,0.0,0.0,0.0,0.0,0.0,0.0,0.0,0.0,0.0,0.0,0.0,0.0,0.0,0.0,0.0,0.0,0.0,0.0,0.0,0.0,-7.8858,-8.2254,-8.7173,-8.8579,-8.608,-8.1356,-7.6789,0.0,0.0,0.0,0.0,0.0,0.0,0.0,0.0,0.0,0.0,0.0,0.0,0.0,0.0,0.0,0.0,0.0,0.0,0.0,0.0,0.0,0.0,0.0,0.0,0.0,0.0,0.0,0.0,0.0,0.0,0.0,0.0,0.0,0.0,0.0,0.0,0.0,0.0,0.0,0.0,0.0,0.0,0.0,0.0,0.0,0.0,0.0,0.0,0.0,0.0,0.0,0.0,0.0,0.0,0.0,0.0,0.0,0.0,0.0,0.0,0.0,0.0,0.0,0.0,0.0,0.0,0.0,0.0,0.0,0.0,0.0,0.0,0.0,0.0,0.0,0.0,0.0,0.0,0.0,0.0,0.0,0.0,0.0,0.0,0.0,0.0,0.0,0.0,0.0,0.0,0.0,0.0,0.0,0.0,0.0,0.0,0.0,0.0,0.0,0.0,0.0,0.0,0.0,0.0,0.0,0.0,0.0,0.0,-7.9483,-8.2254,-8.6002,-8.7368,-8.6119,-8.3113,-7.9405,0.0,0.0,0.0,0.0,0.0,0.0,0.0,0.0,0.0,0.0,0.0,0.0,0.0,0.0,0.0,0.0,0.0,0.0,0.0,0.0,0.0,0.0,0.0,0.0,0.0,0.0,0.0,0.0,0.0,0.0,0.0,0.0,0.0,0.0,0.0,0.0,0.0,0.0,0.0,0.0,0.0,0.0,0.0,0.0,0.0,0.0,0.0,0.0,-6.5234,0.0,0.0,0.0,0.0,0.0,0.0,0.0,0.0,0.0,0.0,0.0,0.0,0.0,0.0,0.0,0.0,0.0,0.0,0.0,0.0,0.0,0.0,0.0,0.0,0.0,0.0,0.0,0.0,0.0,0.0,0.0,0.0,0.0,0.0,0.0,0.0,0.0,0.0,0.0,0.0,0.0,0.0,0.0,0.0,0.0,0.0,0.0,0.0,0.0,0.0,0.0,0.0,0.0,0.0,0.0,0.0,0.0,0.0,0.0,-8.0888,-8.3465,-8.7251,-8.8618,-8.7329,-8.4831,-8.1044,0.0,0.0,0.0,0.0,0.0,0.0,0.0,0.0,0.0,0.0,0.0,0.0,0.0,0.0,0.0,0.0,0.0,0.0,0.0,0.0,0.0,0.0,0.0,0.0,0.0,0.0,0.0,0.0,0.0,0.0,0.0,0.0,0.0,0.0,0.0,0.0,0.0,0.0,0.0,0.0,0.0,0.0,0.0,0.0,0.0,0.0,0.0,0.0,0.0,0.0,0.0,0.0,0.0,0.0,0.0,0.0,0.0,0.0,0.0,0.0,0.0,0.0,0.0,0.0,0.0,0.0,0.0,0.0,0.0,0.0,0.0,0.0,0.0,0.0,0.0,0.0,0.0,0.0,0.0,0.0,0.0,0.0,0.0,0.0,0.0,0.0,0.0,0.0,0.0,0.0,0.0,0.0,0.0,0.0,0.0,0.0,0.0,0.0,0.0,0.0,0.0,0.0,0.0,0.0,0.0,0.0,0.0,-7.8143,-8.1925,-8.4423,-8.8521,-8.9891,-8.8291,-8.5484,-8.135,-7.5771,0.0,0.0,0.0,0.0,0.0,0.0,0.0,0.0,0.0,0.0,0.0,0.0,0.0,0.0,0.0,0.0,0.0,0.0,0.0,0.0,0.0,0.0,0.0,0.0,0.0,0.0,0.0,0.0,0.0,0.0,0.0,0.0,0.0,0.0,0.0,0.0,0.0,0.0,-6.1949,-6.4916,0.0,0.0,0.0,0.0,0.0,0.0,0.0,0.0,-6.4484,0.0,0.0,0.0,0.0,0.0,0.0,0.0,0.0,0.0,0.0,0.0,0.0,0.0,0.0,0.0,0.0,0.0,0.0,0.0,0.0,0.0,0.0,0.0,0.0,0.0,0.0,0.0,0.0,0.0,0.0,0.0,0.0,0.0,0.0,0.0,0.0,0.0,0.0,0.0,0.0,0.0,0.0,0.0,0.0,0.0,0.0,0.0,0.0,0.0,0.0,0.0,0.0,0.0,0.0,0.0,0.0,-7.211,-7.7155,-8.0653,-8.253,-8.6032,-8.7415,-8.6384,-8.2543,-7.8659,-7.4815,0.0,0.0,0.0,0.0,0.0,0.0,0.0,0.0,0.0,0.0,0.0,0.0,0.0,0.0,0.0,0.0,0.0,0.0,0.0,0.0,0.0,0.0,0.0,0.0,0.0,0.0,0.0,0.0,0.0,0.0,0.0,0.0,0.0,0.0,0.0,0.0,0.0,0.0,0.0,-6.6096,-6.7755,0.0,0.0,0.0,0.0,0.0,0.0,0.0,0.0,-6.262,0.0,0.0,0.0,0.0,0.0,0.0,0.0,0.0,0.0,0.0,0.0,0.0,0.0,0.0,0.0,0.0,0.0,0.0,0.0,0.0,0.0,0.0,0.0,0.0,0.0,0.0,0.0,0.0,0.0,0.0,0.0,0.0,0.0,0.0,0.0,0.0,0.0,0.0,0.0,0.0,0.0,0.0,0.0,0.0,0.0,0.0,0.0,0.0,0.0,0.0,0.0,0.0,0.0,0.0,0.0,-7.3113,-7.809,-8.1485,-8.3159,-8.5696,-8.6,-8.3916,-8.0602,-7.6824,0.0,0.0,0.0,0.0,0.0,0.0,0.0,0.0,0.0,0.0,0.0,0.0,0.0,0.0,0.0,0.0,0.0,0.0,0.0,0.0,0.0,0.0,0.0,0.0,0.0,0.0,0.0,0.0,0.0,0.0,0.0,0.0,0.0,0.0,0.0,0.0,0.0,0.0,0.0,0.0,-6.6443,-6.8588,-6.855,0.0,0.0,0.0,0.0,0.0,0.0,-6.2426,-6.1716,0.0,0.0,0.0,0.0,0.0,0.0,0.0,0.0,0.0,0.0,0.0,0.0,0.0,0.0,0.0,0.0,0.0,0.0,0.0,0.0,0.0,0.0,0.0,0.0,0.0,0.0,0.0,0.0,0.0,0.0,0.0,0.0,0.0,0.0,0.0,0.0,0.0,0.0,0.0,0.0,0.0,0.0,0.0,0.0,0.0,0.0,0.0,0.0,0.0,0.0,0.0,0.0,0.0,0.0,0.0,-7.3379,-7.8513,-8.1844,-8.3397,-8.5232,-8.4777,-8.1687,-7.8784,-7.5117,0.0,0.0,0.0,0.0,0.0,0.0,0.0,0.0,0.0,0.0,0.0,0.0,0.0,0.0,0.0,0.0,0.0,0.0,0.0,0.0,0.0,0.0,0.0,0.0,0.0,0.0,0.0,0.0,0.0,0.0,0.0,0.0,0.0,0.0,0.0,0.0,0.0,0.0,0.0,0.0,0.0,-6.9117,-6.9296,-6.7891,0.0,0.0,0.0,0.0,-6.3676,-6.2756,0.0,0.0,0.0,0.0,0.0,0.0,0.0,0.0,0.0,0.0,0.0,0.0,0.0,0.0,0.0,0.0,0.0,0.0,0.0,0.0,0.0,0.0,0.0,0.0,0.0,0.0,0.0,0.0,0.0,0.0,0.0,0.0,0.0,0.0,0.0,0.0,0.0,0.0,0.0,0.0,0.0,0.0,0.0,0.0,0.0,0.0,0.0,0.0,0.0,0.0,0.0,0.0,0.0,0.0,0.0,0.0,-7.0669,-7.6267,-7.9695,-8.0713,-8.3075,-8.3134,-8.0609,-7.6651,-7.2944,0.0,0.0,0.0,0.0,0.0,0.0,0.0,0.0,0.0,0.0,0.0,0.0,0.0,0.0,0.0,0.0,0.0,0.0,0.0,0.0,0.0,0.0,0.0,0.0,0.0,0.0,0.0,0.0,0.0,0.0,0.0,0.0,0.0,0.0,0.0,0.0,0.0,0.0,0.0,0.0,0.0,-6.9195,-6.995,-6.9111,-6.8189,0.0,0.0,-6.3418,-6.3748,-6.3627,0.0,0.0,0.0,0.0,0.0,0.0,0.0,0.0,0.0,0.0,0.0,0.0,0.0,0.0,0.0,0.0,0.0,0.0,0.0,0.0,0.0,0.0,0.0,0.0,0.0,0.0,0.0,0.0,0.0,0.0,0.0,0.0,0.0,0.0,0.0,0.0,0.0,0.0,0.0,0.0,0.0,0.0,0.0,0.0,0.0,0.0,0.0,0.0,0.0,0.0,0.0,0.0,0.0,0.0,0.0,-6.7706,-7.0706,-7.5504,-7.837,-7.9233,-8.0313,-7.9725,-7.7329,-7.4558,-7.1164,0.0,0.0,0.0,0.0,0.0,0.0,0.0,0.0,0.0,0.0,0.0,0.0,0.0,0.0,0.0,0.0,0.0,0.0,0.0,0.0,0.0,0.0,0.0,0.0,0.0,0.0,0.0,0.0,0.0,0.0,0.0,0.0,0.0,0.0,0.0,0.0,0.0,0.0,0.0,0.0,0.0,0.0,-6.9849,-6.9969,0.0,0.0,0.0,-6.5793,-6.6443,0.0,0.0,0.0,0.0,0.0,0.0,0.0,0.0,0.0,0.0,0.0,0.0,0.0,0.0,0.0,0.0,0.0,0.0,0.0,0.0,0.0,0.0,0.0,0.0,0.0,0.0,0.0,0.0,0.0,0.0,0.0,0.0,0.0,0.0,0.0,0.0,0.0,0.0,0.0,0.0,0.0,0.0,0.0,0.0,0.0,0.0,0.0,0.0,0.0,0.0,0.0,0.0,0.0,0.0,0.0,0.0,0.0,-7.0451,-7.4763,-7.7361,-7.8184,-7.84,-7.7343,-7.495,-7.3265,0.0,0.0,0.0,0.0,0.0,0.0,0.0,0.0,0.0,0.0,0.0,0.0,0.0,0.0,0.0,0.0,0.0,0.0,0.0,0.0,0.0,0.0,0.0,0.0,0.0,0.0,0.0,-5.3249,0.0,0.0,0.0,0.0,0.0,0.0,0.0,0.0,0.0,0.0,0.0,0.0,0.0,0.0,-6.8552,-6.9357,-7.0285,-7.0591,0.0,0.0,-6.7372,-6.8126,-6.7514,-6.6095,0.0,0.0,0.0,0.0,0.0,0.0,0.0,0.0,0.0,0.0,0.0,0.0,0.0,0.0,0.0,0.0,0.0,0.0,0.0,0.0,0.0,0.0,0.0,0.0,0.0,0.0,0.0,0.0,0.0,0.0,0.0,0.0,0.0,0.0,0.0,0.0,0.0,0.0,0.0,0.0,0.0,0.0,0.0,0.0,0.0,0.0,0.0,0.0,0.0,0.0,0.0,0.0,0.0,0.0,-6.535,-6.8693,-7.3556,-7.6476,-7.7361,-7.8092,-7.7328,-7.4882,-7.3215,-7.0355,0.0,0.0,0.0,0.0,0.0,0.0,0.0,0.0,0.0,0.0,0.0,0.0,0.0,0.0,0.0,0.0,0.0,0.0,0.0,0.0,0.0,0.0,0.0,0.0,0.0,0.0,0.0,0.0,0.0,0.0,0.0,0.0,0.0,0.0,0.0,0.0,0.0,0.0,0.0,0.0,0.0,-6.7675,-6.8474,-6.99,-7.0629,0.0,-6.8244,-6.7154,-6.7294,-6.6622,-6.4955,-6.1726,0.0,0.0,0.0,0.0,0.0,0.0,0.0,0.0,0.0,0.0,0.0,0.0,0.0,0.0,0.0,0.0,0.0,0.0,0.0,0.0,0.0,0.0,0.0,0.0,0.0,0.0,0.0,0.0,0.0,0.0,0.0,0.0,0.0,0.0,0.0,0.0,0.0,0.0,0.0,0.0,0.0,0.0,0.0,0.0,0.0,0.0,0.0,0.0,0.0,0.0,0.0,0.0,0.0,-6.4805,-6.7629,-7.2143,-7.463,-7.4976,-7.5245,-7.4952,-7.4043,-7.2839,-7.0311,0.0,0.0,0.0,0.0,0.0,0.0,0.0,0.0,0.0,0.0,0.0,0.0,0.0,0.0,0.0,0.0,0.0,0.0,0.0,0.0,0.0,0.0,0.0,0.0,0.0,0.0,0.0,0.0,-5.4601,-5.4538,-5.449,0.0,0.0,0.0,0.0,0.0,0.0,0.0,0.0,0.0,0.0,-6.691,-6.8244,-7.0296,0.0,0.0,-6.986,-6.9296,-6.8809,-6.7577,-6.5714,-6.2876,-5.971,0.0,0.0,0.0,0.0,0.0,0.0,0.0,0.0,0.0,0.0,0.0,0.0,0.0,0.0,0.0,0.0,0.0,0.0,0.0,0.0,0.0,0.0,0.0,0.0,0.0,0.0,0.0,0.0,0.0,0.0,0.0,0.0,0.0,0.0,0.0,0.0,0.0,0.0,0.0,0.0,0.0,0.0,0.0,0.0,0.0,0.0,0.0,0.0,0.0,0.0,0.0,0.0,-6.3935,-6.6705,-7.0937,-7.3245,-7.35,-7.35,-7.3399,-7.3129,-7.2514,-7.0259,0.0,0.0,0.0,0.0,0.0,0.0,0.0,0.0,0.0,0.0,0.0,0.0,0.0,0.0,0.0,0.0,0.0,0.0,0.0,0.0,0.0,0.0,0.0,0.0,0.0,0.0,0.0,0.0,-5.4875,-5.4395,-5.4111,0.0,0.0,0.0,0.0,0.0,0.0,0.0,0.0,0.0,0.0,-6.6397,-6.7821,-6.9975,-7.1129,-7.0283,-6.9937,-6.9552,-6.9013,-6.7244,-6.5282,-6.3243,0.0,0.0,0.0,0.0,0.0,0.0,0.0,0.0,0.0,0.0,0.0,0.0,0.0,0.0,0.0,0.0,0.0,0.0,0.0,0.0,0.0,0.0,0.0,0.0,0.0,0.0,0.0,-6.219,0.0,0.0,-6.0958,0.0,0.0,0.0,0.0,0.0,0.0,0.0,0.0,0.0,0.0,0.0,0.0,0.0,0.0,0.0,0.0,0.0,0.0,0.0,0.0,0.0,0.0,-6.2512,-6.5897,-7.0052,-7.2591,-7.3399,-7.3476,-7.3053,-7.2245,-7.2168,-7.0208,-6.5984,0.0,0.0,0.0,0.0,0.0,0.0,0.0,0.0,0.0,0.0,0.0,0.0,0.0,0.0,0.0,0.0,0.0,0.0,0.0,0.0,0.0,0.0,0.0,0.0,0.0,0.0,-5.6019,-5.4466,-5.3103,0.0,0.0,0.0,0.0,0.0,0.0,0.0,0.0,0.0,-6.1362,-6.428,-6.6167,-6.7013,-6.8629,-6.9475,-6.8615,-6.7782,-6.7205,-6.7205,-6.5051,-6.3089,0.0,0.0,0.0,0.0,0.0,0.0,0.0,0.0,0.0,0.0,0.0,0.0,0.0,0.0,0.0,0.0,0.0,0.0,0.0,0.0,0.0,0.0,0.0,0.0,0.0,0.0,0.0,-6.6474,-6.5397,0.0,0.0,0.0,0.0,0.0,0.0,0.0,0.0,0.0,0.0,0.0,-6.7128,-6.6821,0.0,0.0,0.0,0.0,0.0,0.0,0.0,0.0,0.0,0.0,0.0,0.0,-6.132,-6.4205,-6.8398,-7.0706,-7.0975,-7.0975,-7.1091,-7.1321,-7.0821,-6.8526,-6.4306,0.0,0.0,0.0,0.0,0.0,0.0,0.0,0.0,0.0,0.0,0.0,0.0,0.0,0.0,0.0,0.0,0.0,0.0,0.0,0.0,0.0,0.0,0.0,0.0,0.0,-5.5777,0.0,0.0,0.0,0.0,0.0,0.0,0.0,0.0,0.0,0.0,0.0,-5.8325,-6.1663,-6.4294,-6.6167,-6.6974,-6.809,-6.8744,0.0,0.0,0.0,0.0,0.0,0.0,0.0,0.0,0.0,0.0,0.0,0.0,0.0,0.0,-5.9524,-5.7872,-5.7361,-5.6358,-5.3819,0.0,0.0,0.0,0.0,0.0,0.0,0.0,0.0,0.0,0.0,0.0,0.0,0.0,0.0,-6.9398,0.0,-6.7398,0.0,0.0,0.0,0.0,0.0,0.0,0.0,0.0,-7.0898,-7.136,-7.0591,-7.0321,-6.9475,0.0,-6.7782,-6.6013,0.0,0.0,0.0,0.0,0.0,0.0,0.0,0.0,-6.105,-6.3397,-6.7513,-6.9552,-6.9283,-6.9513,-6.9821,-7.0014,-6.8936,-6.6782,-6.3397,-5.955,-5.6395,0.0,0.0,0.0,0.0,0.0,0.0,0.0,0.0,0.0,0.0,0.0,0.0,0.0,0.0,0.0,0.0,0.0,0.0,0.0,0.0,0.0,0.0,0.0,-5.5123,0.0,0.0,0.0,0.0,0.0,0.0,0.0,0.0,0.0,-5.5318,-5.7319,-5.9665,-6.2204,-6.4474,-6.609,-6.6628,0.0,0.0,0.0,0.0,0.0,0.0,0.0,-6.2668,-6.2168,-6.0462,-5.9358,-5.9935,-6.0473,-6.1204,-6.232,0.0,0.0,-6.0399,-5.9612,-5.8533,-5.6277,-5.6284,-5.6357,-5.5495,-5.5945,-5.6368,0.0,0.0,0.0,0.0,0.0,0.0,0.0,0.0,-7.1975,-7.2322,0.0,-6.9706,0.0,0.0,0.0,0.0,-6.4782,-6.6474,0.0,0.0,-7.3129,-7.3962,-7.4553,-7.3783,-7.3014,-7.2168,-7.1206,-6.9513,-6.6872,-6.2089,0.0,0.0,0.0,0.0,0.0,0.0,-6.1589,-6.3308,-6.7398,-6.9206,-6.8436,-6.9167,-6.9206,-6.8385,-6.6821,-6.5205,-6.3385,-6.0242,-5.7627,-5.5857,-5.3433,0.0,0.0,0.0,0.0,0.0,0.0,0.0,0.0,0.0,0.0,0.0,0.0,0.0,0.0,0.0,0.0,0.0,0.0,0.0,0.0,-5.351,0.0,0.0,0.0,0.0,0.0,0.0,0.0,0.0,0.0,0.0,-5.6973,-5.855,-6.0512,-6.3012,0.0,0.0,0.0,0.0,-6.6756,-6.596,-6.5818,-6.5753,-6.5569,-6.3616,-6.2631,-6.4129,0.0,0.0,-6.3051,-6.3269,-6.3231,-6.3308,-6.3205,-6.3269,-6.3166,-6.1793,-6.0231,-5.8558,-5.82,-5.7973,-5.7184,-5.7606,-5.8143,-7.9246,0.0,0.0,0.0,0.0,-7.4437,-7.4745,-7.4553,-7.4784,-7.4938,-7.4784,-7.2899,0.0,0.0,0.0,0.0,0.0,0.0,-7.0667,-7.2283,-7.4322,-7.5091,-7.4668,-7.386,-7.3053,-7.2168,-7.1321,-6.959,-6.709,-6.5051,-6.2127,-5.8396,0.0,0.0,0.0,0.0,-6.0704,-6.2551,-6.6013,-6.7744,-6.7475,-6.7705,-6.7705,-6.7475,-6.7013,-6.6244,-6.5166,-6.2474,-6.0204,-5.8473,-5.5972,0.0,0.0,0.0,0.0,0.0,0.0,0.0,0.0,0.0,0.0,0.0,0.0,0.0,0.0,0.0,0.0,0.0,0.0,0.0,-5.4511,-5.4549,-5.4395,0.0,0.0,0.0,0.0,0.0,0.0,0.0,0.0,0.0,-5.8685,-6.0258,-6.2089,0.0,0.0,-6.5897,-6.5897,-6.609,-6.6141,-6.5845,-6.558,0.0,-6.468,-6.3949,-6.3441,-6.3499,-6.2977,-6.2935,-6.4051,-6.3705,-6.3308,-6.3269,-6.2858,-6.2435,-6.2397,-6.2101,-6.1104,-5.9557,-5.9533,-5.9662,-5.8872,-5.9268,-5.9511,-8.2631,-8.0208,-7.8669,-7.7515,-7.6861,-7.8015,-7.8515,-7.8515,-7.8515,-7.8669,-7.8823,-7.6515,-7.4245,-7.2052,-6.9552,0.0,0.0,0.0,-7.1552,-7.2783,-7.463,-7.5399,-7.5168,-7.4361,-7.3553,-7.2668,-7.1475,-6.9937,-6.809,-6.6936,-6.4936,-6.2012,0.0,0.0,-5.8523,-5.9858,-6.1204,-6.2627,-6.5551,-6.6936,-6.6628,-6.6628,-6.6641,-6.6628,-6.6269,-6.5667,-6.4821,-6.2682,-6.0875,-5.9515,-5.7055,-5.4836,0.0,0.0,0.0,0.0,0.0,0.0,0.0,0.0,0.0,0.0,0.0,-4.8317,-4.8856,0.0,0.0,0.0,-5.151,-5.351,-5.5511,-5.528,0.0,0.0,0.0,0.0,0.0,0.0,0.0,-5.7088,-5.8858,-6.0142,-6.039,-6.1275,-6.2375,-6.3809,-6.5051,-6.5781,-6.5781,0.0,-6.5728,-6.559,-6.5352,-6.5038,-6.4565,-6.4146,-6.3741,-6.319,-6.3181,-6.3361,-6.386,-6.3553,-6.313,-6.2784,-6.2298,-6.1825,-6.1518,-6.1198,-6.0763,-6.0034,-6.0303,-6.0303,-5.9409,-5.9651,-5.9612,-8.4978,-8.4786,-8.2477,-8.0977,-8.0246,-8.1747,-8.2401,-8.2401,-8.2285,-8.2747,-8.3263,-8.0054,-7.763,-7.5707,-7.0898,0.0,-7.0052,-7.086,-7.2091,-7.363,-7.4437,-7.5168,-7.5822,-7.5014,-7.4168,-7.336,-7.1706,-7.0475,-6.9629,-6.8013,-6.6782,-6.5897,-6.1935,-6.0281,-6.1012,-6.1781,-6.2551,-6.3308,-6.5667,-6.6513,-6.5705,-6.5705,-6.5705,-6.5705,-6.4834,-6.4027,-6.3194,-6.1569,-6.0329,-5.9547,-5.7167,-5.5473,-5.4692,0.0,0.0,0.0,0.0,0.0,0.0,0.0,0.0,0.0,0.0,0.0,0.0,0.0,0.0,-4.8509,-5.0692,0.0,-5.5549,-5.5829,0.0,0.0,0.0,-5.5395,-5.6923,-5.7154,-5.7769,-5.9308,0.0,0.0,-6.1774,-6.1642,-6.1812,-6.2804,-6.435,-6.5475,-6.5513,-6.5461,-6.5312,-6.5045,-6.4894,-6.474,-6.4413,-6.3968,-6.3442,-6.304,-6.2998,-6.287,-6.287,-6.2755,-6.25,-6.1822,-6.1565,-6.1166,-6.0425,-5.962,-5.9251,-6.006,-6.0278,-6.006,-5.9188,-5.8994,-5.8741,-8.5824,-8.5747,-8.517,-8.4055,-8.2747,-8.3131,-8.3285,-8.3247,-8.2593,-8.2401,-8.2439,-8.04,-7.8207,-7.5822,-7.2706,-7.1783,-7.2629,-7.3437,-7.4014,-7.4462,-7.5284,-7.5438,-7.4976,-7.4168,-7.3322,-7.2476,-7.1437,-7.0514,-6.9667,-6.8629,-6.7667,-6.6744,-6.4512,-6.3166,-6.2743,-6.2935,-6.3128,-6.3308,-6.4551,-6.4782,-6.3974,-6.3935,-6.3897,-6.3935,-6.3642,-6.3309,-6.2877,-6.1986,-6.1297,-6.0964,-5.8706,-5.7128,-5.6423,-5.4192,0.0,0.0,0.0,0.0,0.0,0.0,0.0,0.0,0.0,-4.8663,-4.9971,0.0,-5.0625,0.0,-5.3126,-5.4664,-5.6522,-5.6676,0.0,0.0,-5.7511,-5.755,-5.7973,-5.855,-5.9027,-5.9365,-6.0172,-6.0712,-6.0613,-6.1033,-6.137,-6.1533,-6.2933,-6.4237,-6.479,-6.4372,-6.3959,-6.3786,-6.3121,-6.2541,-6.2653,-6.2518,-6.2466,-6.2509,-6.197,-6.1498,-6.1498,-6.0988,-6.0494,-6.0304,-5.9695,-5.9209,-5.8957,-5.8334,-5.7967,-5.8125,-5.8367,-5.8462,-5.823,-5.8192,-5.7925,-8.5975,-8.5975,-8.5975,-8.5437,-8.4592,-8.4676,-8.4516,-8.4093,-8.3247,-8.267,-8.217,-8.0131,-7.8438,-7.6976,-7.4861,-7.4168,-7.463,-7.5091,-7.5284,-7.5284,-7.5361,-7.5168,-7.4668,-7.3476,-7.2668,-7.2168,-7.1321,-7.0475,-6.9706,-6.8821,-6.7936,-6.709,-6.582,-6.4936,-6.4436,-6.3705,-6.3295,-6.3271,-6.3707,-6.3694,-6.3233,-6.3233,-6.3041,-6.2695,-6.2195,-6.1639,-6.1062,-6.0232,-5.9774,-5.9727,-5.8205,-5.7034,-5.6345,-5.4282,-5.2169,0.0,0.0,0.0,0.0,0.0,0.0,0.0,0.0,0.0,0.0,0.0,-5.2356,-5.3664,-5.4549,-5.5588,-5.6868,-5.7676,-5.828,-5.8781,-5.9165,-5.9435,-5.9435,-5.9819,-6.0027,-6.0006,-6.0303,-6.0428,-6.0188,-6.0269,-6.0454,-6.0714,-6.1413,-6.2297,-6.3252,-6.3116,-6.2854,-6.271,-6.209,-6.1655,-6.175,-6.1507,-6.1391,-6.153,-6.0884,-6.0223,-5.9862,-5.9446,-5.9013,-5.8635,-5.8164,-5.7775,-5.7691,-5.7116,-5.6668,-5.6639,-5.6535,-5.6673,-5.7197,-5.7313,-5.7084,-8.5666,-8.5666,-8.5551,-8.5475,-8.5493,-8.558,-8.5301,-8.4791,-8.383,-8.2907,-8.1946,-7.9561,-7.8485,-7.8331,-7.6716,-7.5947,-7.5947,-7.5947,-7.5908,-7.5755,-7.5024,-7.4577,-7.4308,-7.286,-7.2129,-7.2014,-7.1168,-7.0398,-6.9706,-6.8706,-6.7859,-6.7077,-6.6269,-6.5846,-6.5641,-6.4103,-6.3181,-6.2989,-6.2809,-6.2653,-6.2511,-6.2511,-6.2128,-6.1324,-6.038,-5.9473,-5.8494,-5.7749,-5.7339,-5.7323,-5.6749,-5.6088,-5.5439,-5.3843,-5.212,0.0,-4.9554,0.0,0.0,0.0,0.0,0.0,0.0,0.0,0.0,-5.299,-5.3797,-5.4566,-5.5374,-5.6181,-5.7077,-5.8527,-5.9527,-5.9642,-6.0334,-6.0757,-6.0757,-6.0757,-6.0734,-6.0648,-6.0428,-6.0208,-6.0022,-5.952,-5.9497,-6.0019,-5.9987,-6.0306,-6.1356,-6.1694,-6.1695,-6.158,-6.1369,-6.1008,-6.1028,-6.0638,-6.0266,-6.0264,-5.9718,-5.8965,-5.8174,-5.8061,-5.7815,-5.7212,-5.688,-5.6697,-5.6553,-5.5915,-5.5425,-5.5382,-5.5011,-5.5048,-5.6054,-5.6368,-5.6114,-8.4914,-8.4838,-8.4138,-8.3834,-8.3796,-8.3215,-8.3599,-8.4527,-8.3048,-8.1879,-8.0958,-7.9155,-7.8349,-7.8196,-7.6508,-7.574,-7.574,-7.5779,-7.5395,-7.4781,-7.4666,-7.3889,-7.2621,-7.2294,-7.1822,-7.1129,-7.0321,-6.986,-6.9667,-6.809,-6.7218,-6.7011,-6.6204,-6.5448,-6.4665,0.0,0.0,0.0,-6.1134,-6.0294,-5.9414,-5.9376,-5.8958,-5.8213,-5.7916,0.0,-5.6321,-5.6773,-5.6736,-5.604,-5.5945,0.0,0.0,0.0,0.0,0.0,0.0,0.0,0.0,0.0,0.0,0.0,-5.3074,-5.3898,-5.3936,-5.4622,-5.5136,-5.5328,-5.6095,-5.6939,-5.7822,-5.8769,-5.9613,-6.0316,-6.0546,-6.0623,-6.0661,-6.0623,-6.0546,-6.0318,-6.0203,-6.0007,-5.9592,-5.929,-5.9139,-5.9204,-5.9062,-5.9037,-5.9329,-5.9967,-6.0298,-6.0199,-5.9736,-5.9285,-5.9227,-5.9119,-5.8808,-5.8286,-5.8025,-5.7598,-5.6871,-5.6722,-5.6666,-5.6424,-5.5882,-5.534,-5.5147,-5.4574,-5.4187,-5.4075,-5.4091,-5.4334,-5.5057,-5.5198,-5.4971,-8.4297,-8.3867,-8.345,-8.3034,0.0,-8.1809,-8.1935,-8.2634,-8.1859,-8.0793,-7.9534,-7.8313,-7.755,-7.7092,-7.5795,-7.5205,-7.5185,-7.4804,-7.4437,-7.4142,-7.3434,-7.2724,-7.1972,-7.1703,-7.1129,-7.0321,-6.9898,-6.9244,-6.8398,-6.7513,-6.6872,-6.6408,-6.543,-6.4695,-6.4188,-6.2742,-6.1614,-6.0804,-6.022,-5.9457,-5.8462,-5.8408,-5.7802,-5.6608,-5.6479,0.0,0.0,0.0,0.0,0.0,0.0,0.0,0.0,0.0,0.0,-5.095,-5.061,-5.0379,-5.0125,-5.1035,-5.2032,-5.302,-5.4494,-5.5339,-5.5376,-5.5962,-5.6338,-5.6376,-5.7139,-5.7839,-5.8258,-5.9059,-5.9722,-6.0141,-6.0179,-6.0217,-6.0217,-6.0179,-6.0159,-5.9953,-5.9793,-5.9558,-5.929,-5.9063,-5.8885,-5.8801,-5.8777,-5.8677,-5.8735,-5.9069,-5.9218,-5.8809,-5.8401,-5.7955,-5.7621,-5.7509,-5.7435,-5.6989,-5.6915,-5.658,-5.58,-5.5652,-5.554,-5.5169,-5.4684,-5.4326,-5.4132,-5.3839,-5.3528,-5.314,-5.3144,-5.3161,-5.3249,-5.3596,-5.3745,-8.3715,-8.2887,-8.2737,-8.2234,-8.1406,-8.0653,-8.0276,-8.0301,0.0,0.0,0.0,-7.7505,-7.671,-7.5897,-7.5043,-7.4644,-7.4588,-7.3793,-7.3438,-7.3422,-7.2154,-7.1576,-7.1567,-7.1094,-7.0434,-6.9665,-6.9511,-6.8627,-6.7089,-6.6897,-6.6473,-6.5674,-6.4609,-6.3848,-6.3366,-6.1591,-6.0409,-5.9928,-5.9694,-5.907,-5.8006,-5.7968,-5.714,-5.5484,-5.5348,-5.485,-5.3958,-5.4016,-5.3998,-5.392,-5.4121,-5.4225,-5.4225,-5.3586,-5.3118,-5.293,-5.2422,-5.2235,-5.2603,-5.2851,-5.3518,-5.4727,-5.5926,-5.6572,-5.6559,-5.6937,-5.7175,-5.7175,-5.7948,-5.8457,-5.8494,-5.9214,-5.9723,-5.976,-5.9723,-5.976,-5.9723,-5.976,-5.9744,-5.9609,-5.9361,-5.914,-5.9064,-5.8845,-5.8677,-5.8698,-5.8698,-5.8624,-5.8549,-5.8475,-5.8215,-5.7546,-5.7323,-5.7063,-5.6543,-5.6395,-5.6246,-5.6134,-5.606,-5.5763,-5.5057,-5.4797,-5.4518,-5.4016,-5.3716,-5.358,-5.3333,-5.3202,-5.2961,-5.2223,-5.2097,-5.1934,-5.138,-5.1819,-5.2194,-8.2863,-8.2081,-8.1336,-8.0591,-7.9772,-7.899,-7.8654,-7.8698,-7.9338,-7.9093,-7.8172,-7.7319,-7.651,-7.568,-7.4849,-7.4412,-7.4396,-7.3603,-7.291,-7.2314,-7.1654,-7.1052,-7.0544,-7.067,-7.0277,-6.9433,-6.8743,-6.7913,-6.694,-6.6173,-6.5614,-6.5215,-6.4397,-6.3009,-6.1303,-6.0112,-5.9402,-5.9253,-5.9215,-5.8353,-5.6607,-5.657,-5.5788,-5.4187,-5.4093,-5.3647,-5.2884,-5.3516,-5.3535,-5.2884,-5.3498,-5.3591,-5.292,-5.2809,-5.2381,-5.1729,-5.17,-5.2073,-5.2967,-5.3789,-5.4934,-5.6564,-5.7356,-5.7589,-5.7122,-5.704,-5.705,-5.705,-5.788,-5.835,-5.8387,-5.905,-5.9502,-5.9558,-5.952,-5.952,-5.954,-5.952,-5.9488,-5.9364,-5.9215,-5.9045,-5.8942,-5.8781,-5.8624,-5.8661,-5.8475,-5.8401,-5.7769,-5.7658,-5.7323,-5.6692,-5.6469,-5.6432,-5.6172,-5.6283,-5.5912,-5.528,-5.5206,-5.4946,-5.4203,-5.4054,-5.3978,-5.3753,-5.3714,-5.3339,-5.2589,-5.229,-5.1992,-5.127,-5.1049,-5.0812,-5.0078,-5.0118,-5.0213,-8.136,-8.0617,-8.0208,-7.9576,-7.8796,-7.8425,-7.8304,-7.8294,-7.8185,-7.7666,-7.6905,-7.6468,-7.5608,-7.4472,-7.406,-7.3848,-7.3774,-7.2501,-7.1868,-7.1598,-7.0595,-7.0022,-6.991,-7.0071,-6.9489,-6.8231,-6.785,-6.6973,-6.5769,-6.4854,-6.4378,-6.4137,-6.2755,-6.1205,-5.9719,-5.9191,-5.8739,-5.8251,-5.8273,-5.7635,-5.632,-5.5837,-5.502,-5.3831,-5.3794,-5.3645,-5.3274,-5.3608,-5.3645,-5.3274,-5.3608,-5.3645,-5.3311,-5.3237,-5.3088,-5.2754,-5.3218,-5.3792,-5.4306,-5.5279,-5.6359,-5.7459,-5.7826,-5.8016,-5.8128,-5.7997,-5.794,-5.794,-5.8296,-5.8521,-5.8521,-5.8857,-5.9045,-5.9082,-5.9045,-5.9045,-5.9082,-5.9082,-5.9043,-5.8965,-5.8905,-5.8845,-5.8818,-5.8347,-5.8066,-5.8029,-5.7732,-5.71,-5.632,-5.6172,-5.606,-5.5689,-5.5577,-5.5391,-5.5057,-5.4946,-5.476,-5.4388,-5.4351,-5.4203,-5.3831,-5.3794,-5.3737,-5.3733,-5.3654,-5.3205,-5.2254,-5.2063,-5.1524,-5.0438,-5.0141,-4.9811,-4.915,-4.8893,-4.9009,-8.0208,-7.9502,-7.9502,-7.9019,-7.8341,-7.8304,-7.8165,-7.7969,-7.7375,-7.6493,-7.5601,-7.5527,-7.471,-7.3473,-7.3372,-7.3324,-7.2952,-7.1589,-7.0971,-7.084,-6.9687,-6.9214,-6.944,-6.9566,-6.8793,-6.7316,-6.7165,-6.6294,-6.4721,-6.3868,-6.3192,-6.2615,-6.1111,-5.9766,-5.8698,-5.8677,-5.8289,-5.7546,-5.7404,-5.6883,-5.6023,-5.5354,-5.4648,-5.3868,-5.3794,-5.3812,-5.3793,-5.3775,-5.3812,-5.3793,-5.3775,-5.3794,-5.3794,-5.3794,-5.3905,-5.4091,-5.4763,-5.5379,-5.5865,-5.6646,-5.7413,-5.811,-5.809,-5.833,-5.8767,-5.8777,-5.8677,-5.8677,-5.8681,-5.8661,-5.8681,-5.8698,-5.8677,-5.8677,-5.8677,-5.8719,-5.8698,-5.8677,-5.8677,-5.8677,-5.8677,-5.8698,-5.8586,-5.8029,-5.7472,-5.7175,-5.6506,-5.5763,-5.5131,-5.4871,-5.474,-5.4723,-5.4723,-5.4574,-5.3905,-5.3868,-5.3868,-5.3794,-5.3831,-5.3868,-5.3794,-5.3794,-5.3737,-5.3657,-5.3356,-5.2776,-5.1992,-5.1544,-5.0822,-4.9591,-4.9317,-4.9077,-4.8563,-4.8379,-4.84,-8.0208,-7.9539,-7.9465,-7.9019,-7.8313,-7.8304,-7.7895,-7.7236,-7.7115,-7.6196,-7.4784,-7.471,-7.4227,-7.3473,-7.3398,-7.299,-7.2283,-7.1329,-7.0562,-7.0025,-6.9349,-6.9078,-6.9209,-6.9419,-6.8616,-6.7162,-6.6973,-6.6048,-6.4426,-6.3596,-6.2391,-6.0847,-6.0292,-5.9661,-5.8809,-5.8698,-5.8289,-5.7509,-5.6766,-5.5986,-5.5169,-5.5038,-5.4611,-5.3831,-5.3794,-5.3737,-5.3733,-5.3774,-5.3774,-5.3696,-5.3774,-5.3794,-5.3794,-5.3794,-5.4128,-5.4797,-5.4983,-5.5671,-5.7104,-5.7384,-5.7833,-5.8537,-5.8611,-5.8628,-5.8719,-5.8698,-5.8677,-5.8677,-5.8677,-5.8677,-5.8677,-5.8677,-5.8677,-5.8677,-5.8677,-5.8677,-5.8677,-5.8677,-5.8677,-5.8677,-5.8677,-5.8677,-5.8624,-5.7955,-5.7138,-5.6357,-5.5614,-5.5094,-5.4871,-5.4426,-5.4054,-5.398,-5.3943,-5.3943,-5.3794,-5.3794,-5.3794,-5.3794,-5.3794,-5.3794,-5.3794,-5.3775,-5.3737,-5.3524,-5.291,-5.2203,-5.1233,-5.0381,-4.961,-4.8967,-4.86,-4.8453,-4.8343,-4.8306,-4.8344,-7.9094,-7.8796,-7.8759,-7.8573,-7.8239,-7.7821,-7.7385,-7.704,-7.6074,-7.5193,-7.4561,-7.4078,-7.3707,-7.3372,-7.2915,-7.2506,-7.2135,-7.0809,-7.0029,-6.9731,-6.9033,-6.873,-6.874,-6.8346,-6.7591,-6.6447,-6.5923,-6.4876,-6.3289,-6.1943,-6.0648,-5.9519,-5.9285,-5.9074,-5.8698,-5.8215,-5.7583,-5.6803,-5.5986,-5.5131,-5.4388,-5.4277,-5.4128,-5.3849,-5.3754,-5.3716,-5.3714,-5.3753,-5.3716,-5.3714,-5.3774,-5.3794,-5.3794,-5.3794,-5.3923,-5.4314,-5.5243,-5.6506,-5.8083,-5.8215,-5.8364,-5.8698,-5.8677,-5.8677,-5.8677,-5.8677,-5.8677,-5.8677,-5.8677,-5.8677,-5.8677,-5.8677,-5.8677,-5.8677,-5.8677,-5.8677,-5.8677,-5.8677,-5.8677,-5.8677,-5.8677,-5.8677,-5.8512,-5.7583,-5.632,-5.5169,-5.45,-5.4351,-5.4277,-5.4017,-5.3868,-5.3794,-5.3794,-5.3794,-5.3794,-5.3794,-5.3794,-5.3794,-5.3794,-5.3794,-5.3794,-5.3794,-5.3717,-5.3521,-5.2762,-5.1925,-5.1026,-5.0161,-4.9353,-4.8636,-4.8306,-4.8306,-4.8306,-4.8306,-4.8325,-7.8304,-7.8304,-7.8304,-7.8165,-7.7905,-7.7375,-7.6855,-7.627,-7.5108,-7.4487,-7.419,-7.3435,-7.3038,-7.299,-7.2469,-7.1961,-7.1366,-7.0252,-6.9558,-6.9298,-6.8766,-6.8394,-6.8134,-6.7577,-6.676,-6.5756,-6.4865,-6.3527,-6.1781,-6.0534,-5.9457,-5.8809,-5.8677,-5.8677,-5.8624,-5.7918,-5.71,-5.6283,-5.5429,-5.4611,-5.3943,-5.3794,-5.3775,-5.3774,-5.3753,-5.3674,-5.3578,-5.3637,-5.3694,-5.3674,-5.3754,-5.3794,-5.3794,-5.3794,-5.3886,-5.424,-5.5466,-5.6915,-5.8289,-5.8364,-5.8475,-5.8661,-5.8677,-5.8677,-5.8677,-5.8677,-5.8677,-5.8677,-5.8677,-5.8677,-5.8677,-5.8677,-5.8677,-5.8677,-5.8677,-5.8677,-5.8677,-5.8677,-5.8677,-5.8677,-5.8677,-5.8586,-5.8252,-5.7175,-5.5837,-5.4611,-5.4017,-5.3794,-5.3794,-5.3831,-5.3794,-5.3794,-5.3794,-5.3794,-5.3794,-5.3794,-5.3794,-5.3794,-5.3794,-5.3794,-5.3794,-5.3794,-5.3495,-5.3097,-5.2466,-5.1612,-5.0495,-4.9721,-4.915,-4.86,-4.8306,-4.8306,-4.8306,-4.8306,-4.8306,-7.8304,-7.8267,-7.8276,-7.7793,-7.7125,-7.704,-7.6186,-7.4885,-7.4598,-7.4142,-7.3398,-7.2618,-7.2246,-7.2209,-7.2035,-7.1329,-6.9967,-6.9707,-6.9224,-6.8593,-6.8481,-6.8073,-6.7391,-6.7256,-6.6402,-6.4953,-6.4062,-6.245,-6.02,-5.994,-5.9515,-5.8735,-5.8677,-5.8677,-5.8549,-5.7806,-5.71,-5.6209,-5.5354,-5.4611,-5.3905,-5.3794,-5.3774,-5.3714,-5.3714,-5.3578,-5.338,-5.3558,-5.3654,-5.3501,-5.3678,-5.3794,-5.3794,-5.3794,-5.4128,-5.4889,-5.58,-5.6655,-5.7472,-5.7695,-5.7992,-5.8549,-5.8677,-5.8677,-5.8677,-5.8677,-5.8677,-5.8677,-5.8677,-5.8677,-5.8677,-5.8677,-5.8677,-5.8677,-5.8677,-5.8677,-5.8677,-5.8677,-5.8677,-5.8677,-5.8677,-5.8401,-5.7695,-5.684,-5.5949,-5.502,-5.4277,-5.3794,-5.3794,-5.3794,-5.3794,-5.3794,-5.3794,-5.3794,-5.3794,-5.3794,-5.3794,-5.3794,-5.3794,-5.3794,-5.3794,-5.3701,-5.3214,-5.2599,-5.1858,-5.0985,-4.9909,-4.915,-4.8673,-4.8306,-4.8306,-4.8306,-4.8306,-4.8306,-4.8306,-7.6679,-7.6679,-7.6706,-7.653,-7.6233,-7.5713,-7.5118,-7.4524,-7.351,-7.2915,-7.2544,-7.1738,-7.1106,-7.0623,-7.0586,-7.0289,-6.967,-6.915,-6.8506,-6.78,-6.7763,-6.7317,-6.6537,-6.6017,-6.5459,-6.4693,-6.3453,-6.1819,-6.0014,-5.9404,-5.8995,-5.8772,-5.8677,-5.8475,-5.7881,-5.7138,-5.632,-5.5466,-5.4648,-5.4091,-5.3868,-5.3794,-5.3754,-5.3561,-5.3578,-5.3461,-5.3281,-5.3461,-5.3558,-5.3481,-5.3678,-5.3794,-5.3794,-5.3794,-5.4166,-5.4983,-5.5837,-5.6655,-5.7435,-5.7992,-5.8364,-5.864,-5.8677,-5.8677,-5.8677,-5.8677,-5.8677,-5.8677,-5.8677,-5.8677,-5.8677,-5.8677,-5.8677,-5.8677,-5.8677,-5.8677,-5.8677,-5.8677,-5.8677,-5.8677,-5.8698,-5.8401,-5.7658,-5.6803,-5.5986,-5.5131,-5.4314,-5.3905,-5.3794,-5.3794,-5.3794,-5.3794,-5.3794,-5.3794,-5.3794,-5.3794,-5.3794,-5.3794,-5.3794,-5.3794,-5.3757,-5.372,-5.3309,-5.2266,-5.1395,-5.0616,-4.9632,-4.8893,-4.8416,-4.8306,-4.8306,-4.8306,-4.8306,-4.8306,-4.8306,-7.5787,-7.5787,-7.5787,-7.5639,-7.5341,-7.4821,-7.4301,-7.377,-7.2655,-7.2035,-7.1663,-7.0858,-7.019,-6.9707,-6.941,-6.9113,-6.889,-6.8333,-6.7837,-6.7317,-6.7057,-6.6462,-6.5719,-6.5088,-6.4508,-6.3839,-6.2376,-6.0853,-5.9627,-5.8937,-5.8677,-5.8677,-5.8677,-5.8289,-5.7509,-5.6692,-5.5874,-5.502,-5.4203,-5.3794,-5.3794,-5.3794,-5.3698,-5.3521,-5.3481,-5.342,-5.3277,-5.34,-5.3481,-5.3521,-5.3678,-5.3794,-5.3794,-5.3794,-5.4054,-5.4648,-5.5391,-5.6246,-5.7063,-5.7881,-5.8438,-5.8661,-5.8677,-5.8677,-5.8677,-5.8677,-5.8677,-5.8677,-5.8677,-5.8677,-5.8677,-5.8677,-5.8677,-5.8677,-5.8677,-5.8677,-5.8677,-5.8677,-5.8677,-5.8677,-5.8677,-5.8438,-5.7955,-5.7212,-5.6395,-5.5503,-5.4723,-5.4166,-5.3868,-5.3794,-5.3794,-5.3794,-5.3794,-5.3794,-5.3794,-5.3794,-5.3794,-5.3794,-5.3794,-5.3757,-5.3608,-5.3571,-5.3049,-5.197,-5.1042,-5.0264,-4.9487,-4.8766,-4.8453,-4.8343,-4.8306,-4.8306,-4.8306,-4.8306,-4.8306,-7.5713,-7.5639,-7.575,-7.523,-7.4635,-7.4487,-7.3658,-7.2506,-7.2209,-7.1626,-7.0858,-7.0041,-6.9633,-6.9484,-6.889,-6.8171,-6.7614,-6.7391,-6.7205,-6.6996,-6.6388,-6.5645,-6.4828,-6.4693,-6.3862,-6.2487,-6.0778,-5.9568,-5.8846,-5.8735,-5.8677,-5.8677,-5.8677,-5.8252,-5.7472,-5.6655,-5.5837,-5.4946,-5.4166,-5.3794,-5.3794,-5.3794,-5.3698,-5.3521,-5.3481,-5.3416,-5.3188,-5.3396,-5.3481,-5.3501,-5.3678,-5.3794,-5.3794,-5.3794,-5.3831,-5.3998,-5.4648,-5.5466,-5.632,-5.7175,-5.8103,-5.8549,-5.8677,-5.8677,-5.8677,-5.8677,-5.8677,-5.8677,-5.8677,-5.8677,-5.8677,-5.8677,-5.8677,-5.8677,-5.8677,-5.8677,-5.8677,-5.8677,-5.8677,-5.8677,-5.8677,-5.8677,-5.8512,-5.7881,-5.7026,-5.6209,-5.5391,-5.4574,-5.3943,-5.3794,-5.3794,-5.3794,-5.3794,-5.3794,-5.3794,-5.3794,-5.3794,-5.3794,-5.3794,-5.3757,-5.3423,-5.3218,-5.2697,-5.1711,-5.0653,-4.9876,-4.9375,-4.871,-4.8416,-4.8306,-4.8306,-4.8306,-4.8306,-4.8306,-4.8306,-7.4153,-7.4179,-7.4115,-7.403,-7.3807,-7.377,-7.3175,-7.2172,-7.1589,-7.0846,-7.0004,-6.9249,-6.8853,-6.8816,-6.8556,-6.8036,-6.7317,-6.6736,-6.6142,-6.5622,-6.5325,-6.4768,-6.4159,-6.3951,-6.3096,-6.1633,-6.0444,-5.9457,-5.8846,-5.8677,-5.8677,-5.8677,-5.8677,-5.7992,-5.6803,-5.6395,-5.5652,-5.4314,-5.3943,-5.3794,-5.3794,-5.3794,-5.3698,-5.3521,-5.3481,-5.3416,-5.3246,-5.3396,-5.3481,-5.3481,-5.3678,-5.3794,-5.3794,-5.3794,-5.3794,-5.3943,-5.5131,-5.5986,-5.6395,-5.7546,-5.8401,-5.864,-5.8677,-5.8677,-5.8677,-5.8677,-5.8677,-5.8677,-5.8677,-5.8677,-5.8677,-5.8677,-5.8677,-5.8677,-5.8677,-5.8677,-5.8677,-5.8677,-5.8677,-5.8677,-5.8677,-5.8677,-5.8566,-5.7971,-5.7249,-5.6395,-5.5558,-5.474,-5.4054,-5.3794,-5.3794,-5.3794,-5.3794,-5.3794,-5.3794,-5.3794,-5.3794,-5.3794,-5.3794,-5.3608,-5.3274,-5.2958,-5.2344,-5.1507,-5.045,-4.969,-4.9189,-4.8746,-4.8453,-4.8306,-4.8306,-4.8306,-4.8306,-4.8306,-4.8306,-7.3372,-7.3372,-7.3372,-7.3372,-7.3372,-7.3372,-7.2741,-7.1738,-7.1143,-7.0264,-6.9298,-6.8766,-6.8518,-6.8518,-6.8518,-6.785,-6.6871,-6.6314,-6.5459,-6.447,-6.4359,-6.4062,-6.3527,-6.2933,-6.2264,-6.1187,-5.9998,-5.9197,-5.8735,-5.8677,-5.8677,-5.8677,-5.8677,-5.8103,-5.6803,-5.6395,-5.5577,-5.4388,-5.398,-5.3794,-5.3794,-5.3794,-5.3754,-5.3598,-5.3501,-5.34,-5.3272,-5.3359,-5.344,-5.3521,-5.3678,-5.3794,-5.3794,-5.3794,-5.3794,-5.4128,-5.528,-5.632,-5.6469,-5.7769,-5.8677,-5.8677,-5.8677,-5.8677,-5.8677,-5.8677,-5.8677,-5.8677,-5.8677,-5.8677,-5.8677,-5.8677,-5.8677,-5.8677,-5.8677,-5.8677,-5.8677,-5.8677,-5.8677,-5.8677,-5.8677,-5.8677,-5.8528,-5.8306,-5.7472,-5.6506,-5.5837,-5.4963,-5.424,-5.3794,-5.3794,-5.3794,-5.3794,-5.3794,-5.3794,-5.3794,-5.3794,-5.3794,-5.3794,-5.3497,-5.3125,-5.2958,-5.2549,-5.1488,-5.0411,-4.9799,-4.9297,-4.871,-4.8306,-4.8306,-4.8306,-4.8306,-4.8306,-4.8306,-4.8306,-7.3372,-7.3372,-7.3372,-7.3372,-7.3398,-7.3298,-7.2406,-7.1081,-7.0784,-6.993,-6.8741,-6.8518,-6.8518,-6.8518,-6.8518,-6.7688,-6.6351,-6.6128,-6.5236,-6.4085,-6.3713,-6.3639,-6.3453,-6.219,-6.141,-6.1001,-5.9589,-5.8772,-5.8677,-5.8677,-5.8677,-5.8677,-5.864,-5.8326,-5.7435,-5.6729,-5.5949,-5.4926,-5.424,-5.3943,-5.3831,-5.3794,-5.3774,-5.3694,-5.3578,-5.344,-5.3318,-5.3318,-5.338,-5.3501,-5.3698,-5.3794,-5.3794,-5.3794,-5.3794,-5.4017,-5.5429,-5.6209,-5.6655,-5.7843,-5.8677,-5.8677,-5.8677,-5.8677,-5.8677,-5.8677,-5.8677,-5.8677,-5.8677,-5.8677,-5.8677,-5.8677,-5.8677,-5.8677,-5.8677,-5.8677,-5.8677,-5.8677,-5.8677,-5.8677,-5.8677,-5.8677,-5.8677,-5.8624,-5.7843,-5.6766,-5.6209,-5.5429,-5.4314,-5.3794,-5.3794,-5.3794,-5.3794,-5.3794,-5.3794,-5.3794,-5.3794,-5.3794,-5.3794,-5.3571,-5.3236,-5.3069,-5.2956,-5.1838,-5.063,-5.0017,-4.9444,-4.893,-4.8489,-4.8306,-4.8306,-4.8306,-4.8306,-4.8306,-4.8306,-7.3372,-7.3372,-7.3372,-7.3372,-7.3324,-7.2778,-7.1923,-7.0858,-7.0264,-6.9484,-6.863,-6.8518,-6.8518,-6.8518,-6.8481,-6.7614,-6.6425,-6.6091,-6.5199,-6.3825,-6.3602,-6.3602,-6.3305,-6.2004,-6.1224,-6.0964,-5.9627,-5.8677,-5.8677,-5.8677,-5.8677,-5.8677,-5.8677,-5.8326,-5.7546,-5.7286,-5.6395,-5.5206,-5.4815,-5.4351,-5.3905,-5.3794,-5.3774,-5.3714,-5.3674,-5.3538,-5.3339,-5.3281,-5.34,-5.3654,-5.3754,-5.3794,-5.3794,-5.3794,-5.4054,-5.4723,-5.5652,-5.6617,-5.7212,-5.8103,-5.864,-5.8677,-5.8677,-5.8677,-5.8677,-5.8677,-5.8677,-5.8677,-5.8677,-5.8677,-5.8677,-5.8677,-5.8677,-5.8677,-5.8677,-5.8677,-5.8677,-5.8677,-5.8677,-5.8677,-5.8677,-5.8677,-5.8677,-5.8624,-5.8066,-5.6766,-5.6172,-5.5726,-5.4351,-5.3794,-5.3794,-5.3794,-5.3794,-5.3794,-5.3794,-5.3794,-5.3794,-5.3794,-5.3794,-5.3794,-5.3551,-5.3437,-5.3341,-5.287,-5.1236,-5.0308,-4.9884,-4.9407,-4.8967,-4.8306,-4.8306,-4.8306,-4.8306,-4.8306,-4.8306,-7.3372,-7.3372,-7.3372,-7.3187,-7.2878,-7.2395,-7.1515,-7.045,-6.9893,-6.9224,-6.863,-6.8518,-6.8518,-6.8518,-6.8481,-6.759,-6.6239,-6.6091,-6.5162,-6.3825,-6.3602,-6.3602,-6.3305,-6.2264,-6.1558,-6.1076,-5.985,-5.9107,-5.8772,-5.8677,-5.8677,-5.8677,-5.8677,-5.8438,-5.8066,-5.7621,-5.7063,-5.6097,-5.5409,-5.476,-5.4351,-5.398,-5.3756,-5.3735,-5.3733,-5.3578,-5.342,-5.342,-5.3558,-5.3694,-5.3735,-5.3774,-5.3794,-5.3794,-5.4146,-5.4983,-5.5837,-5.6655,-5.7472,-5.8252,-5.864,-5.8677,-5.8677,-5.8677,-5.8677,-5.8677,-5.8677,-5.8677,-5.8677,-5.8677,-5.8677,-5.8677,-5.8677,-5.8677,-5.8677,-5.8677,-5.8677,-5.8677,-5.8677,-5.8677,-5.8677,-5.8677,-5.8677,-5.8677,-5.7881,-5.6803,-5.632,-5.5354,-5.424,-5.398,-5.3794,-5.3794,-5.3794,-5.3794,-5.3794,-5.3794,-5.3794,-5.3794,-5.3794,-5.3794,-5.3737,-5.3639,-5.3504,-5.3071,-5.1731,-5.0729,-5.0362,-4.9738,-4.8746,-4.8306,-4.8306,-4.8306,-4.8306,-4.8306,-4.8306,-7.3361,-7.3287,-7.3287,-7.2778,-7.2135,-7.1923,-7.1032,-6.9917,-6.9558,-6.9113,-6.8593,-6.8518,-6.8518,-6.8518,-6.8481,-6.7651,-6.6128,-6.6054,-6.499,-6.4048,-6.3602,-6.3602,-6.349,-6.271,-6.1893,-6.115,-6.0333,-5.9478,-5.8884,-5.8677,-5.8677,-5.8677,-5.8677,-5.8677,-5.8475,-5.7992,-5.7621,-5.7138,-5.6134,-5.5317,-5.4871,-5.4351,-5.3998,-5.3793,-5.3716,-5.3674,-5.3578,-5.3598,-5.3711,-5.3862,-5.3825,-5.392,-5.398,-5.398,-5.4574,-5.5354,-5.6209,-5.6878,-5.7583,-5.8364,-5.8677,-5.8677,-5.8677,-5.8677,-5.8677,-5.8677,-5.8677,-5.8677,-5.8677,-5.8677,-5.8677,-5.8677,-5.8677,-5.8677,-5.8677,-5.8677,-5.8677,-5.8677,-5.8677,-5.8677,-5.8677,-5.8677,-5.8677,-5.8586,-5.8103,-5.6655,-5.6209,-5.5429,-5.4426,-5.3905,-5.3794,-5.3794,-5.3794,-5.3794,-5.3794,-5.3794,-5.3794,-5.3794,-5.3794,-5.3775,-5.3737,-5.3659,-5.3541,-5.3014,-5.2026,-5.1393,-5.1022,-5.0141,-4.8893,-4.8453,-4.8563,-4.8453,-4.8306,-4.8306,-4.8306,-7.3064,-7.2469,-7.2444,-7.1961,-7.1143,-7.0512,-7.0066,-6.9633,-6.9001,-6.8704,-6.8518,-6.8518,-6.8518,-6.8518,-6.8444,-6.7651,-6.6202,-6.5942,-6.5199,-6.3788,-6.3602,-6.3602,-6.3453,-6.2784,-6.1967,-6.1187,-6.0333,-5.9515,-5.8884,-5.8677,-5.8677,-5.8677,-5.8677,-5.8677,-5.8624,-5.8475,-5.8103,-5.7583,-5.7063,-5.6209,-5.528,-5.4946,-5.45,-5.4035,-5.3883,-5.3751,-5.3674,-5.3578,-5.3894,-5.4454,-5.4699,-5.4832,-5.4852,-5.5317,-5.5949,-5.6617,-5.7026,-5.7583,-5.8289,-5.8549,-5.8677,-5.8677,-5.8677,-5.8677,-5.8677,-5.8677,-5.8677,-5.8677,-5.8677,-5.8677,-5.8677,-5.8677,-5.8677,-5.8677,-5.8677,-5.8677,-5.8677,-5.8677,-5.8677,-5.8677,-5.8677,-5.8677,-5.8677,-5.8677,-5.7955,-5.6692,-5.6023,-5.5503,-5.476,-5.4017,-5.3868,-5.3905,-5.3794,-5.3794,-5.3794,-5.3794,-5.3794,-5.3794,-5.3794,-5.3794,-5.3756,-5.3639,-5.3521,-5.3125,-5.2524,-5.1985,-5.1463,-5.0398,-4.915,-4.9003,-4.8746,-4.8489,-4.8306,-4.8306,-4.8306,-7.2952,-7.2246,-7.2209,-7.1478,-7.0375,-6.9893,-6.9484,-6.9113,-6.8704,-6.8518,-6.8518,-6.8518,-6.8518,-6.8518,-6.8444,-6.7651,-6.6202,-6.5236,-6.4493,-6.3713,-6.3602,-6.3602,-6.3416,-6.2784,-6.2004,-6.1224,-6.0778,-5.9924,-5.9032,-5.8677,-5.8677,-5.8677,-5.8677,-5.8677,-5.8677,-5.8677,-5.8475,-5.8103,-5.7658,-5.7026,-5.6283,-5.5763,-5.5503,-5.5057,-5.4924,-5.4904,-5.4959,-5.4902,-5.5087,-5.5515,-5.5909,-5.5986,-5.5689,-5.606,-5.6692,-5.7323,-5.7509,-5.7881,-5.8475,-5.8677,-5.8677,-5.8677,-5.8677,-5.8677,-5.8677,-5.8677,-5.8677,-5.8677,-5.8677,-5.8677,-5.8677,-5.8677,-5.8677,-5.8677,-5.8677,-5.8677,-5.8677,-5.8677,-5.8677,-5.8677,-5.8677,-5.8677,-5.8677,-5.8677,-5.8215,-5.7138,-5.6952,-5.6395,-5.5169,-5.4463,-5.4128,-5.4017,-5.3868,-5.3794,-5.3794,-5.3794,-5.3794,-5.3794,-5.3794,-5.3794,-5.3775,-5.3639,-5.3501,-5.3105,-5.2692,-5.2222,-5.161,-5.0528,-4.9721,-4.939,-4.904,-4.86,-4.8379,-4.8453,-4.8416,-7.2581,-7.1812,-7.1837,-7.092,-6.9633,-6.9484,-6.9113,-6.8593,-6.8518,-6.8518,-6.8518,-6.8518,-6.8518,-6.8481,-6.8296,-6.7367,-6.5868,-6.4493,-6.3676,-6.3639,-6.3602,-6.3602,-6.3416,-6.2784,-6.2004,-6.1261,-6.089,-5.9998,-5.9011,-5.8677,-5.8677,-5.8677,-5.8677,-5.8677,-5.8677,-5.8677,-5.8661,-5.8475,-5.8066,-5.7621,-5.7286,-5.6729,-5.6395,-5.6097,-5.606,-5.604,-5.604,-5.6077,-5.6283,-5.6506,-5.7138,-5.7138,-5.6878,-5.6729,-5.6915,-5.7695,-5.7806,-5.8103,-5.8549,-5.8677,-5.8677,-5.8677,-5.8677,-5.8677,-5.8677,-5.8677,-5.8677,-5.8677,-5.8677,-5.8677,-5.8677,-5.8677,-5.8677,-5.8677,-5.8677,-5.8677,-5.8677,-5.8677,-5.8677,-5.8677,-5.8677,-5.8677,-5.8677,-5.8661,-5.8178,-5.7769,-5.7583,-5.7026,-5.5743,-5.4889,-5.45,-5.4054,-5.3868,-5.3794,-5.3794,-5.3794,-5.3794,-5.3794,-5.3794,-5.3794,-5.3775,-5.362,-5.3501,-5.333,-5.2933,-5.25,-5.2013,-5.1279,-5.0565,-4.9941,-4.9554,-4.9407,-4.9114,-4.871,-4.8746,-7.0858,-7.014,-7.014,-6.9521,-6.8778,-6.8704,-6.8667,-6.8518,-6.8518,-6.8518,-6.8518,-6.8518,-6.8481,-6.832,-6.7763,-6.6611,-6.5176,-6.4085,-6.3602,-6.3602,-6.3602,-6.3602,-6.3453,-6.2673,-6.193,-6.1187,-6.0518,-5.9589,-5.8958,-5.8677,-5.8677,-5.8677,-5.8677,-5.8677,-5.8677,-5.8677,-5.8677,-5.8677,-5.8438,-5.8141,-5.7695,-5.7435,-5.7063,-5.6655,-5.6617,-5.6543,-5.6432,-5.6432,-5.6617,-5.7249,-5.7435,-5.7769,-5.8029,-5.8141,-5.8252,-5.8306,-5.838,-5.8454,-5.864,-5.8677,-5.8677,-5.8677,-5.8677,-5.8677,-5.8677,-5.8677,-5.8677,-5.8677,-5.8677,-5.8677,-5.8677,-5.8677,-5.8677,-5.8677,-5.8677,-5.8677,-5.8677,-5.8677,-5.8677,-5.8677,-5.8677,-5.8677,-5.8677,-5.8661,-5.8364,-5.8029,-5.7843,-5.7026,-5.5726,-5.5094,-5.4723,-5.4277,-5.3831,-5.3794,-5.3794,-5.3794,-5.3794,-5.3794,-5.3794,-5.3794,-5.3737,-5.36,-5.3464,-5.333,-5.3228,-5.2973,-5.2454,-5.1867,-5.1499,-5.1006,-5.0655,-5.0325,-4.9994,-4.9701,-4.9958,-7.0412,-6.9707,-6.9707,-6.9224,-6.8593,-6.8518,-6.8518,-6.8518,-6.8518,-6.8518,-6.8518,-6.8481,-6.8246,-6.7874,-6.7516,-6.6327,-6.4916,-6.3951,-6.3639,-6.3602,-6.3602,-6.3602,-6.3416,-6.2413,-6.1707,-6.0927,-5.9961,-5.9144,-5.8735,-5.8677,-5.8677,-5.8677,-5.8677,-5.8677,-5.8677,-5.8677,-5.8677,-5.8677,-5.8661,-5.8512,-5.8141,-5.8103,-5.7843,-5.7658,-5.7509,-5.7546,-5.7546,-5.7546,-5.7732,-5.8066,-5.8141,-5.8326,-5.8549,-5.8677,-5.8677,-5.8677,-5.8635,-5.8635,-5.8656,-5.8656,-5.8614,-5.8677,-5.8677,-5.8677,-5.8677,-5.8677,-5.8677,-5.8677,-5.8677,-5.8677,-5.8677,-5.8677,-5.8677,-5.8677,-5.8677,-5.8677,-5.8677,-5.8677,-5.8677,-5.8677,-5.8677,-5.8677,-5.8677,-5.8624,-5.8512,-5.8326,-5.8141,-5.71,-5.5763,-5.5429,-5.5169,-5.4277,-5.3794,-5.3794,-5.3794,-5.3794,-5.3794,-5.3794,-5.3794,-5.3794,-5.3737,-5.36,-5.3521,-5.3481,-5.3375,-5.3225,-5.2894,-5.2307,-5.2197,-5.1977,-5.1316,-5.0839,-5.0802,-5.0802,-5.0986,-7.0041,-6.9447,-6.9447,-6.9076,-6.8556,-6.8518,-6.8518,-6.8518,-6.8518,-6.8518,-6.8481,-6.832,-6.7874,-6.7354,-6.6797,-6.5882,-6.4545,-6.3802,-6.3639,-6.3602,-6.3602,-6.3602,-6.3156,-6.2153,-6.1224,-6.1001,-5.9589,-5.8677,-5.8698,-5.8677,-5.8677,-5.8677,-5.8677,-5.8677,-5.8677,-5.8677,-5.8677,-5.8677,-5.8677,-5.8677,-5.8677,-5.8677,-5.8677,-5.8677,-5.8677,-5.8624,-5.8512,-5.8475,-5.8512,-5.8586,-5.8624,-5.8661,-5.8698,-5.8677,-5.8677,-5.8677,-5.8593,-5.8593,-5.8635,-5.8593,-5.8593,-5.8677,-5.8677,-5.8677,-5.8677,-5.8677,-5.8677,-5.8677,-5.8677,-5.8677,-5.8677,-5.8677,-5.8677,-5.8677,-5.8677,-5.8677,-5.8677,-5.8677,-5.8677,-5.8677,-5.8677,-5.8677,-5.8677,-5.8677,-5.8586,-5.8586,-5.8401,-5.7546,-5.6395,-5.6134,-5.5614,-5.4388,-5.3794,-5.3794,-5.3794,-5.3794,-5.3794,-5.3794,-5.3794,-5.3794,-5.3717,-5.362,-5.3561,-5.3461,-5.3334,-5.3167,-5.2931,-5.2821,-5.2674,-5.2307,-5.1683,-5.1536,-5.1756,-5.1793,-5.183,-6.8704,-6.863,-6.8667,-6.858,-6.8518,-6.8518,-6.8518,-6.8518,-6.8518,-6.8518,-6.837,-6.7776,-6.7428,-6.6908,-6.5659,-6.4642,-6.3973,-6.3713,-6.3602,-6.3602,-6.3602,-6.3602,-6.3379,-6.1967,-6.1298,-6.089,-5.9515,-5.8788,-5.8677,-5.8677,-5.8677,-5.8677,-5.8677,-5.8677,-5.8677,-5.8677,-5.8677,-5.8677,-5.8677,-5.8677,-5.8677,-5.8677,-5.8677,-5.8677,-5.8677,-5.8677,-5.8677,-5.8677,-5.8677,-5.8677,-5.8677,-5.8677,-5.8677,-5.8677,-5.8677,-5.8656,-5.8614,-5.8572,-5.8656,-5.8572,-5.8572,-5.8656,-5.8677,-5.8677,-5.8677,-5.8677,-5.8677,-5.8677,-5.8677,-5.8677,-5.8677,-5.8677,-5.8677,-5.8677,-5.8677,-5.8677,-5.8677,-5.8677,-5.8677,-5.8677,-5.8677,-5.8677,-5.8677,-5.8677,-5.8677,-5.8677,-5.8512,-5.7695,-5.6952,-5.658,-5.6172,-5.4983,-5.4203,-5.4128,-5.398,-5.398,-5.3831,-5.3831,-5.3794,-5.3775,-5.3735,-5.3657,-5.3521,-5.342,-5.3272,-5.3203,-5.3057,-5.302,-5.3041,-5.2821,-5.2417,-5.258,-5.2947,-5.2894,-5.2564,-6.8518,-6.8518,-6.8518,-6.8518,-6.8518,-6.8518,-6.8518,-6.8518,-6.8481,-6.8246,-6.7837,-6.7503,-6.6834,-6.5807,-6.4582,-6.3951,-6.3639,-6.3602,-6.3602,-6.3602,-6.3602,-6.3602,-6.323,-6.2041,-6.1224,-6.0778,-5.9664,-5.8751,-5.8677,-5.8677,-5.8677,-5.8677,-5.8677,-5.8677,-5.8677,-5.8677,-5.8677,-5.8677,-5.8677,-5.8677,-5.8677,-5.8677,-5.8677,-5.8677,-5.8677,-5.8677,-5.8677,-5.8677,-5.8677,-5.8677,-5.8677,-5.8677,-5.8677,-5.8677,-5.8677,-5.8593,-5.8486,-5.8508,-5.8635,-5.8508,-5.8551,-5.8635,-5.8677,-5.8677,-5.8677,-5.8677,-5.8677,-5.8677,-5.8677,-5.8677,-5.8677,-5.8677,-5.8677,-5.8677,-5.8677,-5.8677,-5.8677,-5.8677,-5.8677,-5.8677,-5.8677,-5.8677,-5.8677,-5.8677,-5.8677,-5.8677,-5.8586,-5.8066,-5.7286,-5.6692,-5.6246,-5.5652,-5.502,-5.4611,-5.4388,-5.424,-5.3943,-5.3868,-5.3812,-5.3793,-5.3716,-5.3637,-5.3481,-5.338,-5.3272,-5.3209,-5.3188,-5.3167,-5.3093,-5.313,-5.3167,-5.3203,-5.3203,-5.3167,-5.291,-6.8518,-6.8518,-6.8518,-6.8518,-6.8518,-6.8518,-6.8518,-6.8481,-6.8283,-6.7874,-6.7317,-6.6834,-6.577,-6.4656,-6.3951,-6.3676,-6.3602,-6.3602,-6.3602,-6.3602,-6.3602,-6.3602,-6.323,-6.219,-6.141,-6.1187,-5.985,-5.8995,-5.8735,-5.8677,-5.8677,-5.8677,-5.8677,-5.8677,-5.8677,-5.8677,-5.8677,-5.8677,-5.8677,-5.8677,-5.8677,-5.8677,-5.8677,-5.8677,-5.8677,-5.8677,-5.8677,-5.8677,-5.8677,-5.8677,-5.8677,-5.8677,-5.8677,-5.8656,-5.8614,-5.8508,-5.84,-5.8437,-5.8523,-5.8523,-5.8523,-5.8593,-5.8677,-5.8677,-5.8677,-5.8677,-5.8677,-5.8677,-5.8677,-5.8677,-5.8677,-5.8677,-5.8677,-5.8677,-5.8677,-5.8677,-5.8677,-5.8677,-5.8677,-5.8677,-5.8677,-5.8677,-5.8677,-5.8677,-5.8677,-5.8677,-5.8549,-5.8289,-5.7695,-5.6952,-5.6469,-5.606,-5.5763,-5.5354,-5.5131,-5.4834,-5.4426,-5.4035,-5.3961,-5.3811,-5.3751,-5.3615,-5.342,-5.3297,-5.3251,-5.3209,-5.3203,-5.3203,-5.3203,-5.3203,-5.3203,-5.3203,-5.3203,-5.3203,-5.3203,-6.8518,-6.8518,-6.8518,-6.8481,-6.8444,-6.8481,-6.8481,-6.8184,-6.7651,-6.7317,-6.6871,-6.5756,-6.4582,-6.3876,-6.3713,-6.3602,-6.3602,-6.3602,-6.3602,-6.3602,-6.3602,-6.3602,-6.3267,-6.2673,-6.1893,-6.1261,-6.0147,-5.9329,-5.8884,-5.8751,-5.8714,-5.8677,-5.8677,-5.8677,-5.8677,-5.8677,-5.8677,-5.8677,-5.8677,-5.8677,-5.8677,-5.8677,-5.8677,-5.8677,-5.8677,-5.8677,-5.8677,-5.8677,-5.8677,-5.8677,-5.8677,-5.8677,-5.8656,-5.8593,-5.8513,-5.8443,-5.8312,-5.8327,-5.8371,-5.8415,-5.848,-5.8529,-5.8614,-5.8677,-5.8677,-5.8677,-5.8677,-5.8751,-5.8788,-5.8772,-5.8772,-5.8677,-5.8677,-5.8677,-5.8677,-5.8677,-5.8677,-5.8677,-5.8677,-5.8677,-5.8677,-5.8677,-5.8677,-5.8677,-5.8677,-5.8677,-5.8698,-5.8475,-5.7955,-5.7286,-5.6878,-5.6506,-5.6395,-5.6172,-5.6097,-5.5726,-5.5131,-5.4684,-5.4479,-5.4123,-5.3842,-5.3649,-5.3339,-5.3277,-5.323,-5.3188,-5.3203,-5.3203,-5.3203,-5.3203,-5.3203,-5.3203,-5.3203,-5.3203,-5.3203,-6.8518,-6.8518,-6.8518,-6.8208,-6.78,-6.7763,-6.7503,-6.7057,-6.6685,-6.6239,-6.5696,-6.4605,-6.3876,-6.3676,-6.3602,-6.3602,-6.3602,-6.3602,-6.3602,-6.3602,-6.3602,-6.3602,-6.3342,-6.2896,-6.219,-6.167,-6.0667,-5.9828,-5.9515,-5.9032,-5.8714,-5.8677,-5.8677,-5.8677,-5.8677,-5.8677,-5.8677,-5.8677,-5.8677,-5.8677,-5.8677,-5.8677,-5.8677,-5.8677,-5.8677,-5.8677,-5.8677,-5.8677,-5.8677,-5.8677,-5.8677,-5.8656,-5.8593,-5.8492,-5.8406,-5.8356,-5.8223,-5.8179,-5.8215,-5.826,-5.8334,-5.8508,-5.8614,-5.8677,-5.8677,-5.8677,-5.9011,-5.9086,-5.8974,-5.8921,-5.9346,-5.9011,-5.8677,-5.8677,-5.8677,-5.8677,-5.8677,-5.8677,-5.8677,-5.8677,-5.8677,-5.8677,-5.8677,-5.8677,-5.8677,-5.8698,-5.8661,-5.8586,-5.8141,-5.7843,-5.7509,-5.7286,-5.7175,-5.7063,-5.6989,-5.6432,-5.5837,-5.5407,-5.5033,-5.4546,-5.4152,-5.3551,-5.3297,-5.3272,-5.323,-5.3188,-5.3203,-5.3203,-5.3203,-5.3203,-5.3203,-5.3203,-5.3203,-5.3203,-5.3203,-6.8518,-6.8518,-6.8518,-6.8036,-6.733,-6.7293,-6.6871,-6.6128,-6.5831,-6.5236,-6.4396,-6.3825,-6.3602,-6.3602,-6.3602,-6.3602,-6.3602,-6.3602,-6.3602,-6.3602,-6.3602,-6.3602,-6.3416,-6.3096,-6.2673,-6.219,-6.141,-6.063,-5.9812,-5.9292,-5.8995,-5.8788,-5.8677,-5.8677,-5.8677,-5.8677,-5.8677,-5.8677,-5.8677,-5.8677,-5.8677,-5.8677,-5.8677,-5.8677,-5.8677,-5.8677,-5.8677,-5.8677,-5.8677,-5.8677,-5.8656,-5.8593,-5.8529,-5.8443,-5.8334,-5.8223,-5.8133,-5.8088,-5.8065,-5.8193,-5.8312,-5.8508,-5.8635,-5.8677,-5.8677,-5.8714,-5.8974,-5.9664,-5.9367,-5.9308,-5.9903,-5.9441,-5.8921,-5.8884,-5.8735,-5.8677,-5.8677,-5.8677,-5.8677,-5.8677,-5.8677,-5.8677,-5.8677,-5.8677,-5.8677,-5.8677,-5.8698,-5.8698,-5.8549,-5.8364,-5.8401,-5.8178,-5.8066,-5.7955,-5.7843,-5.7175,-5.6597,-5.6334,-5.5866,-5.5098,-5.4552,-5.3949,-5.3366,-5.323,-5.3188,-5.3203,-5.3203,-5.3203,-5.3203,-5.3203,-5.3203,-5.3203,-5.3203,-5.3203,-5.3203,-6.8444,-6.8518,-6.8444,-6.8023,-6.7219,-6.728,-6.676,-6.5794,-6.5102,-6.4493,-6.3899,-6.3676,-6.3602,-6.3602,-6.3602,-6.3602,-6.3602,-6.3602,-6.3602,-6.3602,-6.3602,-6.3602,-6.3565,-6.3416,-6.3119,-6.2562,-6.2004,-6.1224,-6.0147,-5.9812,-5.9383,-5.8937,-5.8788,-5.8677,-5.8677,-5.8677,-5.8677,-5.8677,-5.8677,-5.8677,-5.8677,-5.8677,-5.8677,-5.8677,-5.8677,-5.8677,-5.8677,-5.8677,-5.8677,-5.8677,-5.8614,-5.8551,-5.8486,-5.8334,-5.8246,-5.8179,-5.8065,-5.802,-5.802,-5.826,-5.8415,-5.8486,-5.8593,-5.8677,-5.8677,-5.8751,-5.9181,-5.9998,-5.985,-5.9887,-5.9961,-5.9812,-5.9404,-5.9069,-5.8921,-5.8677,-5.8677,-5.8677,-5.8677,-5.8677,-5.8677,-5.8677,-5.8677,-5.8677,-5.8677,-5.8677,-5.8677,-5.8677,-5.8677,-5.8677,-5.8677,-5.8624,-5.8475,-5.8438,-5.8215,-5.7843,-5.7414,-5.7188,-5.6735,-5.5965,-5.5212,-5.4533,-5.3986,-5.3445,-5.3203,-5.3203,-5.3203,-5.3203,-5.3203,-5.3203,-5.3203,-5.3203,-5.3203,-5.3203,-5.3203,-6.7243,-6.7701,-6.7701,-6.7243,-6.6574,-6.65,-6.5756,-6.4545,-6.4159,-6.4122,-6.4211,-6.3876,-6.3602,-6.3602,-6.3602,-6.3602,-6.3602,-6.3602,-6.3602,-6.3602,-6.3602,-6.3602,-6.3602,-6.3565,-6.3453,-6.3119,-6.2747,-6.2301,-6.1633,-6.0704,-5.9961,-5.9478,-5.8937,-5.8677,-5.8677,-5.8677,-5.8677,-5.8677,-5.8677,-5.8677,-5.8677,-5.8677,-5.8677,-5.8677,-5.8677,-5.8677,-5.8677,-5.8677,-5.8677,-5.8677,-5.8614,-5.8551,-5.8465,-5.8349,-5.826,-5.8111,-5.802,-5.7997,-5.8065,-5.8201,-5.8393,-5.8539,-5.8572,-5.8677,-5.8677,-5.8677,-5.9441,-6.0258,-6.0295,-6.0593,-6.1261,-6.037,-5.9812,-5.9515,-5.9234,-5.8826,-5.8677,-5.8677,-5.8677,-5.8677,-5.8677,-5.8677,-5.8677,-5.8677,-5.8677,-5.8677,-5.8677,-5.8677,-5.8677,-5.8677,-5.8677,-5.8677,-5.8624,-5.8661,-5.8549,-5.8215,-5.8103,-5.7951,-5.7513,-5.6884,-5.6092,-5.5264,-5.4574,-5.3995,-5.3534,-5.3203,-5.3203,-5.3203,-5.3203,-5.3203,-5.3203,-5.3203,-5.3203,-5.3203,-5.3203,-6.6425,-6.6908,-6.7205,-6.6648,-6.5794,-6.5979,-6.5162,-6.3788,-6.3639,-6.3913,-6.4173,-6.3825,-6.3602,-6.3602,-6.3602,-6.3602,-6.3602,-6.3602,-6.3602,-6.3602,-6.3602,-6.3602,-6.3602,-6.3602,-6.3565,-6.3453,-6.3156,-6.271,-6.2227,-6.1298,-6.0518,-5.9812,-5.9123,-5.8751,-5.8677,-5.8677,-5.8677,-5.8677,-5.8677,-5.8677,-5.8677,-5.8677,-5.8677,-5.8677,-5.8677,-5.8677,-5.8677,-5.8677,-5.8677,-5.8677,-5.8635,-5.8572,-5.848,-5.8349,-5.826,-5.8111,-5.802,-5.813,-5.841,-5.8702,-5.9058,-5.9376,-5.898,-5.8714,-5.8788,-5.9011,-5.9887,-6.0555,-6.072,-6.1373,-6.1893,-6.089,-6.063,-6.0348,-5.994,-5.9552,-5.9181,-5.9218,-5.9032,-5.8974,-5.8809,-5.8772,-5.8677,-5.8677,-5.8677,-5.8677,-5.8677,-5.8677,-5.8677,-5.8677,-5.8677,-5.8677,-5.8677,-5.8677,-5.8677,-5.8624,-5.8549,-5.864,-5.8143,-5.7528,-5.6903,-5.6116,-5.5309,-5.4546,-5.4106,-5.3665,-5.3314,-5.3203,-5.3203,-5.3203,-5.3203,-5.3203,-5.3203,-5.3203,-5.3203,-6.6017,-6.6165,-6.6908,-6.6277,-6.5102,-6.5571,-6.5013,-6.3676,-6.3639,-6.3653,-6.3713,-6.375,-6.3602,-6.3602,-6.3602,-6.3602,-6.3602,-6.3602,-6.3602,-6.3602,-6.3602,-6.3602,-6.3602,-6.3602,-6.3602,-6.3602,-6.3453,-6.3082,-6.2524,-6.1819,-6.1038,-6.0035,-5.9086,-5.8788,-5.8677,-5.8677,-5.8677,-5.8677,-5.8677,-5.8677,-5.8677,-5.8677,-5.8677,-5.8677,-5.8677,-5.8677,-5.8677,-5.8677,-5.8677,-5.8656,-5.8593,-5.8551,-5.8443,-5.8312,-5.8223,-5.8133,-5.8042,-5.8423,-5.8938,-5.9255,-5.9811,-6.0041,-5.9573,-5.9027,-5.9144,-5.9738,-6.0481,-6.1224,-6.1633,-6.2041,-6.2301,-6.2079,-6.1819,-6.1447,-6.1076,-6.0593,-6.0072,-5.985,-5.9589,-5.9367,-5.9069,-5.8921,-5.8735,-5.8677,-5.8677,-5.8677,-5.8677,-5.8677,-5.8677,-5.8677,-5.8677,-5.8677,-5.8677,-5.8677,-5.8677,-5.8677,-5.8656,-5.8635,-5.8508,-5.7965,-5.742,-5.6853,-5.6081,-5.5317,-5.4656,-5.4106,-5.3482,-5.3203,-5.3203,-5.3203,-5.3203,-5.3203,-5.3203,-5.3203,-5.3203,-6.4642,-6.5199,-6.5399,-6.5213,-6.4828,-6.4456,-6.4322,-6.4382,-6.3899,-6.3839,-6.4433,-6.3862,-6.3602,-6.3602,-6.3602,-6.3602,-6.3602,-6.3602,-6.3602,-6.3602,-6.3602,-6.3602,-6.3602,-6.3602,-6.3602,-6.3602,-6.3565,-6.3416,-6.297,-6.2339,-6.1076,-5.9924,-5.9144,-5.8809,-5.8677,-5.8677,-5.8677,-5.8677,-5.8677,-5.8677,-5.8677,-5.8677,-5.8677,-5.8677,-5.8677,-5.8677,-5.8677,-5.8677,-5.8677,-5.8677,-5.8656,-5.8593,-5.8437,-5.8371,-5.8305,-5.8065,-5.8093,-5.8327,-5.9048,-5.9476,-6.0018,-6.0802,-6.0611,-6.0587,-6.0593,-6.0778,-6.1224,-6.1744,-6.2301,-6.2636,-6.2822,-6.271,-6.2524,-6.2227,-6.1856,-6.1373,-6.0927,-6.0741,-6.0481,-5.9924,-5.9627,-5.9069,-5.8884,-5.8677,-5.8677,-5.8677,-5.8677,-5.8677,-5.8677,-5.8677,-5.8677,-5.8677,-5.8677,-5.8677,-5.8677,-5.8677,-5.8635,-5.8572,-5.8422,-5.8275,-5.7892,-5.7324,-5.6698,-5.5941,-5.5023,-5.4179,-5.3371,-5.3203,-5.3203,-5.3203,-5.3203,-5.3203,-5.3203,-5.3203,-5.3203,-6.3876,-6.4322,-6.4656,-6.4791,-6.4656,-6.3913,-6.3913,-6.4173,-6.3802,-6.3913,-6.4233,-6.3825,-6.3602,-6.3602,-6.3602,-6.3602,-6.3602,-6.3602,-6.3602,-6.3602,-6.3602,-6.3602,-6.3602,-6.3602,-6.3602,-6.3602,-6.3527,-6.3356,-6.2836,-6.167,-6.037,-6.0444,-5.9367,-5.8809,-5.8677,-5.8677,-5.8677,-5.8677,-5.8677,-5.8677,-5.8677,-5.8677,-5.8677,-5.8677,-5.8677,-5.8677,-5.8677,-5.8677,-5.8677,-5.8677,-5.8656,-5.8572,-5.8437,-5.8393,-5.826,-5.8042,-5.7997,-5.8657,-5.9525,-5.9992,-6.0697,-6.1454,-6.1945,-6.2109,-6.1967,-6.1967,-6.2079,-6.2301,-6.2673,-6.3044,-6.3156,-6.3193,-6.3044,-6.2896,-6.2487,-6.2079,-6.1893,-6.1707,-6.1224,-6.063,-6.0072,-5.9478,-5.9107,-5.8826,-5.8677,-5.8677,-5.8677,-5.8677,-5.8677,-5.8677,-5.8677,-5.8677,-5.8677,-5.8677,-5.8677,-5.8656,-5.8593,-5.8471,-5.8356,-5.8209,-5.8068,-5.7743,-5.7065,-5.6161,-5.517,-5.4326,-5.3482,-5.3277,-5.3203,-5.3203,-5.3203,-5.3203,-5.3203,-5.3203,-5.3203,-6.3602,-6.3713,-6.4396,-6.4619,-6.4582,-6.3876,-6.3639,-6.3602,-6.3639,-6.3639,-6.3676,-6.3639,-6.3602,-6.3602,-6.3602,-6.3602,-6.3602,-6.3602,-6.3602,-6.3602,-6.3602,-6.3602,-6.3602,-6.3602,-6.3602,-6.3602,-6.3379,-6.2933,-6.2041,-6.1001,-6.0444,-6.0964,-5.9515,-5.8735,-5.8677,-5.8677,-5.8677,-5.8677,-5.8677,-5.8677,-5.8677,-5.8677,-5.8677,-5.8677,-5.8677,-5.8677,-5.8677,-5.8677,-5.8677,-5.8656,-5.8593,-5.8529,-5.84,-5.8268,-5.8111,-5.8042,-5.7997,-5.8877,-5.9806,-6.0434,-6.1546,-6.2489,-6.3405,-6.326,-6.297,-6.2747,-6.2747,-6.2747,-6.3119,-6.3305,-6.3416,-6.3453,-6.3342,-6.3267,-6.3082,-6.274,-6.2532,-6.225,-6.1723,-6.1093,-6.0388,-5.9721,-5.8868,-5.8609,-5.8551,-5.8614,-5.8635,-5.8614,-5.8656,-5.8656,-5.8677,-5.8677,-5.8677,-5.8677,-5.8656,-5.8635,-5.8513,-5.8406,-5.8253,-5.8201,-5.8074,-5.7771,-5.7432,-5.6492,-5.55,-5.4509,-5.3775,-5.346,-5.324,-5.3203,-5.3203,-5.3203,-5.3203,-5.3203,-5.3203,-6.3602,-6.3639,-6.3825,-6.3899,-6.3876,-6.3713,-6.3602,-6.3602,-6.3602,-6.3602,-6.3602,-6.3602,-6.3602,-6.3602,-6.3602,-6.3602,-6.3602,-6.3602,-6.3602,-6.3602,-6.3602,-6.3602,-6.3602,-6.3602,-6.3602,-6.3379,-6.3007,-6.2376,-6.1707,-6.072,-5.9903,-6.0147,-5.9144,-5.8698,-5.8677,-5.8677,-5.8677,-5.8677,-5.8677,-5.8677,-5.8677,-5.8677,-5.8677,-5.8677,-5.8677,-5.8677,-5.8677,-5.8677,-5.8677,-5.8677,-5.8572,-5.8443,-5.8268,-5.8133,-5.8042,-5.7997,-5.8033,-5.8914,-5.994,-6.0743,-6.162,-6.2674,-6.3419,-6.3534,-6.3527,-6.3379,-6.3342,-6.3319,-6.3393,-6.3527,-6.3602,-6.3602,-6.3602,-6.3602,-6.3602,-6.3348,-6.3154,-6.2678,-6.2202,-6.1402,-6.0685,-5.9834,-5.8909,-5.8502,-5.848,-5.848,-5.8459,-5.848,-5.8529,-5.8572,-5.8635,-5.8635,-5.8677,-5.8677,-5.8656,-5.8482,-5.8301,-5.8252,-5.8157,-5.8082,-5.8065,-5.7895,-5.7593,-5.6785,-5.5904,-5.4987,-5.4179,-5.3555,-5.335,-5.324,-5.3203,-5.3203,-5.3203,-5.3203,-5.3203,-6.3602,-6.3602,-6.3602,-6.3602,-6.3602,-6.3602,-6.3602,-6.3602,-6.3602,-6.3602,-6.3602,-6.3602,-6.3602,-6.3602,-6.3602,-6.3602,-6.3602,-6.3602,-6.3602,-6.3602,-6.3602,-6.3602,-6.3602,-6.3602,-6.3602,-6.3379,-6.2413,-6.1744,-6.1707,-6.0258,-5.9457,-5.9998,-5.9441,-5.8677,-5.8677,-5.8677,-5.8677,-5.8677,-5.8698,-5.8714,-5.8735,-5.8735,-5.8698,-5.8677,-5.8677,-5.8677,-5.8677,-5.8677,-5.8677,-5.8635,-5.8529,-5.8334,-5.8156,-5.8042,-5.802,-5.7997,-5.818,-5.8694,-5.994,-6.0853,-6.1569,-6.2734,-6.3442,-6.3579,-6.3602,-6.349,-6.349,-6.3527,-6.3527,-6.3602,-6.3602,-6.3602,-6.3602,-6.3602,-6.3579,-6.3482,-6.3294,-6.3053,-6.2156,-6.1098,-6.047,-5.9952,-5.9102,-5.8437,-5.8437,-5.8437,-5.8393,-5.8393,-5.8422,-5.8465,-5.8551,-5.8614,-5.8635,-5.8677,-5.8677,-5.8349,-5.7978,-5.7943,-5.8039,-5.7927,-5.7873,-5.7946,-5.7703,-5.7005,-5.6308,-5.5574,-5.4803,-5.4032,-5.346,-5.3277,-5.3203,-5.3203,-5.3203,-5.3203,-5.3203,-6.3602,-6.3602,-6.3602,-6.3602,-6.3602,-6.3602,-6.3602,-6.3602,-6.3602,-6.3602,-6.3602,-6.3602,-6.3602,-6.3602,-6.3602,-6.3602,-6.3602,-6.3602,-6.3602,-6.3602,-6.3602,-6.3602,-6.3602,-6.3602,-6.349,-6.3044,-6.219,-6.2339,-6.2599,-6.0704,-5.9701,-6.0481,-5.9812,-5.8677,-5.8677,-5.8677,-5.8677,-5.8772,-5.8846,-5.89,-5.8884,-5.8735,-5.8698,-5.8677,-5.8677,-5.8677,-5.8677,-5.8677,-5.8677,-5.8614,-5.8508,-5.8334,-5.8201,-5.8111,-5.8111,-5.8125,-5.8405,-5.9154,-6.0194,-6.0946,-6.1902,-6.2845,-6.334,-6.3579,-6.3602,-6.3602,-6.3602,-6.3602,-6.3602,-6.3602,-6.3602,-6.3602,-6.3602,-6.3579,-6.3557,-6.3511,-6.3396,-6.3181,-6.2137,-6.0969,-6.0379,-5.9936,-5.9124,-5.846,-5.8349,-5.8349,-5.8349,-5.8371,-5.8371,-5.8378,-5.8443,-5.8529,-5.8556,-5.8598,-5.864,-5.8328,-5.7898,-5.798,-5.8054,-5.7831,-5.774,-5.7886,-5.7776,-5.7336,-5.6638,-5.5978,-5.5244,-5.4473,-5.3959,-5.335,-5.324,-5.3203,-5.3203,-5.3203,-5.3203,-6.3602,-6.3602,-6.3602,-6.3602,-6.3602,-6.3602,-6.3602,-6.3602,-6.3602,-6.3602,-6.3602,-6.3602,-6.3602,-6.3602,-6.3602,-6.3602,-6.3602,-6.3602,-6.3602,-6.3602,-6.3602,-6.3602,-6.3602,-6.3602,-6.3193,-6.2747,-6.2301,-6.2116,-6.245,-6.0853,-5.9791,-6.0295,-5.9441,-5.8772,-5.8735,-5.8735,-5.8772,-5.8921,-5.9329,-5.9568,-5.9457,-5.9255,-5.8735,-5.8677,-5.8677,-5.8677,-5.8677,-5.8677,-5.8677,-5.8656,-5.8588,-5.8532,-5.8423,-5.8356,-5.8282,-5.8408,-5.8688,-5.9573,-6.0467,-6.132,-6.2327,-6.3113,-6.3511,-6.3579,-6.3602,-6.3602,-6.3602,-6.3602,-6.3602,-6.3602,-6.3602,-6.3602,-6.3579,-6.3534,-6.3488,-6.3396,-6.3279,-6.2866,-6.2193,-6.12,-6.0428,-5.9545,-5.8442,-5.8111,-5.8111,-5.8111,-5.8133,-5.8133,-5.8201,-5.8268,-5.8334,-5.8422,-5.8492,-5.8577,-5.8656,-5.836,-5.8061,-5.8106,-5.8054,-5.7808,-5.774,-5.7923,-5.774,-5.7483,-5.7042,-5.6455,-5.5684,-5.484,-5.4069,-5.3497,-5.3277,-5.3203,-5.3203,-5.3203,-5.3203]},{"header":{"parameterUnit":"m.s-1","parameterCategory":1,"la1":31.0,"la2":29.5877,"lo1":-88.7671,"lo2":-86.6584,"dy":0.0162,"dx":0.0185,"nx":115,"ny":88,"refTime":"2026-05-02T00:00:00:Z","depth":0,"parameterNumber":3,"parameterNumberName":"V-component_of_WINDS"},"data":[0.0,0.0,0.0,0.0,0.0,0.0,0.0,0.0,0.0,0.0,0.0,0.0,0.0,0.0,0.0,0.0,0.0,0.0,0.0,0.0,0.0,0.0,0.0,0.0,0.0,0.0,0.0,0.0,0.0,0.0,0.0,0.0,0.0,0.0,0.0,0.0,0.0,0.0,0.0,0.0,0.0,0.0,0.0,0.0,0.0,0.0,0.0,0.0,0.0,0.0,0.0,0.0,0.0,0.0,0.0,0.0,0.0,0.0,0.0,0.0,0.0,0.0,0.0,0.0,0.0,0.0,0.0,0.0,0.0,0.0,0.0,0.0,0.0,0.0,0.0,0.0,0.0,0.0,0.0,0.0,0.0,0.0,0.0,0.0,0.0,0.0,0.0,0.0,0.0,0.0,0.0,0.0,0.0,0.0,0.0,0.0,0.0,0.0,0.0,0.0,0.0,0.0,0.0,0.0,0.0,0.0,0.0,0.0,0.0,0.0,0.0,0.0,0.0,0.0,0.0,0.0,0.0,0.0,0.0,0.0,0.0,0.0,0.0,0.0,0.0,0.0,0.0,0.0,0.0,0.0,0.0,0.0,0.0,0.0,0.0,0.0,0.0,0.0,0.0,0.0,0.0,0.0,0.0,0.0,0.0,0.0,0.0,0.0,0.0,0.0,0.0,0.0,0.0,0.0,0.0,0.0,0.0,0.0,0.0,0.0,0.0,0.0,0.0,0.0,0.0,0.0,0.0,0.0,0.0,0.0,0.0,0.0,0.0,0.0,0.0,0.0,0.0,0.0,0.0,0.0,0.0,0.0,0.0,0.0,0.0,0.0,0.0,0.0,0.0,0.0,0.0,0.0,0.0,0.0,0.0,0.0,0.0,0.0,0.0,0.0,0.0,0.0,0.0,0.0,0.0,0.0,0.0,0.0,0.0,0.0,0.0,0.0,0.0,0.0,0.0,0.0,0.0,0.0,0.0,0.0,0.0,0.0,0.0,0.0,0.0,0.0,0.0,0.0,0.0,0.0,0.0,0.0,0.0,0.0,0.0,0.0,0.0,0.0,0.0,0.0,0.0,0.0,0.0,0.0,0.0,0.0,0.0,0.0,0.0,0.0,0.0,0.0,0.0,0.0,0.0,0.0,0.0,0.0,0.0,0.0,0.0,0.0,0.0,0.0,0.0,0.0,0.0,0.0,0.0,0.0,0.0,0.0,0.0,0.0,0.0,0.0,0.0,0.0,0.0,0.0,0.0,0.0,0.0,0.0,0.0,0.0,0.0,0.0,0.0,0.0,0.0,0.0,0.0,0.0,0.0,0.0,0.0,0.0,0.0,0.0,0.0,0.0,0.0,0.0,0.0,0.0,0.0,0.0,0.0,0.0,0.0,0.0,0.0,0.0,0.0,0.0,0.0,0.0,0.0,0.0,0.0,0.0,0.0,0.0,0.0,0.0,0.0,0.0,0.0,0.0,0.0,0.0,0.0,0.0,0.0,0.0,0.0,0.0,0.0,0.0,0.0,0.0,0.0,0.0,0.0,0.0,0.0,0.0,0.0,0.0,0.0,0.0,0.0,0.0,0.0,0.0,0.0,0.0,0.0,0.0,0.0,0.0,0.0,0.0,0.0,0.0,0.0,0.0,0.0,0.0,0.0,0.0,0.0,0.0,0.0,0.0,0.0,0.0,0.0,0.0,0.0,0.0,0.0,0.0,0.0,0.0,0.0,0.0,0.0,0.0,0.0,0.0,0.0,0.0,0.0,0.0,0.0,0.0,0.0,0.0,0.0,0.0,0.0,0.0,0.0,0.0,0.0,0.0,0.0,0.0,0.0,0.0,0.0,0.0,0.0,0.0,0.0,0.0,0.0,0.0,0.0,0.0,0.0,0.0,0.0,0.0,0.0,0.0,0.0,0.0,0.0,0.0,0.0,0.0,0.0,0.0,0.0,0.0,0.0,0.0,0.0,0.0,0.0,0.0,0.0,0.0,0.0,0.0,0.0,0.0,0.0,0.0,0.0,0.0,0.0,0.0,0.0,0.0,0.0,0.0,0.0,0.0,0.0,0.0,0.0,0.0,0.0,0.0,0.0,0.0,0.0,0.0,0.0,0.0,0.0,0.0,0.0,0.0,0.0,0.0,0.0,0.0,0.0,0.0,0.0,0.0,0.0,0.0,0.0,0.0,0.0,0.0,0.0,0.0,0.0,0.0,0.0,0.0,0.0,0.0,0.0,0.0,0.0,0.0,0.0,0.0,0.0,0.0,0.0,0.0,0.0,0.0,0.0,0.0,0.0,0.0,0.0,0.0,0.0,0.0,0.0,0.0,0.0,0.0,0.0,0.0,0.0,0.0,0.0,0.0,0.0,0.0,0.0,0.0,0.0,0.0,0.0,0.0,0.0,0.0,0.0,0.0,0.0,0.0,0.0,0.0,0.0,0.0,0.0,0.0,0.0,0.0,0.0,0.0,0.0,0.0,0.0,0.0,0.0,0.0,0.0,0.0,0.0,0.0,0.0,0.0,0.0,0.0,0.0,0.0,0.0,0.0,0.0,0.0,0.0,0.0,0.0,0.0,0.0,0.0,0.0,0.0,0.0,0.0,0.0,0.0,0.0,0.0,0.0,0.0,0.0,0.0,0.0,0.0,0.0,0.0,0.0,0.0,0.0,0.0,0.0,0.0,0.0,0.0,0.0,0.0,0.0,0.0,0.0,0.0,0.0,0.0,0.0,0.0,0.0,0.0,0.0,0.0,0.0,0.0,0.0,0.0,0.0,0.0,0.0,0.0,0.0,0.0,0.0,0.0,0.0,0.0,0.0,0.0,0.0,0.0,0.0,0.0,0.0,0.0,0.0,0.0,0.0,0.0,0.0,0.0,0.0,0.0,0.0,0.0,0.0,0.0,0.0,0.0,0.0,0.0,0.0,0.0,0.0,0.0,0.0,0.0,0.0,0.0,0.0,0.0,0.0,0.0,0.0,0.0,0.0,0.0,0.0,0.0,0.0,0.0,0.0,0.0,0.0,0.0,0.0,0.0,0.0,0.0,0.0,0.0,0.0,0.0,0.0,0.0,0.0,0.0,0.0,0.0,0.0,0.0,0.0,0.0,0.0,0.0,0.0,0.0,0.0,0.0,0.0,0.0,0.0,0.0,0.0,0.0,0.0,0.0,0.0,0.0,0.0,0.0,0.0,0.0,0.0,0.0,0.0,0.0,0.0,0.0,0.0,0.0,0.0,0.0,0.0,0.0,0.0,0.0,0.0,0.0,0.0,0.0,0.0,0.0,0.0,0.0,0.0,0.0,0.0,0.0,0.0,0.0,0.0,0.0,0.0,0.0,0.0,0.0,0.0,0.0,0.0,0.0,0.0,0.0,0.0,0.0,0.0,0.0,0.0,0.0,0.0,0.0,0.0,0.0,0.0,0.0,0.0,0.0,0.0,0.0,0.0,0.0,0.0,0.0,0.0,0.0,0.0,0.0,0.0,0.0,0.0,0.0,0.0,0.0,0.0,0.0,0.0,0.0,0.0,0.0,0.0,0.0,0.0,0.0,0.0,0.0,0.0,0.0,0.0,0.0,0.0,0.0,0.0,0.0,0.0,0.0,0.0,0.0,0.0,0.0,0.0,0.0,0.0,0.0,0.0,0.0,0.0,0.0,0.0,0.0,0.0,0.0,0.0,0.0,0.0,0.0,0.0,0.0,0.0,0.0,0.0,0.0,0.0,0.0,0.0,0.0,0.0,0.0,0.0,0.0,0.0,0.0,0.0,0.0,0.0,0.0,0.0,0.0,0.0,0.0,0.0,0.0,0.0,0.0,0.0,0.0,0.0,0.0,0.0,0.0,0.0,0.0,0.0,0.0,0.0,0.0,0.0,0.0,0.0,0.0,0.0,0.0,0.0,0.0,0.0,0.0,0.0,0.0,0.0,0.0,0.0,0.0,0.0,0.0,0.0,0.0,0.0,0.0,0.0,0.0,0.0,0.0,0.0,0.0,0.0,0.0,0.0,0.0,0.0,0.0,0.0,0.0,0.0,0.0,0.0,0.0,0.0,0.0,0.0,0.0,0.0,0.0,0.0,0.0,0.0,0.0,0.0,0.0,0.0,0.0,0.0,0.0,0.0,0.0,0.0,0.0,0.0,0.0,0.0,0.0,0.0,0.0,0.0,0.0,0.0,0.0,0.0,0.0,0.0,0.0,0.0,0.0,0.0,0.0,0.0,0.0,0.0,0.0,0.0,0.0,0.0,0.0,0.0,0.0,0.0,0.0,0.0,0.0,0.0,0.0,0.0,0.0,-0.4678,0.0,0.0,0.0,0.0,0.0,0.0,0.0,0.0,0.0,0.0,0.0,0.0,0.0,0.0,0.0,0.0,0.0,0.0,0.0,0.0,0.0,0.0,0.0,0.0,0.0,0.0,0.0,0.0,0.0,0.0,0.0,0.0,0.0,0.0,0.0,0.0,0.0,0.0,0.0,0.0,0.0,0.0,0.0,0.0,0.0,0.0,0.0,0.0,0.0,0.0,0.0,0.0,0.0,0.0,0.0,0.0,0.0,0.0,0.0,0.0,0.0,0.0,0.0,0.0,0.0,0.0,0.0,0.0,0.0,0.0,0.0,0.0,0.0,0.0,0.0,0.0,0.0,0.0,0.0,0.0,0.0,0.0,0.0,0.0,0.0,0.0,0.0,0.0,0.0,0.0,0.0,0.0,0.0,0.0,0.0,0.0,0.0,0.0,0.0,0.0,0.0,0.0,0.0,0.0,0.0,0.0,0.0,0.0,0.0,0.0,0.0,0.0,-0.1544,-0.3038,-0.4561,0.0,0.0,0.0,0.0,0.0,0.0,0.0,0.0,0.0,0.0,0.0,0.0,0.0,0.0,0.0,0.0,0.0,0.0,0.0,0.0,0.0,0.0,0.0,0.0,0.0,0.0,0.0,0.0,0.0,0.0,0.0,0.0,0.0,0.0,0.0,0.0,0.0,0.0,0.0,0.0,0.0,0.0,0.0,0.0,0.0,0.0,0.0,0.0,0.0,0.0,0.0,0.0,0.0,0.0,0.0,0.0,0.0,0.0,0.0,0.0,0.0,0.0,0.0,0.0,0.0,0.0,0.0,0.0,0.0,0.0,0.0,0.0,0.0,0.0,0.0,0.0,0.0,0.0,0.0,0.0,0.0,0.0,0.0,0.0,0.0,0.0,0.0,0.0,0.0,0.0,0.0,0.0,0.0,0.0,0.0,0.0,0.0,0.0,0.0,0.0,0.0,0.0,0.0,0.0,0.0,0.0,0.0,0.0,0.0,0.0,0.0,0.0,-0.1403,-0.2896,-0.4562,0.0,0.0,0.0,0.0,0.0,0.0,0.0,0.0,0.0,0.0,0.0,0.0,0.0,0.0,0.0,0.0,0.0,0.0,0.0,0.0,0.0,0.0,0.0,0.0,0.0,0.0,0.0,0.0,0.0,0.0,0.0,0.0,0.0,0.0,0.0,0.0,0.0,0.0,0.0,0.0,0.0,0.0,0.0,0.0,0.0,0.0,0.0,0.0,0.0,0.0,0.0,0.0,0.0,0.0,0.0,0.0,0.0,0.0,0.0,0.0,0.0,0.0,0.0,0.0,0.0,0.0,0.0,0.0,0.0,0.0,0.0,0.0,0.0,0.0,0.0,0.0,0.0,0.0,0.0,0.0,0.0,0.0,0.0,0.0,0.0,0.0,0.0,0.0,0.0,0.0,0.0,0.0,0.0,0.0,0.0,0.0,0.0,0.0,0.0,0.0,0.0,0.0,0.0,0.0,0.0,0.0,0.0,0.0,0.0,0.0,0.0,0.0,-0.0868,0.0,-0.4746,0.0,0.0,0.0,0.0,0.0,0.0,0.0,0.0,0.0,0.0,0.0,0.0,0.0,0.0,0.0,0.0,0.0,0.0,0.0,0.0,0.0,0.0,0.0,0.0,0.0,0.0,0.0,0.0,0.0,0.0,0.0,0.0,0.0,0.0,0.0,0.0,0.0,0.0,0.0,0.0,0.0,0.0,0.0,0.0,0.0,0.0,0.0,0.0,0.0,0.0,0.0,0.0,0.0,0.0,0.0,0.0,0.0,0.0,0.0,0.0,0.0,0.0,0.0,0.0,0.0,0.0,0.0,0.0,0.0,0.0,0.0,0.0,0.0,0.0,0.0,0.0,0.0,0.0,0.0,0.0,0.0,0.0,0.0,0.0,0.0,0.0,0.0,0.0,0.0,0.0,0.0,0.0,0.0,0.0,0.0,0.0,0.0,0.0,0.0,0.0,0.0,0.0,0.0,0.0,0.0,0.0,0.0,0.0,0.0,0.0,0.0805,0.0816,-0.0316,-0.1892,0.0,0.0,0.0,0.0,0.0,0.0,0.0,0.0,0.0,0.0,0.0,0.0,0.0,0.0,0.0,0.0,0.0,0.0,0.0,0.0,0.0,0.0,0.0,0.0,0.0,0.0,0.0,0.0,0.0,0.0,0.0,0.0,0.0,0.0,0.0,0.0,0.0,0.0,0.0,0.0,0.0,0.0,0.0,0.0,0.0,0.0,0.0,0.0,0.0,0.0,0.0,0.0,0.0,0.0,0.0,0.0,0.0,0.0,0.0,0.0,0.0,0.0,0.0,0.0,0.0,0.0,0.0,0.0,0.0,0.0,0.0,0.0,0.0,0.0,0.0,0.0,0.0,0.0,0.0,0.0,0.0,0.0,0.0,0.0,0.0,0.0,0.0,0.0,0.0,0.0,0.0,0.0,0.0,0.0,0.0,0.0,0.0,0.0,0.0,0.0,0.0,0.0,0.0,0.0,0.0,0.0,0.0,0.0,0.0,0.0,0.1264,0.129,0.1308,0.0157,-0.12,-0.2718,0.0,0.0,0.0,0.0,0.0,0.0,0.0,0.0,0.0,0.0,0.0,0.0,0.0,0.0,0.0,0.0,0.0,0.0,0.0,0.0,0.0,0.0,0.0,0.0,0.0,0.0,0.0,0.0,0.0,0.0,0.0,0.0,0.0,0.0,0.0,0.0,0.0,0.0,0.0,0.0,0.0,0.0,0.0,0.0,0.0,0.0,0.0,0.0,0.0,0.0,0.0,0.0,0.0,0.0,0.0,0.0,0.0,0.0,0.0,0.0,0.0,0.0,0.0,0.0,0.0,0.0,0.0,0.0,0.0,0.0,0.0,0.0,0.0,0.0,0.0,0.0,0.0,0.0,0.0,0.0,0.0,0.0,0.0,0.0,0.0,0.0,0.0,0.0,0.0,0.0,0.0,0.0,0.0,0.0,0.0,0.0,0.0,0.0,0.0,0.0,0.0,0.0,0.0,0.0,0.0,0.0,0.0,0.0,0.1234,0.1265,0.128,0.1281,0.0541,-0.0446,0.0,0.0,0.0,0.0,0.0,0.0,0.0,0.0,0.0,0.0,0.0,0.0,0.0,0.0,0.0,0.0,0.0,0.0,0.0,0.0,0.0,0.0,0.0,0.0,0.0,0.0,0.0,0.0,0.0,0.0,0.0,0.0,0.0,0.0,0.0,0.0,0.0,0.0,0.0,0.0,0.0,0.0,0.0,0.0,0.0,0.0,0.0,0.0,0.0,0.0,0.0,0.0,0.0,0.0,0.0,0.0,0.0,0.0,0.0,0.0,0.0,0.0,0.0,0.0,0.0,0.0,0.0,0.0,0.0,0.0,0.0,0.0,0.0,0.0,0.0,0.0,0.0,0.0,0.0,0.0,0.0,0.0,0.0,0.0,0.0,0.0,0.0,0.0,0.0,0.0,0.0,0.0,0.0,0.0,0.0,0.0,0.0,0.0,0.0,0.0,0.0,0.0,0.0,0.0,0.0,0.0,0.0,0.0,0.0,0.2009,0.2084,0.2102,0.2057,0.1782,0.1121,0.0,0.0,0.0,0.0,0.0,0.0,0.0,0.0,0.0,0.0,0.0,0.0,0.0,0.0,0.0,0.0,0.0,0.0,0.0,0.0,0.0,0.0,0.0,0.0,0.0,0.0,0.0,0.0,0.0,0.0,0.0,0.0,0.0,0.0,0.0,0.0,0.0,0.0,0.0,0.0,0.0,0.0,0.0,0.0,0.0,0.0,0.0,0.0,0.0,0.0,0.0,0.0,0.0,0.0,0.0,0.0,0.0,0.0,0.0,0.0,0.0,0.0,0.0,0.0,0.0,0.0,0.0,0.0,0.0,0.0,0.0,0.0,0.0,0.0,0.0,0.0,0.0,0.0,0.0,0.0,0.0,0.0,0.0,0.0,0.0,0.0,0.0,0.0,0.0,0.0,0.0,0.0,0.0,0.0,0.0,0.0,0.0,0.0,0.0,0.0,0.0,0.0,0.0,0.0,0.0,0.0,0.0,0.0,0.0,0.25,0.0,0.2609,0.2532,0.248,0.1944,0.0,0.0,0.0,0.0,0.0,0.0,0.0,0.0,0.0,0.0,0.0,0.0,0.0,0.0,0.0,0.0,0.0,0.0,0.0,0.0,0.0,0.0,0.0,0.0,0.0,0.0,0.0,0.0,0.0,0.0,0.0,0.0,0.0,0.0,0.0,0.0,0.0,0.0,0.0,0.0,0.0,0.0,0.0,0.0,0.0,0.0,0.0,0.0,0.0,0.0,0.0,0.0,0.0,0.0,0.0,0.0,0.0,0.0,0.0,0.0,0.0,0.0,0.0,0.0,0.0,0.0,0.0,0.0,0.0,0.0,0.0,0.0,0.0,0.0,0.0,0.0,0.0,0.0,0.0,0.0,0.0,0.0,0.0,0.0,0.0,0.0,0.0,0.0,0.0,0.0,0.0,0.0,0.0,0.0,0.0,0.0,0.0,0.0,0.0,0.0,0.0,0.0,0.0,0.0,0.0,0.0,0.0,0.0,0.247,0.2557,0.2617,0.262,0.256,0.2473,0.1935,0.0,0.0,0.0,0.0,0.0,0.0,0.0,0.0,0.0,0.0,0.0,0.0,0.0,0.0,0.0,0.0,0.0,0.0,0.0,0.0,0.0,0.0,0.0,0.0,0.0,0.0,0.0,0.0,0.0,0.0,0.0,0.0,0.0,0.0,0.0,0.0,0.0,0.0,0.0,0.0,0.0,0.0,0.0,0.0,0.0,0.0,0.0,0.0,0.0,0.0,0.0,0.0,0.0,0.0,0.0,0.0,0.0,0.0,0.0,0.0,0.0,0.0,0.0,0.0,0.0,0.0,0.0,0.0,0.0,0.0,0.0,0.0,0.0,0.0,0.0,0.0,0.0,0.0,0.0,0.0,0.0,0.0,0.0,0.0,0.0,0.0,0.0,0.0,0.0,0.0,0.0,0.0,0.0,0.0,0.0,0.0,0.0,0.0,0.0,0.0,0.0,0.0,0.0,0.0,0.0,0.0,0.0,0.0,0.0,0.2589,0.2647,0.2641,0.2562,0.2492,0.2168,0.0,0.0,0.0,0.0,0.0,0.0,0.0,0.0,0.0,0.0,0.0,0.0,0.0,0.0,0.0,0.0,0.0,0.0,0.0,0.0,0.0,0.0,0.0,0.0,0.0,0.0,0.0,0.0,0.0,0.0,0.0,0.0,0.0,0.0,0.0,0.0,0.0,0.0,0.0,0.0,0.0,0.0,0.0,0.0,0.0,0.0,0.0,0.0,0.0,0.0,0.0,0.0,0.0,0.0,0.0,0.0,0.0,0.0,0.0,0.0,0.0,0.0,0.0,0.0,0.0,0.0,0.0,0.0,0.0,0.0,0.0,0.0,0.0,0.0,0.0,0.0,0.0,0.0,0.0,0.0,0.0,0.0,0.0,0.0,0.0,0.0,0.0,0.0,0.0,0.0,0.0,0.0,0.0,0.0,0.0,0.0,0.0,0.0,0.0,0.0,0.0,0.0,0.0,0.0,0.0,0.0,0.0,0.0,0.0,0.2669,0.2729,0.2717,0.2628,0.2547,0.2285,0.1796,0.0,0.0,0.0,0.0,0.0,0.0,0.0,0.0,0.0,0.0,0.0,0.0,0.0,0.0,0.0,0.0,0.0,0.0,0.0,0.0,0.0,0.0,0.0,0.0,0.0,0.0,0.0,0.0,0.0,0.0,0.0,0.0,0.0,0.0,0.0,0.0,0.0,0.0,0.0,0.0,0.0,0.0,0.0,0.0,0.0,0.0,0.0,0.0,0.0,0.0,0.0,0.0,0.0,0.0,0.0,0.0,0.0,0.0,0.0,0.0,0.0,0.0,0.0,0.0,0.0,0.0,0.0,0.0,0.0,0.0,0.0,0.0,0.0,0.0,0.0,0.0,0.0,0.0,0.0,0.0,0.0,0.0,0.0,0.0,0.0,0.0,0.0,0.0,0.0,0.0,0.0,0.0,0.0,0.0,0.0,0.0,0.0,0.0,0.0,0.0,0.0,0.0,0.0,0.0,0.0,0.0,0.0,0.0,0.2788,0.2851,0.2838,0.2743,0.2628,0.2352,0.0,0.0,0.0,0.0,0.0,0.0,0.0,0.0,0.0,0.0,0.0,0.0,0.0,0.0,0.0,0.0,0.0,0.0,0.0,0.0,0.0,0.0,0.0,0.0,0.0,0.0,0.0,0.0,0.0,0.0,0.0,0.0,0.0,0.0,0.0,0.0,0.0,0.0,0.0,0.0,0.0,0.0,0.0,0.0,0.0,0.0,0.0,0.0,0.0,0.0,0.0,0.0,0.0,0.0,0.0,0.0,0.0,0.0,0.0,0.0,0.0,0.0,0.0,0.0,0.0,0.0,0.0,0.0,0.0,0.0,0.0,0.0,0.0,0.0,0.0,0.0,0.0,0.0,0.0,0.0,0.0,0.0,0.0,0.0,0.0,0.0,0.0,0.0,0.0,0.0,0.0,0.0,0.0,0.0,0.0,0.0,0.0,0.0,0.0,0.0,0.0,0.0,0.0,0.0,0.0,0.0,0.0,0.0,0.0,0.2848,0.2951,0.2942,0.281,0.2709,0.25,0.0,0.0,0.0,0.0,0.0,0.0,0.0,0.0,0.0,0.0,0.0,0.0,0.0,0.0,0.0,0.0,0.0,0.0,0.0,0.0,0.0,0.0,0.0,0.0,0.0,0.0,0.0,0.0,0.0,0.0,0.0,0.0,0.0,0.0,0.0,0.0,0.0,0.0,0.0,0.0,0.0,0.0,0.0,0.0,0.0,0.0,0.0,0.0,0.0,0.0,0.0,0.0,0.0,0.0,0.0,0.0,0.0,0.0,0.0,0.0,0.0,0.0,0.0,0.0,0.0,0.0,0.0,0.0,0.0,0.0,0.0,0.0,0.0,0.0,0.0,0.0,0.0,0.0,0.0,0.0,0.0,0.0,0.0,0.0,0.0,0.0,0.0,0.0,0.0,0.0,0.0,0.0,0.0,0.0,0.0,0.0,0.0,0.0,0.0,0.0,0.0,0.0,0.0,0.0,0.0,0.0,0.0,0.0,0.2751,0.2872,0.3016,0.3031,0.2906,0.2778,0.2632,0.0,0.0,0.0,0.0,0.0,0.0,0.0,0.0,0.0,0.0,0.0,0.0,0.0,0.0,0.0,0.0,0.0,0.0,0.0,0.0,0.0,0.0,0.0,0.0,0.0,0.0,0.0,0.0,0.0,0.0,0.0,0.0,0.0,0.0,0.0,0.0,0.0,0.0,0.0,0.0,0.0,0.0,0.0,0.0,0.0,0.0,0.0,0.0,0.0,0.0,0.0,0.0,0.0,0.0,0.0,0.0,0.0,0.0,0.0,0.0,0.0,0.0,0.0,0.0,0.0,0.0,0.0,0.0,0.0,0.0,0.0,0.0,0.0,0.0,0.0,0.0,0.0,0.0,0.0,0.0,0.0,0.0,0.0,0.0,0.0,0.0,0.0,0.0,0.0,0.0,0.0,0.0,0.0,0.0,0.0,0.0,0.0,0.0,0.0,0.0,0.0,0.0,0.0,0.0,0.0,0.0,0.0,0.0,0.2754,0.2872,0.3044,0.3093,0.3006,0.2841,0.2682,0.0,0.0,0.0,0.0,0.0,0.0,0.0,0.0,0.0,0.0,0.0,0.0,0.0,0.0,0.0,0.0,0.0,0.0,0.0,0.0,0.0,0.0,0.0,0.0,0.0,0.0,0.0,0.0,0.0,0.0,0.0,0.0,0.0,0.0,0.0,0.0,0.0,0.0,0.0,0.0,0.0,0.0,0.0,0.0,0.0,0.0,0.0,0.0,0.0,0.0,0.0,0.0,0.0,0.0,0.0,0.0,0.0,0.0,0.0,0.0,0.0,0.0,0.0,0.0,0.0,0.0,0.0,0.0,0.0,0.0,0.0,0.0,0.0,0.0,0.0,0.0,0.0,0.0,0.0,0.0,0.0,0.0,0.0,0.0,0.0,0.0,0.0,0.0,0.0,0.0,0.0,0.0,0.0,0.0,0.0,0.0,0.0,0.0,0.0,0.0,0.0,0.0,0.0,0.0,0.0,0.0,0.0,0.0,0.2776,0.2872,0.3003,0.3051,0.3007,0.2902,0.2773,0.0,0.0,0.0,0.0,0.0,0.0,0.0,0.0,0.0,0.0,0.0,0.0,0.0,0.0,0.0,0.0,0.0,0.0,0.0,0.0,0.0,0.0,0.0,0.0,0.0,0.0,0.0,0.0,0.0,0.0,0.0,0.0,0.0,0.0,0.0,0.0,0.0,0.0,0.0,0.0,0.0,0.0,0.0,0.0,0.0,0.0,0.0,0.0,0.2278,0.0,0.0,0.0,0.0,0.0,0.0,0.0,0.0,0.0,0.0,0.0,0.0,0.0,0.0,0.0,0.0,0.0,0.0,0.0,0.0,0.0,0.0,0.0,0.0,0.0,0.0,0.0,0.0,0.0,0.0,0.0,0.0,0.0,0.0,0.0,0.0,0.0,0.0,0.0,0.0,0.0,0.0,0.0,0.0,0.0,0.0,0.0,0.0,0.0,0.0,0.0,0.0,0.0,0.0,0.0,0.0,0.0,0.0,0.0,0.2825,0.2915,0.3047,0.3095,0.305,0.2962,0.283,0.0,0.0,0.0,0.0,0.0,0.0,0.0,0.0,0.0,0.0,0.0,0.0,0.0,0.0,0.0,0.0,0.0,0.0,0.0,0.0,0.0,0.0,0.0,0.0,0.0,0.0,0.0,0.0,0.0,0.0,0.0,0.0,0.0,0.0,0.0,0.0,0.0,0.0,0.0,0.0,0.0,0.0,0.0,0.0,0.0,0.0,0.0,0.0,0.0,0.0,0.0,0.0,0.0,0.0,0.0,0.0,0.0,0.0,0.0,0.0,0.0,0.0,0.0,0.0,0.0,0.0,0.0,0.0,0.0,0.0,0.0,0.0,0.0,0.0,0.0,0.0,0.0,0.0,0.0,0.0,0.0,0.0,0.0,0.0,0.0,0.0,0.0,0.0,0.0,0.0,0.0,0.0,0.0,0.0,0.0,0.0,0.0,0.0,0.0,0.0,0.0,0.0,0.0,0.0,0.0,0.0,0.0,0.307,0.3308,0.3409,0.3575,0.3532,0.3469,0.3265,0.3019,0.2729,0.0,0.0,0.0,0.0,0.0,0.0,0.0,0.0,0.0,0.0,0.0,0.0,0.0,0.0,0.0,0.0,0.0,0.0,0.0,0.0,0.0,0.0,0.0,0.0,0.0,0.0,0.0,0.0,0.0,0.0,0.0,0.0,0.0,0.0,0.0,0.0,0.0,0.0,0.2299,0.2409,0.0,0.0,0.0,0.0,0.0,0.0,0.0,0.0,0.2463,0.0,0.0,0.0,0.0,0.0,0.0,0.0,0.0,0.0,0.0,0.0,0.0,0.0,0.0,0.0,0.0,0.0,0.0,0.0,0.0,0.0,0.0,0.0,0.0,0.0,0.0,0.0,0.0,0.0,0.0,0.0,0.0,0.0,0.0,0.0,0.0,0.0,0.0,0.0,0.0,0.0,0.0,0.0,0.0,0.0,0.0,0.0,0.0,0.0,0.0,0.0,0.0,0.0,0.0,0.0,0.0,0.4095,0.4803,0.5198,0.5228,0.5545,0.5347,0.4905,0.4326,0.3778,0.3185,0.0,0.0,0.0,0.0,0.0,0.0,0.0,0.0,0.0,0.0,0.0,0.0,0.0,0.0,0.0,0.0,0.0,0.0,0.0,0.0,0.0,0.0,0.0,0.0,0.0,0.0,0.0,0.0,0.0,0.0,0.0,0.0,0.0,0.0,0.0,0.0,0.0,0.0,0.0,0.3175,0.3625,0.0,0.0,0.0,0.0,0.0,0.0,0.0,0.0,0.3076,0.0,0.0,0.0,0.0,0.0,0.0,0.0,0.0,0.0,0.0,0.0,0.0,0.0,0.0,0.0,0.0,0.0,0.0,0.0,0.0,0.0,0.0,0.0,0.0,0.0,0.0,0.0,0.0,0.0,0.0,0.0,0.0,0.0,0.0,0.0,0.0,0.0,0.0,0.0,0.0,0.0,0.0,0.0,0.0,0.0,0.0,0.0,0.0,0.0,0.0,0.0,0.0,0.0,0.0,0.0,0.5513,0.6489,0.7129,0.7275,0.7403,0.7052,0.6144,0.5371,0.4446,0.0,0.0,0.0,0.0,0.0,0.0,0.0,0.0,0.0,0.0,0.0,0.0,0.0,0.0,0.0,0.0,0.0,0.0,0.0,0.0,0.0,0.0,0.0,0.0,0.0,0.0,0.0,0.0,0.0,0.0,0.0,0.0,0.0,0.0,0.0,0.0,0.0,0.0,0.0,0.0,0.3991,0.4721,0.5245,0.0,0.0,0.0,0.0,0.0,0.0,0.4365,0.3842,0.0,0.0,0.0,0.0,0.0,0.0,0.0,0.0,0.0,0.0,0.0,0.0,0.0,0.0,0.0,0.0,0.0,0.0,0.0,0.0,0.0,0.0,0.0,0.0,0.0,0.0,0.0,0.0,0.0,0.0,0.0,0.0,0.0,0.0,0.0,0.0,0.0,0.0,0.0,0.0,0.0,0.0,0.0,0.0,0.0,0.0,0.0,0.0,0.0,0.0,0.0,0.0,0.0,0.0,0.0,0.6985,0.8252,0.9054,0.9226,0.9334,0.8817,0.7506,0.6633,0.5417,0.0,0.0,0.0,0.0,0.0,0.0,0.0,0.0,0.0,0.0,0.0,0.0,0.0,0.0,0.0,0.0,0.0,0.0,0.0,0.0,0.0,0.0,0.0,0.0,0.0,0.0,0.0,0.0,0.0,0.0,0.0,0.0,0.0,0.0,0.0,0.0,0.0,0.0,0.0,0.0,0.0,0.5971,0.6596,0.7285,0.0,0.0,0.0,0.0,0.6272,0.5628,0.0,0.0,0.0,0.0,0.0,0.0,0.0,0.0,0.0,0.0,0.0,0.0,0.0,0.0,0.0,0.0,0.0,0.0,0.0,0.0,0.0,0.0,0.0,0.0,0.0,0.0,0.0,0.0,0.0,0.0,0.0,0.0,0.0,0.0,0.0,0.0,0.0,0.0,0.0,0.0,0.0,0.0,0.0,0.0,0.0,0.0,0.0,0.0,0.0,0.0,0.0,0.0,0.0,0.0,0.0,0.0,0.8442,0.9956,1.0846,1.0895,1.1214,1.076,0.9541,0.8395,0.7024,0.0,0.0,0.0,0.0,0.0,0.0,0.0,0.0,0.0,0.0,0.0,0.0,0.0,0.0,0.0,0.0,0.0,0.0,0.0,0.0,0.0,0.0,0.0,0.0,0.0,0.0,0.0,0.0,0.0,0.0,0.0,0.0,0.0,0.0,0.0,0.0,0.0,0.0,0.0,0.0,0.0,0.7578,0.8202,0.8945,0.9356,0.0,0.0,0.849,0.7757,0.7109,0.0,0.0,0.0,0.0,0.0,0.0,0.0,0.0,0.0,0.0,0.0,0.0,0.0,0.0,0.0,0.0,0.0,0.0,0.0,0.0,0.0,0.0,0.0,0.0,0.0,0.0,0.0,0.0,0.0,0.0,0.0,0.0,0.0,0.0,0.0,0.0,0.0,0.0,0.0,0.0,0.0,0.0,0.0,0.0,0.0,0.0,0.0,0.0,0.0,0.0,0.0,0.0,0.0,0.0,0.0,0.9139,1.0252,1.1706,1.2588,1.2638,1.281,1.2271,1.1126,1.0064,0.858,0.0,0.0,0.0,0.0,0.0,0.0,0.0,0.0,0.0,0.0,0.0,0.0,0.0,0.0,0.0,0.0,0.0,0.0,0.0,0.0,0.0,0.0,0.0,0.0,0.0,0.0,0.0,0.0,0.0,0.0,0.0,0.0,0.0,0.0,0.0,0.0,0.0,0.0,0.0,0.0,0.0,0.0,0.9894,1.0691,0.0,0.0,0.0,1.0347,0.9708,0.0,0.0,0.0,0.0,0.0,0.0,0.0,0.0,0.0,0.0,0.0,0.0,0.0,0.0,0.0,0.0,0.0,0.0,0.0,0.0,0.0,0.0,0.0,0.0,0.0,0.0,0.0,0.0,0.0,0.0,0.0,0.0,0.0,0.0,0.0,0.0,0.0,0.0,0.0,0.0,0.0,0.0,0.0,0.0,0.0,0.0,0.0,0.0,0.0,0.0,0.0,0.0,0.0,0.0,0.0,0.0,0.0,1.1395,1.2847,1.3641,1.3698,1.3824,1.329,1.2206,1.1358,0.0,0.0,0.0,0.0,0.0,0.0,0.0,0.0,0.0,0.0,0.0,0.0,0.0,0.0,0.0,0.0,0.0,0.0,0.0,0.0,0.0,0.0,0.0,0.0,0.0,0.0,0.0,0.1859,0.0,0.0,0.0,0.0,0.0,0.0,0.0,0.0,0.0,0.0,0.0,0.0,0.0,0.0,1.0398,1.1063,1.1919,1.2447,0.0,0.0,1.1577,1.1095,1.0467,0.9657,0.0,0.0,0.0,0.0,0.0,0.0,0.0,0.0,0.0,0.0,0.0,0.0,0.0,0.0,0.0,0.0,0.0,0.0,0.0,0.0,0.0,0.0,0.0,0.0,0.0,0.0,0.0,0.0,0.0,0.0,0.0,0.0,0.0,0.0,0.0,0.0,0.0,0.0,0.0,0.0,0.0,0.0,0.0,0.0,0.0,0.0,0.0,0.0,0.0,0.0,0.0,0.0,0.0,0.0,1.0643,1.1495,1.2722,1.3485,1.3641,1.377,1.3374,1.2615,1.1924,1.075,0.0,0.0,0.0,0.0,0.0,0.0,0.0,0.0,0.0,0.0,0.0,0.0,0.0,0.0,0.0,0.0,0.0,0.0,0.0,0.0,0.0,0.0,0.0,0.0,0.0,0.0,0.0,0.0,0.0,0.0,0.0,0.0,0.0,0.0,0.0,0.0,0.0,0.0,0.0,0.0,0.0,1.0946,1.1382,1.2089,1.2454,0.0,1.2033,1.169,1.1337,1.085,1.0143,0.9294,0.0,0.0,0.0,0.0,0.0,0.0,0.0,0.0,0.0,0.0,0.0,0.0,0.0,0.0,0.0,0.0,0.0,0.0,0.0,0.0,0.0,0.0,0.0,0.0,0.0,0.0,0.0,0.0,0.0,0.0,0.0,0.0,0.0,0.0,0.0,0.0,0.0,0.0,0.0,0.0,0.0,0.0,0.0,0.0,0.0,0.0,0.0,0.0,0.0,0.0,0.0,0.0,0.0,1.1063,1.1697,1.264,1.3159,1.322,1.3268,1.3132,1.2889,1.2516,1.153,0.0,0.0,0.0,0.0,0.0,0.0,0.0,0.0,0.0,0.0,0.0,0.0,0.0,0.0,0.0,0.0,0.0,0.0,0.0,0.0,0.0,0.0,0.0,0.0,0.0,0.0,0.0,0.0,0.3698,0.4532,0.5487,0.0,0.0,0.0,0.0,0.0,0.0,0.0,0.0,0.0,0.0,1.1497,1.1803,1.2316,0.0,0.0,1.2318,1.2141,1.1978,1.1536,1.1071,1.0522,0.9791,0.0,0.0,0.0,0.0,0.0,0.0,0.0,0.0,0.0,0.0,0.0,0.0,0.0,0.0,0.0,0.0,0.0,0.0,0.0,0.0,0.0,0.0,0.0,0.0,0.0,0.0,0.0,0.0,0.0,0.0,0.0,0.0,0.0,0.0,0.0,0.0,0.0,0.0,0.0,0.0,0.0,0.0,0.0,0.0,0.0,0.0,0.0,0.0,0.0,0.0,0.0,0.0,1.1274,1.1762,1.2508,1.2915,1.3043,1.3043,1.2942,1.2895,1.2786,1.2073,0.0,0.0,0.0,0.0,0.0,0.0,0.0,0.0,0.0,0.0,0.0,0.0,0.0,0.0,0.0,0.0,0.0,0.0,0.0,0.0,0.0,0.0,0.0,0.0,0.0,0.0,0.0,0.0,0.5163,0.6017,0.7064,0.0,0.0,0.0,0.0,0.0,0.0,0.0,0.0,0.0,0.0,1.1708,1.1959,1.2338,1.2542,1.2393,1.2332,1.2264,1.2169,1.1857,1.1511,1.1151,0.0,0.0,0.0,0.0,0.0,0.0,0.0,0.0,0.0,0.0,0.0,0.0,0.0,0.0,0.0,0.0,0.0,0.0,0.0,0.0,0.0,0.0,0.0,0.0,0.0,0.0,0.0,1.0826,0.0,0.0,1.0611,0.0,0.0,0.0,0.0,0.0,0.0,0.0,0.0,0.0,0.0,0.0,0.0,0.0,0.0,0.0,0.0,0.0,0.0,0.0,0.0,0.0,0.0,1.1023,1.1619,1.2352,1.28,1.2942,1.2956,1.2881,1.2739,1.2725,1.2143,1.1116,0.0,0.0,0.0,0.0,0.0,0.0,0.0,0.0,0.0,0.0,0.0,0.0,0.0,0.0,0.0,0.0,0.0,0.0,0.0,0.0,0.0,0.0,0.0,0.0,0.0,0.0,0.5888,0.6748,0.7522,0.0,0.0,0.0,0.0,0.0,0.0,0.0,0.0,0.0,1.0337,1.1118,1.1667,1.1816,1.2101,1.225,1.2176,1.1952,1.185,1.185,1.147,1.1124,0.0,0.0,0.0,0.0,0.0,0.0,0.0,0.0,0.0,0.0,0.0,0.0,0.0,0.0,0.0,0.0,0.0,0.0,0.0,0.0,0.0,0.0,0.0,0.0,0.0,0.0,0.0,1.1721,1.1531,0.0,0.0,0.0,0.0,0.0,0.0,0.0,0.0,0.0,0.0,0.0,1.1837,1.1782,0.0,0.0,0.0,0.0,0.0,0.0,0.0,0.0,0.0,0.0,0.0,0.0,1.0812,1.1321,1.206,1.2467,1.2515,1.2515,1.2535,1.2576,1.2488,1.2006,1.1194,0.0,0.0,0.0,0.0,0.0,0.0,0.0,0.0,0.0,0.0,0.0,0.0,0.0,0.0,0.0,0.0,0.0,0.0,0.0,0.0,0.0,0.0,0.0,0.0,0.0,0.7281,0.0,0.0,0.0,0.0,0.0,0.0,0.0,0.0,0.0,0.0,0.0,1.0022,1.0665,1.1264,1.1667,1.1809,1.2006,1.2121,0.0,0.0,0.0,0.0,0.0,0.0,0.0,0.0,0.0,0.0,0.0,0.0,0.0,0.0,0.9961,0.9166,0.8893,0.8737,0.8284,0.0,0.0,0.0,0.0,0.0,0.0,0.0,0.0,0.0,0.0,0.0,0.0,0.0,0.0,1.2237,0.0,1.1884,0.0,0.0,0.0,0.0,0.0,0.0,0.0,0.0,1.2501,1.2583,1.2447,1.24,1.225,0.0,1.1952,1.164,0.0,0.0,0.0,0.0,0.0,0.0,0.0,0.0,1.0765,1.1179,1.1904,1.2264,1.2216,1.2257,1.2311,1.2345,1.2155,1.1775,1.1179,1.05,0.9944,0.0,0.0,0.0,0.0,0.0,0.0,0.0,0.0,0.0,0.0,0.0,0.0,0.0,0.0,0.0,0.0,0.0,0.0,0.0,0.0,0.0,0.0,0.0,0.8546,0.0,0.0,0.0,0.0,0.0,0.0,0.0,0.0,0.0,0.9754,1.0107,1.0521,1.0968,1.1369,1.1653,1.1748,0.0,0.0,0.0,0.0,0.0,0.0,0.0,1.1262,1.1172,1.0729,1.0466,1.0568,1.0663,1.0792,1.0989,0.0,0.0,1.0175,0.9909,0.9729,0.9481,0.9671,0.9937,1.0098,1.0243,1.032,0.0,0.0,0.0,0.0,0.0,0.0,0.0,0.0,1.2691,1.2752,0.0,1.2291,0.0,0.0,0.0,0.0,1.1423,1.1721,0.0,0.0,1.2895,1.3125,1.3146,1.301,1.2874,1.2725,1.2556,1.2257,1.1716,1.0948,0.0,0.0,0.0,0.0,0.0,0.0,1.086,1.1234,1.1884,1.2203,1.2067,1.2196,1.2203,1.2135,1.1782,1.1497,1.1248,1.0622,1.0161,0.9849,0.9422,0.0,0.0,0.0,0.0,0.0,0.0,0.0,0.0,0.0,0.0,0.0,0.0,0.0,0.0,0.0,0.0,0.0,0.0,0.0,0.0,0.9435,0.0,0.0,0.0,0.0,0.0,0.0,0.0,0.0,0.0,0.0,1.0046,1.0324,1.067,1.1111,0.0,0.0,0.0,0.0,1.1921,1.2151,1.2273,1.2409,1.2745,1.215,1.1679,1.1958,0.0,0.0,1.1118,1.1227,1.122,1.1234,1.1145,1.1227,1.1138,1.0826,1.0688,1.0721,1.0721,1.0876,1.1051,1.1132,1.1236,1.3973,0.0,0.0,0.0,0.0,1.3125,1.318,1.3146,1.3186,1.3214,1.3186,1.2854,0.0,0.0,0.0,0.0,0.0,0.0,1.2461,1.2745,1.3105,1.3241,1.3166,1.3024,1.2881,1.2725,1.2576,1.2271,1.183,1.147,1.0955,1.0297,0.0,0.0,0.0,0.0,1.0704,1.1029,1.164,1.1945,1.1898,1.1938,1.1938,1.1898,1.1816,1.1681,1.1491,1.1016,1.0616,1.031,0.9869,0.0,0.0,0.0,0.0,0.0,0.0,0.0,0.0,0.0,0.0,0.0,0.0,0.0,0.0,0.0,0.0,0.0,0.0,0.0,0.9612,0.9618,0.9591,0.0,0.0,0.0,0.0,0.0,0.0,0.0,0.0,0.0,1.0678,1.0761,1.0948,0.0,0.0,1.1619,1.1619,1.1653,1.1811,1.2129,1.2896,0.0,1.3013,1.3083,1.2835,1.2343,1.153,1.1097,1.1294,1.1233,1.1234,1.1227,1.1084,1.1009,1.1002,1.088,1.0912,1.0904,1.1034,1.1192,1.1377,1.1588,1.1568,1.457,1.4143,1.3871,1.3668,1.3553,1.3756,1.3844,1.3844,1.3844,1.3871,1.3899,1.3492,1.3091,1.2705,1.2264,0.0,0.0,0.0,1.2617,1.2834,1.3159,1.3295,1.3254,1.3112,1.2969,1.2813,1.2603,1.2332,1.2006,1.1803,1.145,1.0934,0.0,0.0,1.0253,1.0555,1.0792,1.1043,1.1558,1.1803,1.1748,1.1748,1.1676,1.1748,1.176,1.1801,1.1649,1.1405,1.1077,1.0695,1.0253,0.9792,0.0,0.0,0.0,0.0,0.0,0.0,0.0,0.0,0.0,0.0,0.0,0.852,0.8615,0.0,0.0,0.0,0.9083,0.9435,0.9788,0.9747,0.0,0.0,0.0,0.0,0.0,0.0,0.0,1.0066,1.0378,1.074,1.1125,1.1495,1.1772,1.1754,1.191,1.2043,1.2043,0.0,1.233,1.3047,1.3817,1.4344,1.4314,1.4221,1.3694,1.2498,1.1924,1.16,1.1692,1.1635,1.1558,1.1495,1.1546,1.1528,1.1471,1.1481,1.1468,1.133,1.1381,1.1585,1.1885,1.2068,1.2061,1.4984,1.495,1.4543,1.4278,1.415,1.4414,1.4529,1.4529,1.4509,1.459,1.4588,1.4116,1.3688,1.3349,1.2501,0.0,1.2352,1.2494,1.2712,1.2983,1.3125,1.3254,1.337,1.3227,1.3078,1.2935,1.2644,1.2427,1.2277,1.1993,1.1775,1.1619,1.0921,1.0629,1.0758,1.0894,1.1029,1.1234,1.1579,1.1728,1.1586,1.1586,1.1586,1.1586,1.1797,1.1867,1.1855,1.1829,1.1658,1.1171,1.0724,1.0219,0.9705,0.0,0.0,0.0,0.0,0.0,0.0,0.0,0.0,0.0,0.0,0.0,0.0,0.0,0.0,0.8554,0.8995,0.0,0.9795,0.9781,0.0,0.0,0.0,0.9768,1.0101,1.0142,1.0251,1.0524,0.0,0.0,1.1589,1.2471,1.2998,1.2635,1.2873,1.3024,1.3031,1.3095,1.3436,1.4495,1.4982,1.5468,1.5985,1.5505,1.4501,1.3041,1.246,1.2506,1.2506,1.2483,1.2361,1.2367,1.2456,1.2653,1.2568,1.2605,1.2459,1.2015,1.1922,1.2015,1.2379,1.254,1.2419,1.5133,1.512,1.5018,1.4821,1.459,1.4658,1.4685,1.4679,1.4563,1.4529,1.4536,1.4177,1.379,1.337,1.282,1.2657,1.2807,1.2949,1.3051,1.3213,1.3275,1.3302,1.322,1.3078,1.2929,1.2779,1.2596,1.2433,1.2284,1.2101,1.1932,1.1769,1.1375,1.1138,1.1063,1.1097,1.1131,1.1234,1.1382,1.1423,1.128,1.1274,1.1267,1.1274,1.158,1.2091,1.2864,1.2541,1.2401,1.2472,1.1611,1.0717,1.0012,0.9617,0.0,0.0,0.0,0.0,0.0,0.0,0.0,0.0,0.0,0.8581,0.8811,0.0,0.8927,0.0,0.9367,0.9639,0.9903,0.993,0.0,0.0,1.0141,1.0148,1.0222,1.0324,1.0541,1.0869,1.1016,1.1527,1.2815,1.3461,1.4098,1.4773,1.4964,1.5052,1.5256,1.5158,1.5208,1.5756,1.6471,1.6977,1.6861,1.646,1.5719,1.4719,1.4449,1.441,1.441,1.4361,1.4244,1.42,1.4056,1.4078,1.429,1.387,1.3383,1.3219,1.2673,1.2227,1.2377,1.2369,1.2312,1.5838,1.5838,1.5838,1.5738,1.5583,1.5121,1.4903,1.4828,1.4679,1.4577,1.4489,1.4129,1.3831,1.3573,1.32,1.3078,1.3159,1.3241,1.3275,1.3275,1.3288,1.3254,1.3166,1.2956,1.2813,1.2725,1.2576,1.2427,1.2291,1.2135,1.1979,1.183,1.1606,1.145,1.1362,1.1233,1.1303,1.1441,1.1664,1.1733,1.1648,1.1648,1.1613,1.1549,1.209,1.2681,1.3328,1.3284,1.3183,1.3036,1.2306,1.1409,1.0443,0.9999,0.961,0.0,0.0,0.0,0.0,0.0,0.0,0.0,0.0,0.0,0.0,0.0,0.9232,0.9462,0.9618,0.9802,0.9963,1.0105,1.0276,1.0365,1.0432,1.048,1.048,1.0548,1.0719,1.1054,1.1585,1.2363,1.3481,1.4678,1.5705,1.6552,1.7103,1.713,1.6432,1.6176,1.6255,1.6803,1.7438,1.7825,1.7634,1.7202,1.6593,1.5913,1.5604,1.5505,1.5342,1.5235,1.5193,1.5096,1.5042,1.5143,1.5458,1.5037,1.4589,1.4385,1.3834,1.3084,1.2353,1.2182,1.2134,1.7234,1.7234,1.7211,1.7196,1.7103,1.6248,1.5617,1.5142,1.497,1.4805,1.4634,1.4208,1.4016,1.3988,1.37,1.3562,1.3562,1.3562,1.3556,1.3528,1.3398,1.3234,1.3186,1.2847,1.2718,1.2698,1.2549,1.2413,1.2291,1.2115,1.1965,1.1903,1.176,1.1685,1.1722,1.1447,1.1496,1.1888,1.2209,1.2392,1.2505,1.2505,1.2429,1.2268,1.2972,1.3457,1.3706,1.4131,1.4163,1.3564,1.3102,1.2306,1.1216,1.0832,1.0486,0.0,0.9969,0.0,0.0,0.0,0.0,0.0,0.0,0.0,0.0,0.9463,0.9607,0.9744,0.9889,1.0033,1.0128,1.0452,1.063,1.0651,1.0774,1.085,1.085,1.085,1.0982,1.1446,1.2363,1.321,1.4202,1.5879,1.7271,1.785,1.8626,1.8653,1.7304,1.6964,1.7255,1.7803,1.8106,1.8361,1.8295,1.7962,1.7423,1.6713,1.6491,1.6283,1.6065,1.6034,1.5898,1.5732,1.5908,1.6124,1.6484,1.6298,1.6024,1.575,1.5191,1.43,1.2812,1.2303,1.2184,2.0288,2.027,2.0006,1.9934,1.9924,1.9499,1.8151,1.6143,1.5767,1.5638,1.5462,1.5118,1.4964,1.4934,1.4612,1.4465,1.4465,1.4473,1.4399,1.4282,1.3838,1.3528,1.3296,1.291,1.2664,1.2542,1.24,1.2318,1.2284,1.2006,1.2004,1.2269,1.2121,1.213,1.2277,0.0,0.0,0.0,1.2994,1.3367,1.4059,1.405,1.3951,1.3707,1.4105,0.0,1.5289,1.5412,1.5401,1.5278,1.4729,0.0,0.0,0.0,0.0,0.0,0.0,0.0,0.0,0.0,0.0,0.0,0.9657,0.9929,0.9936,1.0309,1.053,1.0567,1.0713,1.0875,1.1043,1.1291,1.1453,1.152,1.1563,1.1578,1.1585,1.1578,1.1975,1.289,1.3416,1.4268,1.5759,1.6861,1.7658,1.8383,1.8835,1.904,1.8635,1.8692,1.894,1.9125,1.8906,1.8906,1.8959,1.8782,1.8472,1.8308,1.8226,1.8022,1.7727,1.7681,1.7731,1.7588,1.7619,1.7648,1.8118,1.7732,1.715,1.7115,1.6537,1.558,1.3791,1.3379,1.3324,2.1801,2.1592,2.1485,2.1378,0.0,2.0967,2.0144,1.8888,1.8241,1.7819,1.7541,1.7272,1.7104,1.7003,1.6717,1.6673,1.6582,1.6498,1.6162,1.5675,1.4857,1.4219,1.3583,1.2885,1.2542,1.24,1.2325,1.221,1.206,1.1904,1.1942,1.2308,1.2644,1.2942,1.3278,1.3694,1.373,1.341,1.4041,1.4549,1.4983,1.5037,1.4881,1.4508,1.5002,0.0,0.0,0.0,0.0,0.0,0.0,0.0,0.0,0.0,0.0,1.3295,1.2736,1.2037,1.1227,1.0906,1.0527,0.9946,1.0963,1.1511,1.1329,1.215,1.2619,1.2627,1.2798,1.2889,1.2982,1.3161,1.324,1.3333,1.3341,1.335,1.335,1.3341,1.3613,1.4324,1.4977,1.5889,1.6861,1.7776,1.8355,1.8752,1.8956,1.9136,1.9084,1.9193,1.9241,1.9108,1.8976,1.8831,1.8722,1.8686,1.8662,1.8517,1.8493,1.8384,1.8131,1.8082,1.8046,1.7925,1.79,1.8111,1.8441,1.8211,1.791,1.7716,1.7332,1.6634,1.5395,1.4738,1.4338,2.3216,2.2987,2.2945,2.2709,2.248,2.2272,2.2168,2.2081,0.0,0.0,0.0,1.9504,1.9304,1.9011,1.8884,1.887,1.877,1.857,1.8055,1.7288,1.5996,1.4969,1.4235,1.3176,1.2657,1.2519,1.2491,1.2333,1.2056,1.2022,1.217,1.2617,1.3365,1.3936,1.4484,1.5356,1.5412,1.4595,1.5368,1.5897,1.6086,1.6076,1.5846,1.5387,1.5871,1.6182,1.6304,1.6514,1.6573,1.6292,1.6031,1.5677,1.5102,1.4924,1.4856,1.4803,1.4292,1.3631,1.2811,1.2445,1.1987,1.1383,1.2847,1.3516,1.3058,1.3998,1.4654,1.4654,1.4784,1.4846,1.4856,1.5038,1.5098,1.5108,1.5098,1.5108,1.5098,1.5108,1.5173,1.5694,1.6462,1.7238,1.7636,1.8483,1.9136,1.9072,1.9072,1.9048,1.9024,1.9,1.8915,1.8698,1.8625,1.8541,1.8372,1.8324,1.8275,1.8239,1.8215,1.8118,1.7889,1.7805,1.778,1.7681,1.7843,1.8123,1.8364,1.8384,1.8365,1.8109,1.7875,1.7503,1.6943,1.6214,1.5522,2.6226,2.5978,2.5743,2.5507,2.5248,2.5,2.4894,2.4625,2.2189,2.1008,2.0672,2.0537,2.0233,2.0013,1.9793,1.9765,1.9674,1.9464,1.9026,1.8365,1.6955,1.5915,1.5317,1.4137,1.3501,1.3339,1.3207,1.297,1.286,1.2713,1.3126,1.4085,1.435,1.4982,1.5854,1.6529,1.6893,1.699,1.712,1.7423,1.7916,1.7904,1.7657,1.715,1.7185,1.7172,1.6992,1.7195,1.7265,1.6992,1.7125,1.709,1.6749,1.6714,1.6641,1.6372,1.5806,1.524,1.4814,1.4476,1.4271,1.4365,1.5503,1.5836,1.4706,1.5018,1.5286,1.5286,1.5509,1.5567,1.5577,1.5822,1.5944,1.5889,1.5879,1.5879,1.5954,1.5879,1.6148,1.6742,1.712,1.77,1.8302,1.8816,1.9048,1.906,1.9,1.8976,1.877,1.8734,1.8625,1.842,1.8348,1.8336,1.8251,1.8287,1.8167,1.7962,1.7937,1.7853,1.7612,1.7563,1.7669,1.7855,1.7972,1.8106,1.8365,1.8389,1.8411,1.8345,1.8266,1.8118,1.7733,1.7502,1.7106,2.6435,2.6194,2.6061,2.5856,2.5602,2.5482,2.5348,2.5251,2.3904,2.319,2.2872,2.2833,2.2576,2.2148,2.2025,2.205,2.2028,2.1648,2.1033,2.0277,1.8916,1.7865,1.7188,1.6177,1.5564,1.5283,1.5197,1.5001,1.4656,1.4452,1.4789,1.5472,1.6011,1.683,1.7761,1.8026,1.8169,1.8157,1.7955,1.8034,1.83,1.8143,1.7877,1.7491,1.7479,1.743,1.731,1.7418,1.743,1.731,1.7418,1.743,1.7322,1.7298,1.7249,1.7141,1.6844,1.6446,1.5957,1.5395,1.5299,1.5867,1.6581,1.7047,1.6943,1.7248,1.7438,1.7438,1.7476,1.7543,1.7543,1.7644,1.77,1.7711,1.77,1.77,1.7711,1.7711,1.784,1.8098,1.8291,1.8483,1.8828,1.8888,1.8867,1.8855,1.8758,1.8553,1.83,1.8251,1.8215,1.8094,1.8058,1.7998,1.7889,1.7853,1.7793,1.7672,1.766,1.7612,1.7491,1.7479,1.7655,1.7914,1.8148,1.8255,1.8376,1.8564,1.8562,1.8233,1.825,1.813,1.7889,1.7796,1.7475,2.6061,2.5832,2.5832,2.5675,2.536,2.5348,2.5397,2.524,2.5047,2.4854,2.4564,2.454,2.4275,2.3784,2.384,2.3736,2.3616,2.3261,2.2633,2.1742,2.0559,1.952,1.885,1.8072,1.7471,1.7096,1.7058,1.6836,1.6362,1.6072,1.6196,1.6704,1.7595,1.8415,1.9072,1.9136,1.8939,1.8698,1.8375,1.8208,1.8203,1.7986,1.7756,1.7503,1.7479,1.755,1.7608,1.7537,1.755,1.7608,1.7537,1.7479,1.7479,1.7479,1.7515,1.7575,1.753,1.7395,1.7013,1.6444,1.6463,1.7144,1.7483,1.7903,1.86,1.8956,1.9136,1.9136,1.8996,1.906,1.8996,1.9072,1.9136,1.9136,1.9136,1.9008,1.9072,1.9136,1.9136,1.9136,1.9136,1.9072,1.9036,1.8855,1.8674,1.8577,1.836,1.8118,1.7913,1.7829,1.7852,1.7781,1.7781,1.7732,1.7515,1.7503,1.7503,1.7479,1.7491,1.7503,1.7479,1.7479,1.7655,1.8018,1.8177,1.8301,1.8411,1.8506,1.8435,1.805,1.7889,1.7862,1.7675,1.7609,1.7437,2.6061,2.5844,2.582,2.5675,2.5446,2.5348,2.5216,2.5096,2.4963,2.4758,2.4299,2.4275,2.4118,2.3784,2.376,2.3628,2.3399,2.3176,2.2757,2.1995,2.0872,2.0135,1.9682,1.8926,1.8305,1.7996,1.7945,1.7775,1.7338,1.6966,1.7083,1.7663,1.8433,1.8883,1.9108,1.9072,1.8939,1.8686,1.8444,1.8191,1.7925,1.7949,1.7744,1.7491,1.7479,1.7655,1.7914,1.7667,1.7667,1.7901,1.7667,1.7479,1.7479,1.7479,1.7587,1.7805,1.7865,1.8022,1.8416,1.8438,1.8443,1.8808,1.8832,1.8908,1.9008,1.9072,1.9136,1.9136,1.9136,1.9136,1.9136,1.9136,1.9136,1.9136,1.9136,1.9136,1.9136,1.9136,1.9136,1.9136,1.9136,1.9136,1.9048,1.8831,1.8565,1.8312,1.807,1.7901,1.7829,1.7684,1.7563,1.7539,1.7527,1.7527,1.7479,1.7479,1.7479,1.7479,1.7479,1.7479,1.7479,1.7537,1.7655,1.8169,1.8154,1.8166,1.8332,1.8275,1.7995,1.7822,1.7689,1.7635,1.7595,1.7582,1.7477,2.5699,2.5602,2.559,2.553,2.5421,2.5192,2.5144,2.4939,2.4626,2.4432,2.4226,2.4069,2.3949,2.384,2.3604,2.3471,2.3351,2.3007,2.2754,2.2405,2.1766,2.1424,2.1262,2.0814,2.0343,2.0077,1.9919,1.9603,1.9048,1.8643,1.847,1.8552,1.8906,1.9052,1.9072,1.8915,1.871,1.8456,1.8191,1.7913,1.7672,1.7636,1.7587,1.7562,1.7726,1.7843,1.7972,1.7855,1.7843,1.7972,1.7667,1.7479,1.7479,1.7479,1.7586,1.7648,1.795,1.836,1.8942,1.8915,1.8963,1.9072,1.9136,1.9136,1.9136,1.9136,1.9136,1.9136,1.9136,1.9136,1.9136,1.9136,1.9136,1.9136,1.9136,1.9136,1.9136,1.9136,1.9136,1.9136,1.9136,1.9136,1.9012,1.871,1.83,1.7925,1.7708,1.766,1.7636,1.7551,1.7503,1.7479,1.7479,1.7479,1.7479,1.7479,1.7479,1.7479,1.7479,1.7479,1.7479,1.7479,1.7713,1.8298,1.8103,1.8133,1.8446,1.8195,1.7902,1.7702,1.7582,1.7582,1.7582,1.7582,1.7529,2.5348,2.5348,2.5348,2.5397,2.5313,2.5047,2.4879,2.4782,2.4313,2.4202,2.4106,2.3772,2.3731,2.3628,2.3459,2.3381,2.3188,2.2826,2.2685,2.26,2.2343,2.2223,2.2138,2.1957,2.1691,2.1366,2.1076,2.0641,2.0074,1.9742,1.939,1.9108,1.9136,1.9136,1.9048,1.8819,1.8553,1.8287,1.801,1.7744,1.7527,1.7479,1.7537,1.7667,1.7855,1.8089,1.8252,1.8077,1.8031,1.8089,1.7726,1.7479,1.7479,1.7479,1.7574,1.7624,1.8022,1.8493,1.8939,1.8963,1.9,1.906,1.9136,1.9136,1.9136,1.9136,1.9136,1.9136,1.9136,1.9136,1.9136,1.9136,1.9136,1.9136,1.9136,1.9136,1.9136,1.9136,1.9136,1.9136,1.9136,1.9036,1.8927,1.8577,1.8143,1.7744,1.7551,1.7479,1.7479,1.7491,1.7479,1.7479,1.7479,1.7479,1.7479,1.7479,1.7479,1.7479,1.7479,1.7479,1.7479,1.7479,1.764,1.8089,1.8002,1.7961,1.8192,1.8035,1.7889,1.7689,1.7582,1.7582,1.7582,1.7582,1.7582,2.5348,2.5336,2.5433,2.5277,2.5059,2.4939,2.4662,2.4241,2.4238,2.4001,2.376,2.3507,2.3387,2.3375,2.3406,2.3176,2.2818,2.2733,2.2576,2.237,2.2334,2.22,2.1897,2.1934,2.1655,2.1183,2.0892,2.0291,1.9633,1.9548,1.9338,1.9084,1.9136,1.9136,1.9024,1.8782,1.8553,1.8263,1.7986,1.7744,1.7515,1.7479,1.7667,1.7972,1.7972,1.8252,1.8706,1.8311,1.8148,1.8357,1.783,1.7479,1.7479,1.7479,1.7587,1.7901,1.8131,1.8408,1.8674,1.8746,1.8843,1.9024,1.9136,1.9136,1.9136,1.9136,1.9136,1.9136,1.9136,1.9136,1.9136,1.9136,1.9136,1.9136,1.9136,1.9136,1.9136,1.9136,1.9136,1.9136,1.9136,1.8976,1.8746,1.8469,1.8179,1.7877,1.7636,1.7479,1.7479,1.7479,1.7479,1.7479,1.7479,1.7479,1.7479,1.7479,1.7479,1.7479,1.7479,1.7479,1.7479,1.7513,1.7741,1.7855,1.773,1.7742,1.7858,1.7889,1.7716,1.7582,1.7582,1.7582,1.7582,1.7582,1.7582,2.4914,2.4914,2.4831,2.4866,2.477,2.4601,2.4407,2.4214,2.3796,2.3604,2.3483,2.3309,2.3104,2.2947,2.2935,2.2838,2.2721,2.2552,2.2259,2.2029,2.2017,2.1873,2.1619,2.145,2.1269,2.1098,2.0617,2.0086,1.9572,1.9301,1.9169,1.9096,1.9136,1.9,1.8807,1.8565,1.83,1.8022,1.7756,1.7575,1.7503,1.7479,1.7726,1.8181,1.8252,1.8473,1.8868,1.8473,1.8311,1.8415,1.783,1.7479,1.7479,1.7479,1.7599,1.7865,1.8143,1.8408,1.8662,1.8843,1.8963,1.9124,1.9136,1.9136,1.9136,1.9136,1.9136,1.9136,1.9136,1.9136,1.9136,1.9136,1.9136,1.9136,1.9136,1.9136,1.9136,1.9136,1.9136,1.9136,1.9072,1.8976,1.8734,1.8456,1.8191,1.7913,1.7648,1.7515,1.7479,1.7479,1.7479,1.7479,1.7479,1.7479,1.7479,1.7479,1.7479,1.7479,1.7479,1.7479,1.7467,1.7455,1.7579,1.7742,1.7634,1.7614,1.782,1.7796,1.7622,1.7582,1.7582,1.7582,1.7582,1.7582,1.7582,2.4625,2.4625,2.4625,2.4576,2.448,2.4311,2.4142,2.388,2.3519,2.3406,2.3285,2.3109,2.2891,2.2733,2.2636,2.2539,2.2467,2.2285,2.2042,2.1873,2.1788,2.1595,2.1354,2.1148,2.1038,2.082,2.0267,1.9772,1.9374,1.9221,1.9136,1.9136,1.9136,1.8939,1.8686,1.842,1.8155,1.7877,1.7612,1.7479,1.7479,1.7479,1.7772,1.8298,1.8415,1.859,1.8997,1.8648,1.8415,1.8298,1.783,1.7479,1.7479,1.7479,1.7563,1.7756,1.7998,1.8275,1.8541,1.8807,1.8988,1.906,1.9136,1.9136,1.9136,1.9136,1.9136,1.9136,1.9136,1.9136,1.9136,1.9136,1.9136,1.9136,1.9136,1.9136,1.9136,1.9136,1.9136,1.9136,1.9136,1.8988,1.8831,1.8589,1.8324,1.8034,1.7781,1.7599,1.7503,1.7479,1.7479,1.7479,1.7479,1.7479,1.7479,1.7479,1.7479,1.7479,1.7479,1.7467,1.7418,1.7406,1.7493,1.7641,1.77,1.7676,1.7646,1.7689,1.7635,1.7595,1.7582,1.7582,1.7582,1.7582,1.7582,2.4601,2.4576,2.4613,2.4444,2.4251,2.4202,2.3844,2.3471,2.3375,2.3273,2.3109,2.2842,2.2709,2.2661,2.2467,2.215,2.1969,2.1897,2.1836,2.1849,2.1571,2.1329,2.1064,2.1098,2.075,2.0303,1.9748,1.9427,1.912,1.9084,1.9136,1.9136,1.9136,1.8927,1.8674,1.8408,1.8143,1.7853,1.7599,1.7479,1.7479,1.7479,1.7772,1.8298,1.8415,1.8719,1.9359,1.8777,1.8415,1.8357,1.783,1.7479,1.7479,1.7479,1.7491,1.761,1.7756,1.8022,1.83,1.8577,1.8879,1.9024,1.9136,1.9136,1.9136,1.9136,1.9136,1.9136,1.9136,1.9136,1.9136,1.9136,1.9136,1.9136,1.9136,1.9136,1.9136,1.9136,1.9136,1.9136,1.9136,1.9136,1.9012,1.8807,1.8529,1.8263,1.7998,1.7732,1.7527,1.7479,1.7479,1.7479,1.7479,1.7479,1.7479,1.7479,1.7479,1.7479,1.7479,1.7467,1.7358,1.7356,1.744,1.7554,1.7627,1.7601,1.7727,1.7729,1.7622,1.7582,1.7582,1.7582,1.7582,1.7582,1.7582,2.4094,2.4013,2.4082,2.3965,2.3892,2.388,2.3688,2.3363,2.3261,2.3019,2.283,2.25,2.2455,2.2443,2.2358,2.2188,2.1873,2.1764,2.1571,2.1401,2.1304,2.1122,2.0847,2.0856,2.0577,2.0026,1.9639,1.939,1.912,1.9136,1.9136,1.9136,1.9136,1.8843,1.8456,1.8324,1.8082,1.7648,1.7527,1.7479,1.7479,1.7479,1.7772,1.8298,1.8415,1.8719,1.9314,1.8777,1.8415,1.8415,1.783,1.7479,1.7479,1.7479,1.7479,1.7527,1.7913,1.8191,1.8324,1.8698,1.8976,1.9124,1.9136,1.9136,1.9136,1.9136,1.9136,1.9136,1.9136,1.9136,1.9136,1.9136,1.9136,1.9136,1.9136,1.9136,1.9136,1.9136,1.9136,1.9136,1.9136,1.9136,1.91,1.8906,1.8601,1.8324,1.8119,1.7852,1.7563,1.7479,1.7479,1.7479,1.7479,1.7479,1.7479,1.7479,1.7479,1.7479,1.7479,1.7418,1.731,1.7271,1.7387,1.7547,1.7618,1.7657,1.7782,1.7742,1.7635,1.7582,1.7582,1.7582,1.7582,1.7582,1.7582,2.384,2.384,2.384,2.384,2.384,2.384,2.3635,2.3309,2.3116,2.2915,2.26,2.2343,2.2346,2.2346,2.2346,2.2128,2.1728,2.1547,2.1269,2.1026,2.0989,2.0892,2.0641,2.0448,2.0231,1.9881,1.9495,1.9306,1.9084,1.9136,1.9136,1.9136,1.9136,1.8879,1.8456,1.8324,1.8058,1.7672,1.7539,1.7479,1.7479,1.7479,1.7726,1.8194,1.8357,1.8648,1.9127,1.8765,1.8532,1.8298,1.783,1.7479,1.7479,1.7479,1.7479,1.7587,1.7962,1.83,1.8348,1.877,1.9136,1.9136,1.9136,1.9136,1.9136,1.9136,1.9136,1.9136,1.9136,1.9136,1.9136,1.9136,1.9136,1.9136,1.9136,1.9136,1.9136,1.9136,1.9136,1.9136,1.9136,1.9136,1.9088,1.9015,1.8674,1.836,1.8143,1.7925,1.7624,1.7479,1.7479,1.7479,1.7479,1.7479,1.7479,1.7479,1.7479,1.7479,1.7479,1.7382,1.7261,1.7271,1.7265,1.7603,1.7728,1.7818,1.7943,1.7729,1.7582,1.7582,1.7582,1.7582,1.7582,1.7582,1.7582,2.384,2.384,2.384,2.384,2.376,2.3816,2.3526,2.3181,2.3084,2.2806,2.2418,2.2346,2.2346,2.2346,2.2346,2.1993,2.1559,2.1486,2.1197,2.0822,2.0702,2.0678,2.0617,2.0207,1.9953,1.982,1.9362,1.9096,1.9136,1.9136,1.9136,1.9136,1.9124,1.8951,1.8662,1.8432,1.8179,1.7913,1.7624,1.7527,1.7491,1.7479,1.7667,1.8031,1.8252,1.8532,1.8881,1.8881,1.8706,1.8357,1.7772,1.7479,1.7479,1.7479,1.7479,1.7551,1.801,1.8263,1.8408,1.8794,1.9136,1.9136,1.9136,1.9136,1.9136,1.9136,1.9136,1.9136,1.9136,1.9136,1.9136,1.9136,1.9136,1.9136,1.9136,1.9136,1.9136,1.9136,1.9136,1.9136,1.9136,1.9136,1.9136,1.9048,1.8794,1.8444,1.8263,1.801,1.7648,1.7479,1.7479,1.7479,1.7479,1.7479,1.7479,1.7479,1.7479,1.7479,1.7479,1.7406,1.7426,1.7435,1.7526,1.7786,1.7929,1.802,1.7996,1.7809,1.7649,1.7582,1.7582,1.7582,1.7582,1.7582,1.7582,2.384,2.384,2.384,2.384,2.3736,2.3647,2.3369,2.3109,2.2915,2.2661,2.2382,2.2346,2.2346,2.2346,2.2334,2.1969,2.1583,2.1474,2.1185,2.0738,2.0665,2.0665,2.0569,2.0146,1.9893,1.9808,1.9374,1.9136,1.9136,1.9136,1.9136,1.9136,1.9136,1.8951,1.8698,1.8613,1.8324,1.7937,1.7877,1.766,1.7515,1.7479,1.7667,1.7972,1.8089,1.8369,1.8823,1.8868,1.8648,1.8148,1.7726,1.7479,1.7479,1.7479,1.7563,1.7781,1.8082,1.8396,1.8589,1.8879,1.9124,1.9136,1.9136,1.9136,1.9136,1.9136,1.9136,1.9136,1.9136,1.9136,1.9136,1.9136,1.9136,1.9136,1.9136,1.9136,1.9136,1.9136,1.9136,1.9136,1.9136,1.9136,1.9136,1.9048,1.8867,1.8444,1.8251,1.8106,1.766,1.7479,1.7479,1.7479,1.7479,1.7479,1.7479,1.7479,1.7479,1.7479,1.7479,1.7479,1.7594,1.7815,1.7977,1.8269,1.8207,1.8249,1.8156,1.7983,1.7822,1.7582,1.7582,1.7582,1.7582,1.7582,1.7582,2.384,2.384,2.384,2.378,2.3592,2.3435,2.3237,2.2975,2.2794,2.2576,2.2382,2.2346,2.2346,2.2346,2.2334,2.2043,2.1523,2.1474,2.1172,2.0738,2.0665,2.0665,2.0569,2.0231,2.0002,1.9845,1.9446,1.9205,1.9096,1.9136,1.9136,1.9136,1.9136,1.8988,1.8867,1.8722,1.8541,1.8227,1.807,1.7793,1.766,1.7539,1.7596,1.7784,1.7914,1.8252,1.859,1.859,1.8311,1.8031,1.7784,1.7667,1.7479,1.7479,1.7659,1.7865,1.8143,1.8408,1.8674,1.8927,1.9124,1.9136,1.9136,1.9136,1.9136,1.9136,1.9136,1.9136,1.9136,1.9136,1.9136,1.9136,1.9136,1.9136,1.9136,1.9136,1.9136,1.9136,1.9136,1.9136,1.9136,1.9136,1.9136,1.9136,1.8807,1.8456,1.83,1.7986,1.7624,1.7539,1.7479,1.7479,1.7479,1.7479,1.7479,1.7479,1.7479,1.7479,1.7479,1.7479,1.7655,1.7948,1.8227,1.8404,1.8446,1.8464,1.833,1.8103,1.7742,1.7582,1.7582,1.7582,1.7582,1.7582,1.7582,2.3748,2.3724,2.3724,2.3647,2.3351,2.3369,2.308,2.2718,2.2685,2.2539,2.237,2.2346,2.2346,2.2346,2.2334,2.1981,2.1486,2.1462,2.1195,2.081,2.0665,2.0665,2.0629,2.0376,2.011,1.9869,1.9603,1.9326,1.9132,1.9136,1.9136,1.9136,1.9136,1.9136,1.9,1.8843,1.8722,1.8565,1.8239,1.7974,1.7829,1.766,1.761,1.7608,1.7843,1.8089,1.8252,1.8194,1.8102,1.8022,1.8009,1.7846,1.7539,1.7539,1.7732,1.7986,1.8263,1.8481,1.871,1.8963,1.9136,1.9136,1.9136,1.9136,1.9136,1.9136,1.9136,1.9136,1.9136,1.9136,1.9136,1.9136,1.9136,1.9136,1.9136,1.9136,1.9136,1.9136,1.9136,1.9136,1.9136,1.9136,1.9136,1.9036,1.8879,1.8408,1.8263,1.801,1.7684,1.7515,1.7479,1.7479,1.7479,1.7479,1.7479,1.7479,1.7479,1.7479,1.7479,1.7537,1.7655,1.7889,1.824,1.8449,1.8551,1.8579,1.8571,1.825,1.7796,1.7635,1.7675,1.7635,1.7582,1.7582,1.7582,2.3652,2.3459,2.3538,2.3381,2.3116,2.2911,2.2766,2.2709,2.2503,2.2406,2.2346,2.2346,2.2346,2.2346,2.2321,2.1981,2.151,2.1426,2.1185,2.0726,2.0665,2.0665,2.0617,2.04,2.0134,1.9881,1.9603,1.9338,1.9132,1.9136,1.9136,1.9136,1.9136,1.9136,1.9048,1.9,1.8879,1.871,1.8541,1.8263,1.7962,1.7853,1.7708,1.7622,1.7833,1.7985,1.8089,1.8252,1.8294,1.822,1.8103,1.7948,1.7889,1.7974,1.8179,1.8396,1.8529,1.871,1.8939,1.9024,1.9136,1.9136,1.9136,1.9136,1.9136,1.9136,1.9136,1.9136,1.9136,1.9136,1.9136,1.9136,1.9136,1.9136,1.9136,1.9136,1.9136,1.9136,1.9136,1.9136,1.9136,1.9136,1.9136,1.9136,1.8831,1.842,1.8203,1.8034,1.7793,1.7551,1.7503,1.7515,1.7479,1.7479,1.7479,1.7479,1.7479,1.7479,1.7479,1.7479,1.7596,1.7948,1.8298,1.8487,1.8664,1.8665,1.8731,1.8343,1.7889,1.7836,1.7742,1.7649,1.7582,1.7582,1.7582,2.3616,2.3387,2.3375,2.3225,2.2951,2.2794,2.2661,2.2539,2.2406,2.2346,2.2346,2.2346,2.2346,2.2346,2.2321,2.1981,2.151,2.1197,2.0955,2.0702,2.0665,2.0665,2.0605,2.04,2.0146,1.9893,1.9748,1.947,1.9181,1.9136,1.9136,1.9136,1.9136,1.9136,1.9136,1.9136,1.9,1.8879,1.8734,1.8529,1.8287,1.8118,1.8034,1.7889,1.8045,1.8105,1.8189,1.8237,1.8298,1.8373,1.8301,1.8191,1.8094,1.8215,1.842,1.8625,1.8686,1.8807,1.9,1.9136,1.9136,1.9136,1.9136,1.9136,1.9136,1.9136,1.9136,1.9136,1.9136,1.9136,1.9136,1.9136,1.9136,1.9136,1.9136,1.9136,1.9136,1.9136,1.9136,1.9136,1.9136,1.9136,1.9136,1.9136,1.8915,1.8565,1.8505,1.8324,1.7925,1.7696,1.7587,1.7551,1.7503,1.7479,1.7479,1.7479,1.7479,1.7479,1.7479,1.7479,1.7537,1.7948,1.8357,1.8545,1.8659,1.8814,1.8784,1.8328,1.8035,1.7916,1.7849,1.7689,1.7609,1.7635,1.7622,2.3495,2.3333,2.3255,2.3043,2.2709,2.2661,2.2539,2.237,2.2346,2.2346,2.2346,2.2346,2.2346,2.2334,2.2273,2.197,2.1402,2.0955,2.069,2.0678,2.0665,2.0665,2.0605,2.04,2.0146,1.9905,1.9784,1.9495,1.9245,1.9136,1.9136,1.9136,1.9136,1.9136,1.9136,1.9136,1.906,1.9,1.8867,1.8722,1.8613,1.8432,1.8324,1.8227,1.8215,1.8276,1.8276,1.8288,1.8287,1.836,1.8565,1.8565,1.8481,1.8432,1.8493,1.8746,1.8782,1.8879,1.9024,1.9136,1.9136,1.9136,1.9136,1.9136,1.9136,1.9136,1.9136,1.9136,1.9136,1.9136,1.9136,1.9136,1.9136,1.9136,1.9136,1.9136,1.9136,1.9136,1.9136,1.9136,1.9136,1.9136,1.9136,1.906,1.8903,1.877,1.871,1.8529,1.8179,1.7901,1.7708,1.7563,1.7503,1.7479,1.7479,1.7479,1.7479,1.7479,1.7479,1.7479,1.7537,1.8006,1.8357,1.8493,1.868,1.8849,1.8931,1.8664,1.8342,1.8115,1.8036,1.7983,1.7876,1.7729,1.7742,2.3109,2.279,2.279,2.2673,2.243,2.2406,2.2394,2.2346,2.2346,2.2346,2.2346,2.2346,2.2334,2.2198,2.2017,2.1643,2.1256,2.0822,2.0665,2.0665,2.0665,2.0665,2.0617,2.0364,2.0122,1.9881,1.9664,1.9362,1.9157,1.9136,1.9136,1.9136,1.9136,1.9136,1.9136,1.9136,1.9136,1.9136,1.8988,1.8891,1.8746,1.8662,1.8541,1.8408,1.8396,1.8372,1.8336,1.8336,1.8396,1.8601,1.8662,1.877,1.8855,1.8891,1.8927,1.9015,1.9039,1.9063,1.9124,1.9136,1.9136,1.9136,1.9136,1.9136,1.9136,1.9136,1.9136,1.9136,1.9136,1.9136,1.9136,1.9136,1.9136,1.9136,1.9136,1.9136,1.9136,1.9136,1.9136,1.9136,1.9136,1.9136,1.9136,1.906,1.8963,1.8855,1.8794,1.8529,1.8106,1.7901,1.7781,1.7636,1.7491,1.7479,1.7479,1.7479,1.7479,1.7479,1.7479,1.7479,1.7655,1.8064,1.8344,1.8493,1.8784,1.915,1.9092,1.8878,1.8744,1.8502,1.8437,1.8317,1.8196,1.809,1.8183,2.2963,2.2733,2.2733,2.2576,2.237,2.2346,2.2346,2.2346,2.2346,2.2346,2.2346,2.2334,2.2174,2.2054,2.2019,2.1631,2.1171,2.0856,2.0678,2.0665,2.0665,2.0665,2.0605,2.0279,2.005,1.9796,1.9483,1.9217,1.9084,1.9136,1.9136,1.9136,1.9136,1.9136,1.9136,1.9136,1.9136,1.9136,1.906,1.9012,1.8891,1.8879,1.8794,1.8734,1.8686,1.8698,1.8698,1.8698,1.8758,1.8867,1.8891,1.8951,1.9024,1.9136,1.9136,1.9136,1.9264,1.9264,1.92,1.92,1.9328,1.9136,1.9136,1.9136,1.9136,1.9136,1.9136,1.9136,1.9136,1.9136,1.9136,1.9136,1.9136,1.9136,1.9136,1.9136,1.9136,1.9136,1.9136,1.9136,1.9136,1.9136,1.9136,1.9048,1.9012,1.8951,1.8891,1.8553,1.8118,1.801,1.7925,1.7636,1.7479,1.7479,1.7479,1.7479,1.7479,1.7479,1.7479,1.7479,1.7655,1.8064,1.8298,1.8415,1.8836,1.9372,1.9252,1.9038,1.8998,1.8918,1.8677,1.8504,1.849,1.849,1.8557,2.2842,2.2648,2.2648,2.2527,2.2358,2.2346,2.2346,2.2346,2.2346,2.2346,2.2334,2.2198,2.2054,2.1885,2.1704,2.1486,2.105,2.0807,2.0678,2.0665,2.0665,2.0665,2.0521,2.0195,1.9893,1.982,1.9362,1.9136,1.9072,1.9136,1.9136,1.9136,1.9136,1.9136,1.9136,1.9136,1.9136,1.9136,1.9136,1.9136,1.9136,1.9136,1.9136,1.9136,1.9136,1.9048,1.9012,1.9,1.9012,1.9036,1.9048,1.906,1.9072,1.9136,1.9136,1.9136,1.9392,1.9392,1.9264,1.9392,1.9392,1.9136,1.9136,1.9136,1.9136,1.9136,1.9136,1.9136,1.9136,1.9136,1.9136,1.9136,1.9136,1.9136,1.9136,1.9136,1.9136,1.9136,1.9136,1.9136,1.9136,1.9136,1.9136,1.9136,1.9036,1.9036,1.8976,1.8698,1.8324,1.8239,1.807,1.7672,1.7479,1.7479,1.7479,1.7479,1.7479,1.7479,1.7479,1.7479,1.7713,1.8006,1.8181,1.8473,1.8952,1.9417,1.9265,1.9225,1.9172,1.9038,1.8811,1.8758,1.8838,1.8851,1.8865,2.2406,2.2382,2.2394,2.2283,2.2346,2.2346,2.2346,2.2346,2.2346,2.2346,2.2297,2.2103,2.1909,2.174,2.1413,2.1003,2.0786,2.0702,2.0665,2.0665,2.0665,2.0665,2.0593,2.0134,1.9917,1.9784,1.9338,1.9172,1.9136,1.9136,1.9136,1.9136,1.9136,1.9136,1.9136,1.9136,1.9136,1.9136,1.9136,1.9136,1.9136,1.9136,1.9136,1.9136,1.9136,1.9136,1.9136,1.9136,1.9136,1.9136,1.9136,1.9136,1.9136,1.9136,1.9136,1.92,1.9328,1.9456,1.92,1.9456,1.9456,1.92,1.9136,1.9136,1.9136,1.9136,1.9136,1.9136,1.9136,1.9136,1.9136,1.9136,1.9136,1.9136,1.9136,1.9136,1.9136,1.9136,1.9136,1.9136,1.9136,1.9136,1.9136,1.9136,1.9136,1.9136,1.9012,1.8746,1.8505,1.8384,1.8251,1.7865,1.7612,1.7587,1.7539,1.7539,1.7491,1.7491,1.7479,1.7537,1.7784,1.8018,1.8298,1.859,1.9127,1.943,1.9377,1.9363,1.9305,1.9225,1.9078,1.9202,1.9336,1.9252,1.9132,2.2346,2.2346,2.2346,2.2346,2.2346,2.2346,2.2346,2.2346,2.2334,2.2174,2.2042,2.1933,2.1716,2.1462,2.1062,2.0856,2.0678,2.0665,2.0665,2.0665,2.0665,2.0665,2.0545,2.0158,1.9893,1.9748,1.9386,1.916,1.9136,1.9136,1.9136,1.9136,1.9136,1.9136,1.9136,1.9136,1.9136,1.9136,1.9136,1.9136,1.9136,1.9136,1.9136,1.9136,1.9136,1.9136,1.9136,1.9136,1.9136,1.9136,1.9136,1.9136,1.9136,1.9136,1.9136,1.9392,1.9711,1.9647,1.9264,1.9647,1.952,1.9264,1.9136,1.9136,1.9136,1.9136,1.9136,1.9136,1.9136,1.9136,1.9136,1.9136,1.9136,1.9136,1.9136,1.9136,1.9136,1.9136,1.9136,1.9136,1.9136,1.9136,1.9136,1.9136,1.9136,1.9136,1.9036,1.8867,1.8613,1.842,1.8275,1.8082,1.7877,1.7744,1.7672,1.7624,1.7527,1.7503,1.755,1.7608,1.7843,1.8077,1.8415,1.8706,1.9127,1.9301,1.9359,1.9417,1.939,1.9403,1.9417,1.943,1.943,1.9417,1.9323,2.2346,2.2346,2.2346,2.2346,2.2346,2.2346,2.2346,2.2334,2.2186,2.2054,2.1873,2.1716,2.1449,2.1086,2.0856,2.069,2.0665,2.0665,2.0665,2.0665,2.0665,2.0665,2.0545,2.0207,1.9953,1.9881,1.9446,1.9169,1.9084,1.9136,1.9136,1.9136,1.9136,1.9136,1.9136,1.9136,1.9136,1.9136,1.9136,1.9136,1.9136,1.9136,1.9136,1.9136,1.9136,1.9136,1.9136,1.9136,1.9136,1.9136,1.9136,1.9136,1.9136,1.92,1.9328,1.9647,1.9966,1.9979,1.9724,1.9724,1.9724,1.9392,1.9136,1.9136,1.9136,1.9136,1.9136,1.9136,1.9136,1.9136,1.9136,1.9136,1.9136,1.9136,1.9136,1.9136,1.9136,1.9136,1.9136,1.9136,1.9136,1.9136,1.9136,1.9136,1.9136,1.9136,1.9024,1.8939,1.8746,1.8505,1.8348,1.8215,1.8118,1.7986,1.7913,1.7817,1.7684,1.7622,1.7598,1.7679,1.7985,1.8265,1.859,1.8939,1.9185,1.9301,1.943,1.943,1.943,1.943,1.943,1.943,1.943,1.943,1.943,2.2346,2.2346,2.2346,2.2334,2.2321,2.2334,2.2334,2.2237,2.1981,2.1873,2.1728,2.1366,2.1062,2.0832,2.0702,2.0665,2.0665,2.0665,2.0665,2.0665,2.0665,2.0665,2.0557,2.0364,2.011,1.9905,1.9543,1.9277,1.9132,1.916,1.9148,1.9136,1.9136,1.9136,1.9136,1.9136,1.9136,1.9136,1.9136,1.9136,1.9136,1.9136,1.9136,1.9136,1.9136,1.9136,1.9136,1.9136,1.9136,1.9136,1.9136,1.9136,1.92,1.9392,1.9507,1.9839,2.0221,2.0297,2.017,2.0043,1.9851,1.9584,1.9328,1.9136,1.9136,1.9136,1.9136,1.916,1.9172,1.9096,1.9096,1.9136,1.9136,1.9136,1.9136,1.9136,1.9136,1.9136,1.9136,1.9136,1.9136,1.9136,1.9136,1.9136,1.9136,1.9136,1.9072,1.9,1.8831,1.8613,1.8481,1.836,1.8324,1.8251,1.8227,1.8106,1.7913,1.79,1.7899,1.7978,1.8081,1.8407,1.8823,1.8997,1.9243,1.9359,1.943,1.943,1.943,1.943,1.943,1.943,1.943,1.943,1.943,2.2346,2.2346,2.2346,2.2162,2.2029,2.2017,2.1933,2.1788,2.1667,2.1523,2.1425,2.0991,2.0832,2.069,2.0665,2.0665,2.0665,2.0665,2.0665,2.0665,2.0665,2.0665,2.0581,2.0436,2.0207,2.0038,1.9712,1.9512,1.9338,1.9181,1.9148,1.9136,1.9136,1.9136,1.9136,1.9136,1.9136,1.9136,1.9136,1.9136,1.9136,1.9136,1.9136,1.9136,1.9136,1.9136,1.9136,1.9136,1.9136,1.9136,1.9136,1.92,1.9392,1.9571,1.9826,2.0094,2.0475,2.0602,2.0615,2.0488,2.0157,1.9647,1.9328,1.9136,1.9136,1.9136,1.9245,1.9269,1.9233,1.9145,1.9354,1.9245,1.9136,1.9136,1.9136,1.9136,1.9136,1.9136,1.9136,1.9136,1.9136,1.9136,1.9136,1.9136,1.9136,1.9072,1.906,1.9036,1.8891,1.8794,1.8686,1.8613,1.8577,1.8541,1.8517,1.8336,1.8143,1.8203,1.8214,1.8317,1.8382,1.857,1.8939,1.9127,1.9243,1.9359,1.943,1.943,1.943,1.943,1.943,1.943,1.943,1.943,1.943,2.2346,2.2346,2.2346,2.2188,2.1958,2.1946,2.1728,2.1486,2.139,2.1197,2.1001,2.0738,2.0665,2.0665,2.0665,2.0665,2.0665,2.0665,2.0665,2.0665,2.0665,2.0665,2.0605,2.0577,2.0364,2.0207,1.9953,1.97,1.9434,1.9265,1.9169,1.9172,1.9136,1.9136,1.9136,1.9136,1.9136,1.9136,1.9136,1.9136,1.9136,1.9136,1.9136,1.9136,1.9136,1.9136,1.9136,1.9136,1.9136,1.9136,1.92,1.9392,1.9584,1.9839,2.0157,2.0475,2.0729,2.0856,2.0919,2.0679,2.0221,1.9647,1.9264,1.9136,1.9136,1.9148,1.9233,1.9386,1.9289,1.9342,1.9536,1.9314,1.9145,1.9132,1.9084,1.9136,1.9136,1.9136,1.9136,1.9136,1.9136,1.9136,1.9136,1.9136,1.9136,1.9136,1.9072,1.9072,1.9024,1.8963,1.8976,1.8903,1.8867,1.8831,1.8794,1.8577,1.8458,1.8508,1.8557,1.8636,1.8784,1.8972,1.9095,1.9243,1.9359,1.943,1.943,1.943,1.943,1.943,1.943,1.943,1.943,1.943,1.943,2.2321,2.2346,2.2321,2.2102,2.1922,2.186,2.1691,2.1378,2.1231,2.0955,2.0762,2.069,2.0665,2.0665,2.0665,2.0665,2.0665,2.0665,2.0665,2.0665,2.0665,2.0665,2.0653,2.0605,2.0509,2.0327,2.0146,1.9893,1.9543,1.9434,1.9366,1.9221,1.9172,1.9136,1.9136,1.9136,1.9136,1.9136,1.9136,1.9136,1.9136,1.9136,1.9136,1.9136,1.9136,1.9136,1.9136,1.9136,1.9136,1.9136,1.9328,1.952,1.9711,2.0157,2.0412,2.0602,2.0919,2.1046,2.1046,2.0488,2.0043,1.9711,1.9392,1.9136,1.9136,1.916,1.9229,1.9495,1.9446,1.9458,1.9483,1.9434,1.9301,1.9193,1.9145,1.9136,1.9136,1.9136,1.9136,1.9136,1.9136,1.9136,1.9136,1.9136,1.9136,1.9136,1.9136,1.9136,1.9136,1.9136,1.9136,1.9048,1.9,1.8988,1.8915,1.8794,1.8724,1.8789,1.8914,1.8998,1.9146,1.9311,1.9449,1.9452,1.943,1.943,1.943,1.943,1.943,1.943,1.943,1.943,1.943,1.943,1.943,2.1848,2.2079,2.2079,2.1848,2.1631,2.1607,2.1366,2.105,2.0847,2.0834,2.0941,2.0832,2.0665,2.0665,2.0665,2.0665,2.0665,2.0665,2.0665,2.0665,2.0665,2.0665,2.0665,2.0653,2.0617,2.0509,2.0388,2.0243,2.0026,1.9724,1.9483,1.9326,1.9221,1.9136,1.9136,1.9136,1.9136,1.9136,1.9136,1.9136,1.9136,1.9136,1.9136,1.9136,1.9136,1.9136,1.9136,1.9136,1.9136,1.9136,1.9328,1.952,1.9775,2.0234,2.0488,2.0792,2.1046,2.1109,2.0919,2.0539,2.0106,1.98,1.9456,1.9136,1.9136,1.9136,1.9314,1.9579,1.9591,1.9688,1.9905,1.9615,1.9434,1.9338,1.9318,1.9185,1.9136,1.9136,1.9136,1.9136,1.9136,1.9136,1.9136,1.9136,1.9136,1.9136,1.9136,1.9136,1.9136,1.9136,1.9136,1.9136,1.9048,1.906,1.9024,1.8915,1.8879,1.8969,1.9174,1.9448,1.9588,1.9706,1.9661,1.9653,1.9551,1.943,1.943,1.943,1.943,1.943,1.943,1.943,1.943,1.943,1.943,2.1583,2.174,2.1836,2.1655,2.1378,2.1438,2.1172,2.0726,2.0678,2.0844,2.0929,2.0738,2.0665,2.0665,2.0665,2.0665,2.0665,2.0665,2.0665,2.0665,2.0665,2.0665,2.0665,2.0665,2.0653,2.0617,2.0521,2.0376,2.0219,1.9917,1.9664,1.9434,1.9281,1.916,1.9136,1.9136,1.9136,1.9136,1.9136,1.9136,1.9136,1.9136,1.9136,1.9136,1.9136,1.9136,1.9136,1.9136,1.9136,1.9136,1.9264,1.9456,1.9851,2.0234,2.0488,2.0792,2.1046,2.1086,2.1115,2.0644,2.0335,2.0372,1.9591,1.9148,1.9172,1.9245,1.9458,1.9676,1.9802,1.9941,2.011,1.9784,1.97,1.9681,1.9548,1.935,1.9229,1.9241,1.9181,1.9233,1.9108,1.9096,1.9136,1.9136,1.9136,1.9136,1.9136,1.9136,1.9136,1.9136,1.9136,1.9136,1.9136,1.9136,1.9136,1.9048,1.9024,1.9124,1.9384,1.9738,1.9872,1.9872,1.9926,1.9853,1.9693,1.9533,1.947,1.943,1.943,1.943,1.943,1.943,1.943,1.943,1.943,2.145,2.1498,2.174,2.1535,2.1231,2.1305,2.1124,2.069,2.0678,2.0759,2.0702,2.0714,2.0665,2.0665,2.0665,2.0665,2.0665,2.0665,2.0665,2.0665,2.0665,2.0665,2.0665,2.0665,2.0665,2.0665,2.0617,2.0496,2.0315,2.0086,1.9833,1.9507,1.9269,1.9172,1.9136,1.9136,1.9136,1.9136,1.9136,1.9136,1.9136,1.9136,1.9136,1.9136,1.9136,1.9136,1.9136,1.9136,1.9136,1.92,1.9392,1.952,1.9839,2.0221,2.0475,2.0729,2.0982,2.1192,2.1379,2.0838,2.0668,2.06,1.9788,1.9322,1.9217,1.941,1.9652,1.9893,2.0026,2.0158,2.0243,2.0171,2.0086,1.9965,1.9845,1.9688,1.9519,1.9446,1.9362,1.9289,1.9193,1.9145,1.9084,1.9136,1.9136,1.9136,1.9136,1.9136,1.9136,1.9136,1.9136,1.9136,1.9136,1.9136,1.9136,1.9136,1.92,1.9264,1.9647,2.003,2.0052,2.0133,2.0204,2.0134,1.9893,1.9693,1.9466,1.943,1.943,1.943,1.943,1.943,1.943,1.943,1.943,2.1003,2.1185,2.1328,2.1268,2.1064,2.0943,2.0977,2.0919,2.0762,2.082,2.1013,2.075,2.0665,2.0665,2.0665,2.0665,2.0665,2.0665,2.0665,2.0665,2.0665,2.0665,2.0665,2.0665,2.0665,2.0665,2.0653,2.0605,2.046,2.0255,1.9845,1.947,1.9217,1.9108,1.9136,1.9136,1.9136,1.9136,1.9136,1.9136,1.9136,1.9136,1.9136,1.9136,1.9136,1.9136,1.9136,1.9136,1.9136,1.9136,1.92,1.9392,1.9979,2.017,2.0361,2.0919,2.1072,2.1229,2.1419,2.0916,2.0666,2.0788,2.0133,1.9832,1.9688,1.9748,1.9893,2.0062,2.0243,2.0352,2.0412,2.0376,2.0315,2.0219,2.0098,1.9941,1.9796,1.9736,1.9652,1.947,1.9374,1.9193,1.9132,1.9136,1.9136,1.9136,1.9136,1.9136,1.9136,1.9136,1.9136,1.9136,1.9136,1.9136,1.9136,1.9136,1.9264,1.9456,1.9903,2.0208,2.0358,2.044,2.0566,2.0361,2.0027,1.972,1.9426,1.943,1.943,1.943,1.943,1.943,1.943,1.943,1.943,2.0832,2.0977,2.1086,2.1052,2.1086,2.0844,2.0844,2.0929,2.0807,2.0844,2.0871,2.0738,2.0665,2.0665,2.0665,2.0665,2.0665,2.0665,2.0665,2.0665,2.0665,2.0665,2.0665,2.0665,2.0665,2.0665,2.0641,2.0662,2.0493,2.0038,1.9615,1.9639,1.9289,1.9108,1.9136,1.9136,1.9136,1.9136,1.9136,1.9136,1.9136,1.9136,1.9136,1.9136,1.9136,1.9136,1.9136,1.9136,1.9136,1.9136,1.92,1.9456,1.9979,2.0106,2.0488,2.0982,2.1109,2.1349,2.1592,2.1097,2.0974,2.0935,2.0576,2.033,2.0134,2.0134,2.0171,2.0243,2.0364,2.0484,2.0521,2.0533,2.0484,2.0436,2.0303,2.0171,2.011,2.005,1.9893,1.97,1.9519,1.9326,1.9205,1.9185,1.9136,1.9136,1.9136,1.9136,1.9136,1.9136,1.9136,1.9136,1.9136,1.9136,1.9136,1.92,1.9392,1.9635,2.0094,2.0399,2.0563,2.0661,2.0699,2.0441,2.008,1.9773,1.9466,1.9457,1.943,1.943,1.943,1.943,1.943,1.943,1.943,2.0665,2.0702,2.1001,2.1074,2.1062,2.0832,2.0678,2.0665,2.0678,2.0678,2.069,2.0678,2.0665,2.0665,2.0665,2.0665,2.0665,2.0665,2.0665,2.0665,2.0665,2.0665,2.0665,2.0665,2.0665,2.0665,2.0593,2.0448,2.0158,1.982,1.9639,1.9808,1.9338,1.9084,1.9136,1.9136,1.9136,1.9136,1.9136,1.9136,1.9136,1.9136,1.9136,1.9136,1.9136,1.9136,1.9136,1.9136,1.9136,1.92,1.9392,1.9584,1.9966,2.0348,2.0792,2.0982,2.1109,2.143,2.162,2.1253,2.1267,2.1288,2.1138,2.0707,2.046,2.0388,2.0388,2.0388,2.0509,2.0569,2.0605,2.0617,2.0581,2.0557,2.0496,2.0537,2.0544,2.0527,2.0503,2.0293,2.0059,1.9838,1.9554,1.9468,1.952,1.9328,1.9264,1.9328,1.92,1.92,1.9136,1.9136,1.9136,1.9136,1.92,1.9264,1.9507,1.9826,2.0272,2.0539,2.0779,2.0813,2.0833,2.0561,2.0201,1.984,1.9573,1.9524,1.9444,1.943,1.943,1.943,1.943,1.943,1.943,2.0665,2.0678,2.0738,2.0762,2.0832,2.0702,2.0665,2.0665,2.0665,2.0665,2.0665,2.0665,2.0665,2.0665,2.0665,2.0665,2.0665,2.0665,2.0665,2.0665,2.0665,2.0665,2.0665,2.0665,2.0665,2.0593,2.0472,2.0267,2.005,1.9802,1.9536,1.9543,1.9217,1.9072,1.9136,1.9136,1.9136,1.9136,1.9136,1.9136,1.9136,1.9136,1.9136,1.9136,1.9136,1.9136,1.9136,1.9136,1.9136,1.9136,1.9456,1.9839,2.0348,2.0729,2.0982,2.1109,2.1122,2.1443,2.1594,2.1436,2.1293,2.1351,2.122,2.0873,2.0641,2.0593,2.0581,2.065,2.0674,2.0641,2.0665,2.0665,2.0665,2.0665,2.0665,2.0813,2.0902,2.0972,2.1039,2.0843,2.0526,2.0238,1.9925,1.9788,1.9851,1.9851,1.9915,1.9851,1.9584,1.9456,1.9264,1.9264,1.9136,1.9136,1.92,1.9355,1.9649,1.9916,2.0309,2.0639,2.0919,2.0929,2.0962,2.0668,2.0347,2.0013,1.972,1.9492,1.9484,1.9444,1.943,1.943,1.943,1.943,1.943,2.0665,2.0665,2.0665,2.0665,2.0665,2.0665,2.0665,2.0665,2.0665,2.0665,2.0665,2.0665,2.0665,2.0665,2.0665,2.0665,2.0665,2.0665,2.0665,2.0665,2.0665,2.0665,2.0665,2.0665,2.0665,2.0593,2.0279,2.0062,2.005,1.9579,1.939,1.9495,1.9314,1.9136,1.9136,1.9136,1.9136,1.9136,1.9072,1.9148,1.9084,1.9084,1.9072,1.9136,1.9136,1.9136,1.9136,1.9136,1.9136,1.9264,1.9584,2.0157,2.0666,2.0982,2.1046,2.1109,2.1176,2.1363,2.1594,2.1475,2.12,2.1295,2.1151,2.0735,2.0665,2.0629,2.0629,2.0641,2.0641,2.0665,2.0665,2.0665,2.0665,2.0665,2.0735,2.078,2.1101,2.1327,2.1175,2.0889,2.0674,2.0497,2.0206,1.9979,1.9979,1.9979,2.0106,2.0106,1.9903,1.9775,1.952,1.9328,1.9264,1.9136,1.9136,1.9382,1.9751,2.0093,2.041,2.0727,2.0992,2.1019,2.1002,2.0748,2.0494,2.0227,1.9947,1.9666,1.9524,1.9457,1.943,1.943,1.943,1.943,1.943,2.0665,2.0665,2.0665,2.0665,2.0665,2.0665,2.0665,2.0665,2.0665,2.0665,2.0665,2.0665,2.0665,2.0665,2.0665,2.0665,2.0665,2.0665,2.0665,2.0665,2.0665,2.0665,2.0665,2.0665,2.0629,2.0484,2.0207,2.0255,2.034,1.9724,1.9398,1.9652,1.9434,1.9136,1.9136,1.9136,1.9136,1.9096,1.912,1.9209,1.9132,1.9084,1.9072,1.9136,1.9136,1.9136,1.9136,1.9136,1.9136,1.9328,1.9647,2.0157,2.0539,2.0792,2.0792,2.0869,2.0898,2.1239,2.1464,2.1209,2.1314,2.1333,2.0963,2.0735,2.0665,2.0665,2.0665,2.0665,2.0665,2.0665,2.0665,2.0665,2.0665,2.0735,2.0804,2.0943,2.1289,2.1678,2.1471,2.1142,2.0938,2.0784,2.0502,2.0272,2.0234,2.0234,2.0234,2.017,2.017,2.003,1.9839,1.9584,1.938,1.9252,1.9124,1.9446,1.9865,2.0106,2.0487,2.0763,2.1015,2.1069,2.1029,2.0869,2.0615,2.0374,2.0107,1.9826,1.9639,1.9484,1.9444,1.943,1.943,1.943,1.943,2.0665,2.0665,2.0665,2.0665,2.0665,2.0665,2.0665,2.0665,2.0665,2.0665,2.0665,2.0665,2.0665,2.0665,2.0665,2.0665,2.0665,2.0665,2.0665,2.0665,2.0665,2.0665,2.0665,2.0665,2.0533,2.0388,2.0243,2.0183,2.0291,1.9772,1.9499,1.9591,1.9314,1.9096,1.9084,1.9084,1.9096,1.9145,1.9277,1.9427,1.939,1.9253,1.9084,1.9136,1.9136,1.9136,1.9136,1.9136,1.9136,1.92,1.9532,1.994,2.0259,2.045,2.0425,2.054,2.0567,2.0877,2.1042,2.0965,2.1157,2.1271,2.0943,2.0735,2.0665,2.0665,2.0665,2.0665,2.0665,2.0665,2.0665,2.0665,2.0735,2.0873,2.1012,2.1289,2.1634,2.2108,2.2253,2.1898,2.1621,2.1306,2.0911,2.0792,2.0792,2.0792,2.0729,2.0729,2.0539,2.0348,2.0157,1.9903,1.9571,1.9316,1.92,1.9598,1.9992,2.022,2.0487,2.0826,2.1015,2.1082,2.1015,2.0922,2.0762,2.0548,2.0267,1.996,1.9679,1.9537,1.9457,1.943,1.943,1.943,1.943]}]]